[[[{"header":{"parameterUnit":"kt","parameterCategory":2,"dx":1,"dy":1,"la1":29.587661999999998,"la2":31.0,"lo1":-88.76705300000003,"lo2":-86.6583820000003,"nx":115,"ny":88,"refTime":"2022-10-27T00:00:00:Z","depth":0,"parameterNumber":1,"parameterNumberName":"U-component_of_WINDS"},"data":[-16.2484,-16.3639,-16.3928,-16.5878,-16.8838,-17.0572,-17.2088,-17.3677,-17.5193,-17.5916,-17.5843,-17.5771,-17.5627,-17.4471,-17.4038,-17.4977,-17.5699,-17.3894,-17.4688,-17.6277,-17.6565,-17.7504,-17.866,-17.9598,-17.9551,-17.9724,-17.9898,-17.9423,-17.9149,-17.8733,-17.8238,-17.7663,-17.6096,-17.4366,-17.27,-17.0931,-16.9138,-16.8543,-16.784,-16.7742,-16.7742,-16.7547,-16.7352,-16.6859,-16.6327,-16.5757,-16.5248,-16.4734,-16.4462,-16.4462,-16.4462,-16.4462,-16.4462,-16.4462,-16.4462,-16.4462,-16.4462,-16.4462,-16.4462,-16.4462,-16.3456,-16.3245,-16.09,-15.8659,-15.6309,-15.3815,-15.2163,-15.0155,-14.9961,-14.9451,-14.9066,-14.8809,-14.8292,-14.7512,-14.7047,-14.6329,-14.5799,-14.5666,-14.5533,-14.5533,-14.5533,-14.5533,-14.5533,-14.5533,-14.5533,-14.5533,-14.5533,-14.6231,-14.7045,-14.8383,-14.9663,-15.0295,-15.0862,-14.8075,-14.379,-14.002,-13.7884,-13.5556,-13.3615,-13.3472,-13.3371,-13.3574,-13.3523,-13.3269,-13.3371,-13.3412,-13.3463,-13.3574,-13.3066,-13.2202,-13.1999,-13.1593,-13.0475,-12.9505,-12.8577,-16.1834,-16.2195,-16.3495,-16.5805,-16.8766,-17.0499,-17.1944,-17.3532,-17.5193,-17.5843,-17.5627,-17.5699,-17.6782,-17.6204,-17.5266,-17.7215,-17.7432,-17.5121,-17.6854,-17.8371,-17.8443,-17.8949,-17.9743,-18.0321,-18.0329,-18.0287,-17.9898,-17.9423,-17.8733,-17.8238,-17.7297,-17.6019,-17.4447,-17.27,-17.0841,-16.9232,-16.8255,-16.784,-16.7742,-16.7742,-16.7547,-16.7352,-16.6859,-16.6261,-16.5757,-16.5248,-16.4837,-16.4462,-16.4462,-16.4462,-16.4462,-16.4462,-16.4462,-16.4462,-16.4462,-16.4462,-16.4462,-16.4462,-16.4358,-16.4254,-16.2968,-16.1336,-15.8772,-15.648,-15.4116,-15.2163,-15.0787,-14.9706,-14.9706,-14.9451,-14.8938,-14.8551,-14.7773,-14.6988,-14.6725,-14.6197,-14.5932,-14.5533,-14.5533,-14.5533,-14.5533,-14.5533,-14.5533,-14.5533,-14.5533,-14.5533,-14.5882,-14.6522,-14.7453,-14.9023,-14.9519,-14.975,-14.8342,-14.4439,-14.0377,-13.7831,-13.6209,-13.4088,-13.3015,-13.2863,-13.2863,-13.3168,-13.3218,-13.2914,-13.2812,-13.3015,-13.3117,-13.2914,-13.2101,-13.1135,-13.1034,-13.083,-12.9662,-12.854,-12.741,-16.2195,-16.3061,-16.3783,-16.4361,-16.5228,-16.7466,-16.8911,-17.0138,-17.3171,-17.411,-17.346,-17.4182,-17.4399,-17.3677,-17.3966,-17.541,-17.671,-17.5627,-17.7649,-17.9671,-18.0032,-18.0248,-18.0393,-18.0682,-18.069,-18.0366,-17.9831,-17.8732,-17.7297,-17.7,-17.625,-17.4366,-17.27,-17.1219,-17.0571,-16.8855,-16.784,-16.7742,-16.7742,-16.7547,-16.7253,-16.7056,-16.666,-16.5959,-16.5452,-16.5146,-16.4734,-16.4462,-16.4462,-16.4462,-16.4462,-16.4462,-16.4593,-16.4593,-16.4527,-16.4527,-16.4462,-16.4462,-16.4046,-16.318,-16.1834,-15.9954,-15.7699,-15.5249,-15.2841,-15.1229,-14.9834,-14.963,-14.963,-14.8809,-14.8362,-14.7773,-14.6988,-14.6461,-14.6197,-14.6065,-14.5799,-14.5533,-14.5533,-14.5533,-14.5533,-14.5533,-14.5591,-14.5591,-14.5708,-14.5766,-14.658,-14.7278,-14.85,-14.9837,-14.9173,-14.8173,-14.4163,-14.0217,-13.7674,-13.5895,-13.4326,-13.3325,-13.2101,-13.1897,-13.1745,-13.2355,-13.271,-13.205,-13.1847,-13.2202,-13.2101,-13.1694,-13.0983,-13.0221,-13.0068,-13.0017,-12.8849,-12.7731,-12.6649,-16.2989,-16.4072,-16.4433,-16.4433,-16.4433,-16.6528,-16.79,-16.8477,-17.216,-17.3027,-17.2088,-17.2594,-17.2666,-17.2449,-17.2882,-17.4543,-17.6132,-17.6349,-17.801,-17.9815,-18.0682,-18.0609,-18.0754,-18.0754,-18.0561,-18.0163,-17.963,-17.8732,-17.7444,-17.6173,-17.5,-17.2615,-17.1573,-17.0207,-16.9445,-16.8638,-16.7742,-16.7742,-16.7742,-16.7547,-16.7056,-16.6859,-16.6461,-16.5757,-16.5146,-16.4837,-16.4734,-16.4462,-16.4462,-16.4527,-16.4527,-16.4725,-16.4988,-16.5054,-16.4922,-16.4593,-16.4462,-16.3941,-16.3245,-16.1941,-16.0065,-15.8156,-15.5957,-15.3875,-15.2163,-15.0601,-14.9638,-14.9561,-14.9235,-14.8351,-14.7642,-14.6988,-14.6329,-14.5932,-14.5666,-14.5666,-14.5666,-14.5533,-14.5533,-14.5533,-14.5533,-14.5591,-14.5649,-14.5766,-14.5882,-14.6464,-14.7278,-14.8151,-14.9314,-14.8423,-14.7683,-14.4603,-14.0367,-13.7354,-13.5583,-13.3807,-13.2346,-13.1243,-13.1186,-13.0881,-13.0526,-13.1135,-13.1643,-13.1084,-13.083,-13.0881,-13.0881,-13.0576,-13.0119,-12.9357,-12.9103,-12.9001,-12.8036,-12.7375,-12.614,-16.3928,-16.4289,-16.5589,-16.7539,-17.0283,-17.0499,-17.1583,-17.3027,-17.346,-17.346,-17.3099,-17.2016,-17.216,-17.2449,-17.216,-17.3966,-17.6132,-17.6421,-17.7649,-18.0682,-18.0754,-18.0754,-18.0754,-18.069,-18.0431,-18.0097,-17.949,-17.845,-17.7952,-17.5949,-17.3376,-17.0841,-17.0298,-16.9631,-16.8638,-16.7937,-16.7742,-16.7742,-16.7645,-16.7352,-16.6958,-16.6461,-16.6025,-16.535,-16.494,-16.4527,-16.4462,-16.4462,-16.4462,-16.4527,-16.4791,-16.5448,-16.604,-16.65,-16.5645,-16.5081,-16.4177,-16.3311,-16.1834,-16.024,-15.8042,-15.5722,-15.3573,-15.2285,-15.1406,-15.0253,-15.0158,-15.0139,-14.9133,-14.8245,-14.7237,-14.6593,-14.6197,-14.5799,-14.5533,-14.5533,-14.5533,-14.5533,-14.5533,-14.5533,-14.5533,-14.5533,-14.5708,-14.6522,-14.6696,-14.7336,-14.8092,-14.8849,-14.8549,-14.6628,-14.4367,-14.1368,-13.7437,-13.4175,-13.2826,-13.1987,-13.0531,-13.017,-13.0221,-13.0017,-12.9459,-12.9814,-13.0424,-13.0373,-13.017,-13.0017,-12.9865,-12.9763,-12.9408,-12.8747,-12.8392,-12.8138,-12.7731,-12.712,-12.6195,-16.6022,-16.6816,-16.6528,-16.8261,-17.1077,-17.2305,-17.4182,-17.5988,-17.5338,-17.4327,-17.346,-17.1944,-17.1583,-17.2088,-17.1871,-17.3244,-17.6782,-17.6421,-17.7721,-18.0176,-18.0754,-18.0754,-18.0625,-18.0561,-18.0097,-17.9283,-17.852,-17.7519,-17.6255,-17.4133,-17.1661,-16.9138,-16.8828,-16.8351,-16.8033,-16.7742,-16.7742,-16.7645,-16.745,-16.6958,-16.6461,-16.6025,-16.5518,-16.494,-16.4734,-16.4462,-16.4462,-16.4462,-16.5054,-16.5777,-16.5843,-16.6566,-16.775,-16.8013,-16.7355,-16.5765,-16.411,-16.179,-16.0129,-15.8156,-15.5722,-15.3694,-15.204,-15.1275,-15.0612,-15.0576,-15.0604,-15.051,-14.9321,-14.8192,-14.7194,-14.6255,-14.6049,-14.5783,-14.5591,-14.5591,-14.5591,-14.5591,-14.5533,-14.5533,-14.5533,-14.5533,-14.6057,-14.6987,-14.7627,-14.8034,-14.8616,-14.8866,-14.7627,-14.4711,-14.1264,-13.8367,-13.4739,-13.1484,-13.0965,-13.0281,-12.9509,-12.9255,-12.9255,-12.8849,-12.8392,-12.8544,-12.9103,-12.9306,-12.9509,-12.9357,-12.9205,-12.9001,-12.8798,-12.8544,-12.8188,-12.7782,-12.7375,-12.6917,-12.604,-16.7683,-16.8622,-16.8044,-16.9344,-17.2016,-17.411,-17.6421,-17.8587,-17.7288,-17.606,-17.476,-17.281,-17.216,-17.1871,-17.1944,-17.3605,-17.5266,-17.671,-17.8515,-17.9743,-18.0754,-18.069,-18.0294,-17.962,-17.9006,-17.8095,-17.6713,-17.5413,-17.4528,-17.2357,-16.9816,-16.8033,-16.8033,-16.7937,-16.7742,-16.7742,-16.7742,-16.7645,-16.7253,-16.6759,-16.6261,-16.5823,-16.5146,-16.4998,-16.4988,-16.5382,-16.558,-16.5777,-16.6434,-16.7224,-16.7355,-16.8078,-16.9262,-16.9065,-16.8564,-16.7013,-16.3433,-15.9843,-15.827,-15.5368,-15.3086,-15.204,-15.1209,-15.0903,-15.1412,-15.1557,-15.1269,-15.0977,-15.0193,-14.9188,-14.8184,-14.774,-14.7471,-14.7045,-14.6696,-14.658,-14.6347,-14.6173,-14.5533,-14.5533,-14.5533,-14.5591,-14.594,-14.6929,-14.8441,-14.8558,-14.846,-14.8144,-14.645,-14.1911,-13.8335,-13.5665,-13.2476,-12.9734,-12.8852,-12.8951,-12.8595,-12.8341,-12.7934,-12.7528,-12.763,-12.7884,-12.7934,-12.829,-12.89,-12.89,-12.8544,-12.8188,-12.7884,-12.7782,-12.7833,-12.7426,-12.6967,-12.6504,-12.578,-16.8694,-16.8983,-17.0427,-17.2016,-17.3821,-17.6493,-17.8876,-18.0393,-17.8804,-17.801,-17.7721,-17.4543,-17.3244,-17.3388,-17.3388,-17.4327,-17.5843,-17.736,-17.9093,-18.0321,-18.0222,-18.0163,-17.9553,-17.8237,-17.7231,-17.6109,-17.4789,-17.3474,-17.3124,-17.0931,-16.9258,-16.8063,-16.7742,-16.7742,-16.7742,-16.7742,-16.7645,-16.745,-16.7056,-16.6561,-16.5959,-16.562,-16.5175,-16.5393,-16.5777,-16.6303,-16.6961,-16.7552,-16.8276,-16.8736,-16.8933,-16.9788,-17.0117,-16.9657,-16.9196,-16.744,-16.3671,-15.8954,-15.5492,-15.4116,-15.2224,-15.1631,-15.1211,-15.1829,-15.239,-15.2469,-15.2233,-15.1664,-15.0812,-15.0054,-14.9004,-14.8752,-14.8441,-14.8034,-14.7511,-14.7104,-14.6871,-14.6406,-14.5766,-14.5533,-14.5533,-14.5882,-14.6231,-14.7627,-14.9372,-14.9372,-14.9119,-14.8237,-14.4928,-14.0244,-13.659,-13.3922,-13.0989,-12.8145,-12.7528,-12.7731,-12.7579,-12.7731,-12.7223,-12.7121,-12.7477,-12.7782,-12.768,-12.7833,-12.8341,-12.8341,-12.7884,-12.7477,-12.7172,-12.7223,-12.7375,-12.7121,-12.7121,-12.6504,-12.5468,-17.0355,-17.0572,-17.2088,-17.3677,-17.5338,-17.736,-17.9237,-18.0248,-17.9021,-17.8226,-17.7576,-17.4977,-17.3605,-17.3605,-17.3677,-17.4471,-17.5988,-17.7576,-17.9165,-18.0409,-17.9414,-17.8797,-17.781,-17.6266,-17.5107,-17.4226,-17.2801,-17.1573,-17.1377,-16.9538,-16.8543,-16.7937,-16.7742,-16.7742,-16.7742,-16.7645,-16.7547,-16.7155,-16.6759,-16.616,-16.5757,-16.5344,-16.5261,-16.5881,-16.6566,-16.7289,-16.8078,-16.8736,-16.9328,-17.0051,-17.0511,-17.0972,-17.1892,-17.1479,-17.0017,-16.7356,-16.3928,-16.0287,-15.4731,-15.2348,-15.2065,-15.186,-15.2638,-15.3262,-15.3686,-15.3389,-15.2995,-15.2296,-15.1514,-15.0461,-14.9392,-14.8228,-14.786,-14.7569,-14.7045,-14.6347,-14.6057,-14.6057,-14.5533,-14.5533,-14.5649,-14.6289,-14.6929,-14.8616,-14.9837,-14.9779,-14.9526,-14.6694,-14.3719,-13.9491,-13.5685,-13.281,-12.9769,-12.8043,-12.7223,-12.7121,-12.7121,-12.7121,-12.7121,-12.7121,-12.7375,-12.7477,-12.7375,-12.7325,-12.763,-12.768,-12.7223,-12.7121,-12.7121,-12.7121,-12.7121,-12.7121,-12.7121,-12.6195,-12.4951,-17.1222,-17.1366,-17.2955,-17.4471,-17.6132,-17.8154,-17.9671,-18.0465,-17.9671,-17.8804,-17.7721,-17.5627,-17.4399,-17.4399,-17.4616,-17.5338,-17.6854,-17.8371,-17.9182,-18.0222,-17.8589,-17.7523,-17.6196,-17.463,-17.2886,-17.2115,-17.0773,-16.9538,-16.9631,-16.857,-16.784,-16.7742,-16.7742,-16.7742,-16.7742,-16.745,-16.7352,-16.6958,-16.6327,-16.5889,-16.5416,-16.543,-16.5711,-16.6632,-16.7881,-16.8802,-16.9591,-17.038,-17.1038,-17.1629,-17.1761,-17.2155,-17.2747,-17.1558,-16.9781,-16.7086,-16.2571,-15.9853,-15.5536,-15.2076,-15.163,-15.2937,-15.3883,-15.4203,-15.4176,-15.3991,-15.347,-15.29,-15.2209,-15.1372,-15.0303,-14.9198,-14.8441,-14.8034,-14.7045,-14.6289,-14.5998,-14.594,-14.5824,-14.5882,-14.6173,-14.6871,-14.7627,-14.9081,-14.9488,-14.943,-14.7109,-14.4334,-14.0708,-13.7002,-13.4014,-13.1164,-12.9007,-12.7838,-12.7121,-12.7121,-12.7121,-12.7121,-12.7121,-12.7121,-12.7121,-12.7172,-12.7121,-12.7172,-12.7121,-12.7121,-12.7121,-12.7121,-12.7121,-12.7121,-12.7121,-12.7121,-12.6967,-12.604,-12.4794,-17.1222,-17.1438,-17.3027,-17.4543,-17.6204,-17.9382,-18.0682,-18.0682,-18.0537,-17.9671,-17.8082,-17.6782,-17.5916,-17.5771,-17.5916,-17.6638,-17.8082,-17.9407,-18.0012,-17.9071,-17.7306,-17.6567,-17.4878,-17.2832,-17.0773,-17.0092,-16.9138,-16.8323,-16.8033,-16.784,-16.7742,-16.7742,-16.7742,-16.7742,-16.7712,-16.732,-16.7123,-16.6992,-16.6256,-16.6149,-16.607,-16.6512,-16.6895,-16.7947,-16.9328,-17.038,-17.1103,-17.1892,-17.2353,-17.2464,-17.2354,-17.2156,-17.2197,-17.0385,-16.8172,-16.6068,-16.1015,-15.7572,-15.5231,-15.3092,-15.2958,-15.4194,-15.5331,-15.5084,-15.4186,-15.4233,-15.4528,-15.3106,-15.3002,-15.2339,-15.1815,-15.1059,-15.0245,-14.9372,-14.7976,-14.7104,-14.6987,-14.6871,-14.6755,-14.6755,-14.7162,-14.7743,-14.8558,-14.9139,-14.9256,-14.7717,-14.4808,-14.1132,-13.7112,-13.4014,-13.1707,-12.9462,-12.7992,-12.7121,-12.7121,-12.7121,-12.7121,-12.7121,-12.7121,-12.7121,-12.7121,-12.7121,-12.7121,-12.7121,-12.7121,-12.7121,-12.7121,-12.7121,-12.7121,-12.7121,-12.7121,-12.7121,-12.6659,-12.604,-12.5107,-17.1222,-17.1583,-17.411,-17.5482,-17.6277,-17.9382,-18.0754,-18.0754,-18.0754,-17.9815,-17.8226,-17.7793,-17.6999,-17.6493,-17.6927,-17.7874,-17.8204,-17.8351,-17.8444,-17.7087,-17.5115,-17.3084,-17.1786,-17.0412,-16.9044,-16.8543,-16.784,-16.7742,-16.7742,-16.7742,-16.7742,-16.7742,-16.7742,-16.7742,-16.7913,-16.8189,-16.8292,-16.8223,-16.8039,-16.8286,-16.7868,-16.8184,-16.8539,-16.9788,-17.0511,-17.1498,-17.2353,-17.2747,-17.3208,-17.2748,-17.1688,-17.079,-16.9635,-16.787,-16.5097,-16.2458,-15.9609,-15.712,-15.4495,-15.3437,-15.5223,-15.575,-15.6647,-15.6021,-15.5251,-15.5018,-15.4625,-15.3433,-15.3153,-15.3037,-15.2746,-15.1699,-15.0826,-15.007,-14.8674,-14.8034,-14.786,-14.7743,-14.7627,-14.7685,-14.8441,-14.9081,-14.9663,-14.9721,-14.9272,-14.7638,-14.4416,-14.0514,-13.583,-13.2153,-12.9864,-12.8399,-12.7121,-12.7121,-12.7121,-12.7121,-12.7121,-12.7121,-12.7121,-12.7121,-12.7121,-12.7121,-12.7121,-12.7121,-12.7121,-12.7121,-12.7121,-12.7121,-12.7121,-12.7121,-12.7121,-12.7121,-12.6659,-12.5885,-12.5107,-17.1222,-17.151,-17.4616,-17.6277,-17.6999,-17.9671,-18.0754,-18.0754,-18.0754,-17.9815,-17.8226,-17.7649,-17.7143,-17.7017,-17.7611,-17.7735,-17.7849,-17.7167,-17.6571,-17.5036,-17.3084,-17.124,-17.0207,-16.9164,-16.7742,-16.784,-16.7742,-16.7742,-16.7742,-16.7742,-16.7742,-16.7742,-16.7742,-16.7742,-16.7681,-16.7922,-16.8025,-16.8148,-16.8682,-16.9291,-16.9065,-16.9394,-17.0183,-17.1103,-17.1366,-17.2353,-17.2945,-17.3142,-17.3142,-17.2594,-17.0612,-16.9929,-16.9175,-16.5797,-16.3211,-16.1149,-15.882,-15.6318,-15.3747,-15.5044,-15.6408,-15.7066,-15.7037,-15.6541,-15.5332,-15.5039,-15.4269,-15.3712,-15.3153,-15.2746,-15.2571,-15.1757,-15.1059,-15.0303,-14.9605,-14.9023,-14.8732,-14.8558,-14.85,-14.8674,-14.943,-14.9896,-15.0012,-15.0128,-14.8882,-14.7051,-14.3714,-13.9923,-13.4829,-13.0617,-12.9007,-12.7532,-12.7224,-12.7121,-12.7121,-12.7121,-12.7121,-12.7121,-12.7121,-12.7121,-12.7121,-12.7121,-12.7121,-12.7121,-12.7121,-12.7121,-12.7121,-12.7121,-12.7121,-12.7121,-12.7121,-12.7121,-12.6504,-12.5729,-12.4794,-17.1294,-17.1655,-17.4832,-17.6927,-17.8299,-18.0032,-18.0754,-18.0754,-18.0609,-17.9671,-17.8515,-17.6927,-17.6801,-17.7354,-17.6857,-17.6741,-17.7091,-17.5962,-17.471,-17.3321,-17.1767,-17.048,-16.9723,-16.8666,-16.7742,-16.7742,-16.7742,-16.7742,-16.7742,-16.7742,-16.7742,-16.7742,-16.7742,-16.7742,-16.7681,-16.7588,-16.7459,-16.8539,-16.9489,-16.9763,-17.0051,-17.0577,-17.1235,-17.1564,-17.2418,-17.3142,-17.3142,-17.2704,-17.2418,-17.2308,-16.929,-16.7709,-16.664,-16.346,-16.1371,-15.9843,-15.8054,-15.611,-15.4864,-15.5869,-15.6647,-15.6334,-15.6171,-15.6464,-15.5451,-15.4822,-15.3991,-15.3293,-15.3153,-15.2688,-15.2048,-15.135,-15.1292,-15.0768,-15.0361,-15.007,-15.0186,-14.9837,-14.9314,-14.9605,-14.9779,-14.9837,-14.9896,-14.9547,-14.8497,-14.4604,-14.1132,-13.8115,-13.3093,-12.9713,-12.8297,-12.7378,-12.7224,-12.7121,-12.7121,-12.7121,-12.7121,-12.7121,-12.7121,-12.7121,-12.7121,-12.7121,-12.7121,-12.7121,-12.7121,-12.7121,-12.7121,-12.7121,-12.7121,-12.7121,-12.7121,-12.7121,-12.6659,-12.5885,-12.4951,-17.1944,-17.3316,-17.6349,-17.7865,-17.8443,-18.0032,-18.0754,-18.0537,-17.9454,-17.9382,-17.9237,-17.7369,-17.5943,-17.5879,-17.5951,-17.5474,-17.4896,-17.3084,-17.2133,-17.1062,-16.9748,-16.8828,-16.8677,-16.839,-16.7876,-16.7742,-16.7876,-16.7742,-16.7742,-16.7742,-16.7742,-16.7742,-16.7742,-16.7742,-16.7645,-16.7289,-16.7793,-16.9136,-17.061,-17.1474,-17.1827,-17.2221,-17.2418,-17.2682,-17.2879,-17.3142,-17.2923,-17.1576,-17.0499,-16.9521,-16.652,-16.4205,-16.3709,-16.1046,-15.9214,-15.8565,-15.8046,-15.6348,-15.6168,-15.6408,-15.6647,-15.6587,-15.6499,-15.66,-15.5451,-15.4684,-15.3991,-15.3293,-15.3153,-15.2978,-15.2746,-15.2629,-15.2222,-15.1757,-15.1233,-15.1641,-15.1699,-15.0419,-14.9721,-14.9954,-15.0012,-14.9954,-14.9023,-14.879,-14.6108,-14.2082,-13.8943,-13.5955,-13.2597,-12.9311,-12.7992,-12.7224,-12.7121,-12.7121,-12.7121,-12.7121,-12.7121,-12.7121,-12.7121,-12.7121,-12.7121,-12.7121,-12.7121,-12.7121,-12.7121,-12.7121,-12.7121,-12.7121,-12.7121,-12.7121,-12.7121,-12.7121,-12.6967,-12.6195,-12.5468,-17.3171,-17.4832,-17.7215,-17.866,-17.931,-17.9526,-17.9671,-17.9454,-17.866,-17.8443,-17.8307,-17.7347,-17.6625,-17.5815,-17.502,-17.4226,-17.2663,-17.113,-17.0184,-16.9258,-16.9149,-16.8846,-16.8614,-16.8681,-16.8681,-16.8614,-16.8145,-16.7809,-16.7742,-16.7742,-16.7742,-16.7742,-16.7742,-16.7742,-16.7645,-16.6958,-16.7858,-16.9143,-17.0096,-17.1079,-17.1958,-17.2287,-17.2484,-17.3142,-17.3142,-17.3208,-17.2638,-17.0725,-16.9405,-16.8297,-16.4329,-16.1688,-16.0917,-15.9214,-15.7545,-15.7545,-15.7545,-15.7245,-15.6707,-15.7186,-15.7186,-15.6946,-15.6723,-15.66,-15.5451,-15.4407,-15.3573,-15.3153,-15.3153,-15.3153,-15.3095,-15.3153,-15.3153,-15.2978,-15.2397,-15.2629,-15.228,-15.1001,-14.9896,-15.0128,-15.0186,-14.8674,-14.7511,-14.5942,-14.2945,-13.9395,-13.6442,-13.3575,-13.0565,-12.8399,-12.7685,-12.7121,-12.7121,-12.7121,-12.7121,-12.7121,-12.7121,-12.7121,-12.7121,-12.7121,-12.7121,-12.7121,-12.7121,-12.7121,-12.7121,-12.7121,-12.7121,-12.7121,-12.7121,-12.7121,-12.7121,-12.7121,-12.7121,-12.635,-12.5107,-17.4399,-17.5771,-17.7288,-17.8804,-17.9671,-17.8515,-17.8082,-17.8226,-17.801,-17.7225,-17.6979,-17.7562,-17.7234,-17.5809,-17.428,-17.246,-17.0862,-16.9606,-16.8733,-16.8457,-16.9212,-16.9687,-16.9821,-16.9955,-16.9687,-16.9418,-16.8346,-16.7876,-16.7742,-16.7742,-16.7742,-16.7742,-16.7742,-16.7645,-16.745,-16.6759,-16.6957,-16.778,-16.7418,-16.8341,-17.0709,-17.1498,-17.2221,-17.2879,-17.3142,-17.2923,-17.191,-16.975,-16.8062,-16.7473,-16.3335,-16.1304,-16.0659,-15.8878,-15.7813,-15.7545,-15.7545,-15.7545,-15.7485,-15.7545,-15.7425,-15.7156,-15.6811,-15.6133,-15.5176,-15.413,-15.3433,-15.3293,-15.3153,-15.3153,-15.3153,-15.3153,-15.3153,-15.3095,-15.2978,-15.3037,-15.2513,-15.0826,-14.9954,-14.9896,-14.8616,-14.722,-14.6406,-14.32,-14.0067,-13.6906,-13.4014,-13.1111,-12.8703,-12.7838,-12.7121,-12.7121,-12.7121,-12.7121,-12.7121,-12.7121,-12.7121,-12.7121,-12.7121,-12.7121,-12.7121,-12.7121,-12.7121,-12.7121,-12.7121,-12.7121,-12.7121,-12.7121,-12.7121,-12.7121,-12.7121,-12.7121,-12.7121,-12.604,-12.4794,-17.3749,-17.4182,-17.5771,-17.6565,-17.6854,-17.6493,-17.7071,-17.7865,-17.6936,-17.6994,-17.7853,-17.6597,-17.5435,-17.4219,-17.2493,-17.0502,-16.8543,-16.8419,-16.8033,-16.8078,-16.9217,-16.9955,-16.9955,-16.9955,-16.9888,-16.9687,-16.848,-16.7809,-16.7742,-16.7742,-16.7742,-16.7742,-16.7742,-16.7547,-16.7155,-16.6461,-16.6954,-16.7238,-16.7143,-16.821,-17.0643,-17.209,-17.2945,-17.3142,-17.3142,-17.2087,-17.0385,-16.7709,-16.5554,-16.321,-16.0659,-15.8613,-15.8347,-15.7947,-15.7739,-15.7545,-15.7545,-15.7545,-15.7545,-15.7545,-15.741,-15.7006,-15.66,-15.5783,-15.4822,-15.4269,-15.3712,-15.3293,-15.3153,-15.3153,-15.3153,-15.3153,-15.3153,-15.3153,-15.3095,-15.2746,-15.1815,-15.0768,-14.9837,-14.8558,-14.6987,-14.6231,-14.5807,-14.3265,-14.0067,-13.6851,-13.3721,-13.0715,-12.8093,-12.7224,-12.7121,-12.7121,-12.7121,-12.7121,-12.7121,-12.7121,-12.7121,-12.7121,-12.7121,-12.7121,-12.7121,-12.7121,-12.7121,-12.7121,-12.7121,-12.7121,-12.7121,-12.7121,-12.7121,-12.7121,-12.7121,-12.6967,-12.6659,-12.5729,-12.4638,-17.541,-17.4905,-17.6349,-17.6638,-17.5988,-17.5916,-17.6097,-17.6159,-17.5764,-17.5806,-17.5596,-17.4604,-17.3609,-17.2832,-17.111,-16.9419,-16.813,-16.7742,-16.7742,-16.8078,-16.915,-16.9955,-16.9955,-16.9955,-16.9955,-16.9485,-16.8547,-16.7742,-16.7742,-16.7742,-16.7742,-16.7645,-16.745,-16.7253,-16.6859,-16.6327,-16.6582,-16.7267,-16.7143,-16.7815,-16.992,-17.1366,-17.2484,-17.2551,-17.191,-17.0725,-16.8711,-16.5918,-16.2895,-16.1304,-15.9082,-15.7947,-15.7679,-15.7545,-15.7545,-15.7545,-15.7545,-15.7545,-15.7545,-15.7545,-15.741,-15.7006,-15.6329,-15.5647,-15.496,-15.413,-15.3573,-15.3293,-15.3153,-15.3153,-15.3153,-15.3153,-15.3153,-15.3153,-15.3153,-15.2513,-15.1408,-15.0128,-14.9023,-14.786,-14.6638,-14.5749,-14.5266,-14.28,-13.9872,-13.6708,-13.3575,-13.0565,-12.7532,-12.7071,-12.7121,-12.7121,-12.7121,-12.7121,-12.7121,-12.7121,-12.7121,-12.7121,-12.7121,-12.7121,-12.7121,-12.7121,-12.7121,-12.7121,-12.7121,-12.7121,-12.7121,-12.7121,-12.7121,-12.7121,-12.6967,-12.6813,-12.635,-12.5729,-12.4638,-17.7008,-17.5925,-17.6873,-17.6656,-17.543,-17.497,-17.4395,-17.4016,-17.4393,-17.4076,-17.3336,-17.2529,-17.215,-17.1397,-16.9859,-16.861,-16.7937,-16.7742,-16.7742,-16.8011,-16.9217,-16.9888,-16.9955,-16.9888,-16.9687,-16.9284,-16.848,-16.7809,-16.7742,-16.7742,-16.7742,-16.7645,-16.7253,-16.6958,-16.6627,-16.6357,-16.6606,-16.7154,-16.7434,-16.8078,-16.9591,-17.0775,-17.1653,-17.1845,-16.975,-16.8297,-16.6879,-16.3833,-16.1304,-16.072,-15.8818,-15.7813,-15.7545,-15.7545,-15.7545,-15.7545,-15.7545,-15.7545,-15.7545,-15.7545,-15.7545,-15.7006,-15.6133,-15.5313,-15.4684,-15.3852,-15.3433,-15.3153,-15.3153,-15.3153,-15.3153,-15.3153,-15.3153,-15.3153,-15.3037,-15.2629,-15.1408,-15.0128,-14.8907,-14.7685,-14.6522,-14.54,-14.3536,-14.1372,-13.8327,-13.5178,-13.2745,-13.0414,-12.7838,-12.7071,-12.7121,-12.7121,-12.7121,-12.7121,-12.7121,-12.7121,-12.7121,-12.7121,-12.7121,-12.7121,-12.7121,-12.7121,-12.7121,-12.7121,-12.7121,-12.7121,-12.7121,-12.7121,-12.7121,-12.7121,-12.6813,-12.6659,-12.5885,-12.5107,-12.4325,-17.5618,-17.533,-17.4002,-17.3491,-17.3203,-17.1812,-17.1975,-17.2758,-17.2485,-17.254,-17.2332,-17.1648,-17.0661,-16.9766,-16.8514,-16.8101,-16.7809,-16.7742,-16.7742,-16.7876,-16.915,-16.9553,-16.9687,-16.962,-16.9217,-16.8145,-16.7876,-16.7809,-16.7742,-16.7742,-16.7742,-16.7645,-16.7253,-16.7026,-16.6726,-16.6781,-16.7324,-16.7605,-16.825,-16.9328,-17.0643,-17.1038,-17.0669,-17.0013,-16.7591,-16.531,-16.3584,-16.2009,-16.0461,-15.842,-15.7873,-15.7739,-15.7545,-15.7545,-15.7545,-15.7545,-15.7545,-15.7545,-15.7545,-15.741,-15.7006,-15.5724,-15.5313,-15.4763,-15.3932,-15.3375,-15.3095,-15.3095,-15.3153,-15.3153,-15.3153,-15.3153,-15.3153,-15.3153,-15.3153,-15.2571,-15.1408,-15.0128,-14.8692,-14.7279,-14.525,-14.3244,-14.1372,-13.9368,-13.6476,-13.3775,-13.2354,-13.0467,-12.8399,-12.7121,-12.7121,-12.7121,-12.7121,-12.7121,-12.7121,-12.7121,-12.7121,-12.7121,-12.7121,-12.7121,-12.7121,-12.7121,-12.7121,-12.7121,-12.7121,-12.7121,-12.7121,-12.7121,-12.7121,-12.6967,-12.6813,-12.6195,-12.5418,-12.4638,-12.4011,-17.7669,-17.7531,-17.6752,-17.6393,-17.6189,-17.4535,-17.3807,-17.3618,-17.2261,-17.1166,-17.0683,-16.9723,-16.9044,-16.8419,-16.7937,-16.7742,-16.7742,-16.7742,-16.7742,-16.7943,-16.8346,-16.8815,-16.8748,-16.8681,-16.8547,-16.7943,-16.7742,-16.7742,-16.7742,-16.7742,-16.7876,-16.7645,-16.7825,-16.7592,-16.7453,-16.789,-16.8461,-16.904,-16.9788,-17.0709,-17.1958,-17.2155,-17.1453,-16.9161,-16.5554,-16.2895,-16.1432,-16.0331,-15.895,-15.7947,-15.7545,-15.7545,-15.7545,-15.7545,-15.7545,-15.7545,-15.7545,-15.741,-15.7141,-15.7006,-15.6541,-15.5451,-15.4901,-15.4055,-15.323,-15.3002,-15.2804,-15.2455,-15.2746,-15.3153,-15.3153,-15.3153,-15.3153,-15.3153,-15.3153,-15.2629,-15.1072,-14.863,-14.6564,-14.5739,-14.3115,-14.0487,-13.8468,-13.6045,-13.3628,-13.2301,-13.0917,-12.9159,-12.7121,-12.7121,-12.7121,-12.7121,-12.7121,-12.7121,-12.7121,-12.7121,-12.7121,-12.7121,-12.7121,-12.7121,-12.7121,-12.7121,-12.7121,-12.7121,-12.7121,-12.7121,-12.7121,-12.7121,-12.7121,-12.6813,-12.635,-12.5885,-12.5157,-12.4168,-12.3382,-17.9638,-17.9928,-17.9085,-17.8873,-17.8593,-17.6841,-17.5229,-17.39,-17.1691,-17.0384,-16.9396,-16.8264,-16.784,-16.7742,-16.7742,-16.7742,-16.7742,-16.7742,-16.7742,-16.7742,-16.7742,-16.7742,-16.7809,-16.7876,-16.7809,-16.7809,-16.7742,-16.7742,-16.7943,-16.8078,-16.8212,-16.8351,-16.8692,-16.875,-16.8811,-16.9238,-17.0051,-17.084,-17.1366,-17.2024,-17.2879,-17.2397,-17.0773,-16.8179,-16.3957,-16.156,-16.0461,-15.8685,-15.7679,-15.7545,-15.7545,-15.7545,-15.7545,-15.7545,-15.7545,-15.741,-15.7276,-15.7006,-15.6464,-15.6133,-15.5861,-15.5117,-15.4331,-15.3448,-15.2374,-15.2442,-15.2106,-15.1757,-15.2397,-15.3095,-15.3153,-15.3153,-15.3153,-15.3153,-15.3153,-15.2746,-15.1223,-14.7626,-14.5305,-14.3777,-14.0307,-13.6134,-13.5269,-13.3334,-13.2058,-13.0617,-12.9159,-12.7532,-12.7121,-12.7121,-12.7121,-12.7121,-12.7121,-12.7121,-12.7121,-12.7121,-12.7121,-12.7121,-12.7121,-12.7121,-12.6813,-12.6813,-12.6813,-12.6967,-12.7121,-12.7121,-12.7121,-12.7121,-12.6967,-12.6504,-12.6195,-12.5574,-12.4794,-12.3697,-12.2909,-17.994,-18.0875,-17.7567,-17.6332,-17.6455,-17.41,-17.3085,-17.1589,-17.0748,-17.0109,-16.9615,-16.8443,-16.8011,-16.7742,-16.7876,-16.7742,-16.7742,-16.7742,-16.7742,-16.7742,-16.7742,-16.7943,-16.7943,-16.7876,-16.7876,-16.8011,-16.7809,-16.7876,-16.8279,-16.9217,-16.962,-16.9725,-17.0057,-17.0248,-17.0233,-17.0584,-17.0948,-17.1366,-17.2221,-17.277,-17.2353,-17.0951,-16.8646,-16.6038,-16.2643,-16.072,-15.8818,-15.7947,-15.7545,-15.7545,-15.7545,-15.7545,-15.7545,-15.7545,-15.7216,-15.6617,-15.6362,-15.6091,-15.5469,-15.5214,-15.5117,-15.4076,-15.3038,-15.2178,-15.1452,-15.1488,-15.1466,-15.1059,-15.2397,-15.3037,-15.3153,-15.3153,-15.3153,-15.3013,-15.2814,-15.3013,-15.1953,-14.8141,-14.4767,-14.4455,-13.9537,-13.5395,-13.3187,-13.176,-13.0819,-12.9627,-12.8503,-12.7375,-12.7172,-12.7121,-12.7121,-12.7121,-12.7121,-12.7121,-12.7121,-12.7121,-12.7121,-12.7121,-12.7121,-12.6967,-12.6659,-12.6504,-12.6504,-12.6659,-12.6967,-12.7121,-12.7121,-12.6967,-12.6813,-12.6504,-12.604,-12.5263,-12.4382,-12.3145,-12.1966,-17.8166,-17.9488,-17.8783,-17.8405,-17.8193,-17.6198,-17.5077,-17.4252,-17.2279,-17.1229,-17.0893,-16.9687,-16.9016,-16.8949,-16.8145,-16.7809,-16.7742,-16.7742,-16.7742,-16.7742,-16.7742,-16.8212,-16.8614,-16.8078,-16.8212,-16.8882,-16.9016,-16.9016,-16.9284,-17.0558,-17.0963,-17.083,-17.1318,-17.1531,-17.1349,-17.1928,-17.2287,-17.2353,-17.2747,-17.2308,-17.1128,-16.975,-16.7236,-16.3584,-16.2136,-16.0331,-15.808,-15.7545,-15.7545,-15.7545,-15.7545,-15.747,-15.6946,-15.635,-15.547,-15.4795,-15.4795,-15.4033,-15.3077,-15.3156,-15.2882,-15.169,-15.0948,-15.0111,-14.9683,-15.0535,-15.0826,-15.0535,-15.2106,-15.292,-15.3153,-15.3153,-15.3153,-15.2674,-14.971,-14.7562,-14.7415,-14.3445,-14.0787,-13.9253,-13.613,-13.2246,-13.1225,-13.0968,-12.9939,-12.8705,-12.7985,-12.768,-12.7223,-12.7172,-12.7121,-12.7121,-12.7121,-12.7121,-12.7121,-12.7121,-12.7121,-12.7121,-12.7121,-12.6813,-12.6504,-12.6245,-12.635,-12.6813,-12.6967,-12.7121,-12.7121,-12.7121,-12.6813,-12.6504,-12.5885,-12.5112,-12.3841,-12.2666,-12.1345,-17.6306,-17.7695,-17.8616,-17.8863,-17.852,-17.7604,-17.6883,-17.6215,-17.3705,-17.2771,-17.2301,-17.0759,-16.9821,-16.9754,-16.8413,-16.7742,-16.7742,-16.7742,-16.7742,-16.7742,-16.7742,-16.8413,-16.8882,-16.8279,-16.848,-16.9687,-16.9754,-16.999,-17.0427,-17.1733,-17.22,-17.1656,-17.2536,-17.274,-17.2274,-17.2048,-17.2132,-17.2197,-17.1576,-16.9979,-16.8361,-16.7591,-16.531,-16.1688,-16.0849,-15.9477,-15.7947,-15.7545,-15.7545,-15.7545,-15.7171,-15.6469,-15.5886,-15.4547,-15.3492,-15.2818,-15.2682,-15.1941,-15.0735,-15.1067,-15.0852,-14.943,-14.9139,-14.85,-14.7685,-14.9547,-15.007,-15.0128,-15.1641,-15.3153,-15.3153,-15.3153,-15.2533,-15.1627,-14.8349,-14.514,-14.3625,-13.9775,-13.7084,-13.6514,-13.3294,-13.1267,-13.0485,-13.0485,-13.0022,-12.9208,-12.8646,-12.8392,-12.7426,-12.7121,-12.7121,-12.7121,-12.7121,-12.7121,-12.7172,-12.7172,-12.7121,-12.7121,-12.6967,-12.6813,-12.6504,-12.609,-12.635,-12.6813,-12.6813,-12.7121,-12.7121,-12.7121,-12.6813,-12.6659,-12.5784,-12.4707,-12.3387,-12.2023,-12.0755,-17.4744,-17.5928,-17.5629,-17.5287,-17.535,-17.5983,-17.5723,-17.4816,-17.4179,-17.4111,-17.3508,-17.1162,-16.9955,-16.962,-16.8413,-16.7742,-16.7742,-16.7742,-16.7742,-16.7742,-16.7809,-16.7876,-16.8145,-16.8078,-16.8815,-16.9955,-17.0223,-17.0528,-17.133,-17.2799,-17.3188,-17.2564,-17.3123,-17.3768,-17.2813,-17.0708,-16.9521,-16.9175,-16.7354,-16.6279,-16.5675,-16.3584,-16.1816,-16.1304,-15.9345,-15.7947,-15.7679,-15.7545,-15.7545,-15.7425,-15.5873,-15.4875,-15.4251,-15.29,-15.1387,-15.0713,-15.0713,-15.0131,-14.9529,-14.9451,-14.9314,-14.8965,-14.8092,-14.7569,-14.7569,-14.8558,-14.9314,-14.9314,-15.1466,-15.3037,-15.3037,-15.3095,-15.1569,-14.922,-14.6898,-14.5179,-14.3378,-13.9368,-13.6935,-13.5998,-13.3292,-13.0475,-13.0729,-13.0678,-13.0119,-12.9306,-12.89,-12.829,-12.7477,-12.7121,-12.7121,-12.7121,-12.7172,-12.7274,-12.763,-12.7528,-12.7121,-12.7121,-12.7121,-12.6967,-12.6813,-12.6195,-12.6245,-12.635,-12.6504,-12.6967,-12.7121,-12.7121,-12.6967,-12.6507,-12.5637,-12.4301,-12.3083,-12.1515,-12.0207,-16.9389,-16.9765,-17.0511,-17.1139,-17.1933,-17.3237,-17.4447,-17.5519,-17.4782,-17.438,-17.3776,-17.1229,-16.9955,-16.962,-16.8413,-16.7809,-16.7742,-16.7742,-16.7742,-16.7742,-16.7742,-16.7742,-16.7876,-16.8614,-16.9888,-17.1229,-17.2234,-17.267,-17.283,-17.4164,-17.4378,-17.3215,-17.2135,-17.1334,-17.0838,-16.8297,-16.6879,-16.6759,-16.5918,-16.4575,-16.3084,-16.2009,-16.0849,-15.9214,-15.8214,-15.7679,-15.7545,-15.7545,-15.7245,-15.6334,-15.5203,-15.3686,-15.2051,-15.053,-14.9423,-14.875,-14.8557,-14.813,-14.7296,-14.7802,-14.7918,-14.7045,-14.6522,-14.6289,-14.6522,-14.7511,-14.8151,-14.8558,-15.0477,-15.1931,-15.2106,-15.2571,-15.0314,-14.4885,-14.2845,-14.0143,-13.7885,-13.5832,-13.4989,-13.4675,-13.3512,-13.2769,-13.2355,-13.205,-13.1084,-13.0017,-12.9255,-12.8442,-12.7477,-12.7121,-12.763,-12.7934,-12.763,-12.763,-12.7985,-12.763,-12.7172,-12.7121,-12.7121,-12.6967,-12.6813,-12.635,-12.609,-12.635,-12.6659,-12.7121,-12.7121,-12.7121,-12.6918,-12.6254,-12.5539,-12.4015,-12.2093,-12.078,-11.9525,-16.5495,-16.5449,-16.6931,-16.7928,-16.8712,-17.0156,-17.2167,-17.4179,-17.3441,-17.3307,-17.3173,-17.1027,-16.9955,-16.962,-16.8413,-16.7742,-16.7742,-16.7742,-16.7742,-16.7742,-16.7742,-16.7742,-16.7943,-16.8748,-16.9821,-17.096,-17.2771,-17.3505,-17.3388,-17.3852,-17.366,-17.2177,-16.985,-16.8466,-16.7945,-16.5554,-16.4205,-16.4081,-16.346,-16.2263,-16.0591,-16.0331,-15.9416,-15.7813,-15.7545,-15.7545,-15.7545,-15.7186,-15.6454,-15.5351,-15.4414,-15.2648,-15.0202,-14.8376,-14.7466,-14.7064,-14.6929,-14.6464,-14.5824,-14.6406,-14.6522,-14.5824,-14.5591,-14.5533,-14.5649,-14.6813,-14.7569,-14.7802,-14.9372,-15.0652,-15.063,-15.0771,-14.8202,-14.3168,-13.9848,-13.7595,-13.5788,-13.4133,-13.3422,-13.3564,-13.3666,-13.3666,-13.3412,-13.2761,-13.1643,-13.0526,-12.9459,-12.8442,-12.7528,-12.7426,-12.7985,-12.8188,-12.8138,-12.7934,-12.7731,-12.7325,-12.7121,-12.7121,-12.7121,-12.7121,-12.6813,-12.6504,-12.6504,-12.6659,-12.6813,-12.7121,-12.7121,-12.6969,-12.6612,-12.6051,-12.5138,-12.3468,-12.1405,-11.9749,-11.8447,-16.3882,-16.3773,-16.5137,-16.5668,-16.5961,-16.7273,-16.8614,-17.0156,-17.0089,-17.0893,-17.1698,-17.0491,-16.9687,-16.9553,-16.8346,-16.7742,-16.7742,-16.7742,-16.7742,-16.7742,-16.7742,-16.7742,-16.7742,-16.7943,-16.8145,-16.8547,-17.096,-17.2299,-17.2089,-17.1108,-17.0223,-16.9046,-16.6688,-16.5365,-16.5432,-16.3021,-16.156,-16.1175,-15.9548,-15.8214,-15.7679,-15.7947,-15.7813,-15.7679,-15.7545,-15.7545,-15.7485,-15.6408,-15.5424,-15.434,-15.3196,-15.1346,-14.8719,-14.694,-14.5783,-14.5708,-14.5649,-14.5591,-14.5533,-14.5649,-14.5766,-14.5533,-14.5533,-14.5533,-14.5708,-14.6638,-14.7336,-14.7453,-14.8558,-14.9372,-14.8961,-14.6711,-14.434,-14.4198,-14.0232,-13.7642,-13.6149,-13.3958,-13.2558,-13.3371,-13.3463,-13.3615,-13.3574,-13.2812,-13.1745,-13.0576,-12.9509,-12.8442,-12.768,-12.7884,-12.8087,-12.7884,-12.7884,-12.7985,-12.7528,-12.7121,-12.7121,-12.7121,-12.7121,-12.7121,-12.6813,-12.6504,-12.635,-12.6813,-12.6917,-12.6714,-12.6663,-12.6156,-12.5851,-12.4987,-12.4431,-12.3016,-12.1206,-11.9356,-11.7861,-16.164,-16.066,-16.0951,-16.2268,-16.3988,-16.4591,-16.6133,-16.8346,-16.8413,-16.8748,-16.9016,-16.8681,-16.848,-16.8346,-16.8011,-16.7742,-16.7742,-16.7742,-16.7742,-16.7742,-16.7742,-16.7742,-16.7742,-16.7742,-16.8279,-16.9284,-17.029,-16.9885,-16.8488,-16.6232,-16.5284,-16.5181,-16.2708,-16.1965,-16.2266,-16.0201,-15.895,-15.8818,-15.808,-15.7545,-15.7545,-15.7545,-15.7545,-15.7545,-15.7545,-15.7245,-15.6348,-15.5989,-15.4647,-15.2258,-15.1078,-14.9649,-14.7355,-14.6165,-14.5533,-14.5533,-14.5533,-14.5533,-14.5533,-14.5533,-14.5533,-14.5533,-14.5533,-14.5533,-14.5591,-14.594,-14.6173,-14.6464,-14.7336,-14.8151,-14.6908,-14.265,-13.8531,-13.6902,-13.4331,-13.2464,-13.241,-13.1565,-13.1294,-13.1643,-13.2304,-13.271,-13.2659,-13.2405,-13.1643,-13.0576,-12.9509,-12.8798,-12.8239,-12.8087,-12.7833,-12.9001,-12.8442,-12.7985,-12.7934,-12.7375,-12.7121,-12.7121,-12.7121,-12.7121,-12.6967,-12.6504,-12.635,-12.6762,-12.6764,-12.6357,-12.5799,-12.5343,-12.4482,-12.3623,-12.3068,-12.2463,-12.0606,-11.8859,-11.7764,-15.9399,-15.7485,-15.7954,-15.9563,-16.1708,-16.1776,-16.3116,-16.5329,-16.5396,-16.5999,-16.6871,-16.7005,-16.7273,-16.7742,-16.7742,-16.7742,-16.7742,-16.7742,-16.7742,-16.7742,-16.7742,-16.7742,-16.7742,-16.7742,-16.8181,-16.8622,-16.7926,-16.6408,-16.4409,-16.2074,-16.1058,-16.0966,-15.9161,-15.8618,-15.9081,-15.8239,-15.7545,-15.7545,-15.7545,-15.7545,-15.7545,-15.7545,-15.7545,-15.7545,-15.7545,-15.7006,-15.575,-15.4946,-15.3296,-15.0438,-14.9117,-14.7869,-14.6446,-14.5857,-14.5533,-14.5533,-14.5533,-14.5533,-14.5533,-14.5533,-14.5533,-14.5533,-14.5533,-14.5533,-14.5533,-14.5533,-14.5533,-14.5708,-14.6406,-14.5345,-14.3278,-13.9251,-13.5304,-13.3106,-13.116,-13.0299,-12.9979,-12.9865,-13.0017,-13.0526,-13.144,-13.2355,-13.2659,-13.2405,-13.1897,-13.1084,-12.9763,-12.9001,-12.8696,-12.829,-12.8036,-12.8747,-12.8392,-12.7884,-12.8392,-12.7477,-12.7071,-12.7071,-12.702,-12.6969,-12.7071,-12.6608,-12.5948,-12.6308,-12.6206,-12.5698,-12.4937,-12.4327,-12.377,-12.2963,-12.2508,-12.1554,-11.9557,-11.8561,-11.7717,-15.715,-15.5004,-15.6144,-15.7686,-15.9027,-15.9094,-15.9965,-16.1373,-16.1373,-16.2915,-16.5329,-16.5664,-16.6536,-16.8145,-16.8078,-16.7876,-16.7876,-16.7809,-16.7742,-16.7742,-16.7742,-16.7742,-16.7742,-16.7742,-16.7352,-16.6527,-16.4772,-16.2417,-15.9941,-15.8601,-15.7819,-15.7381,-15.6181,-15.5643,-15.6062,-15.702,-15.7485,-15.7545,-15.7545,-15.7545,-15.7545,-15.7485,-15.7365,-15.7186,-15.7305,-15.6647,-15.5318,-15.3535,-15.1493,-14.953,-14.7752,-14.6388,-14.5666,-14.5533,-14.5533,-14.5533,-14.5533,-14.5533,-14.5533,-14.5533,-14.5533,-14.5533,-14.5533,-14.5533,-14.5533,-14.5533,-14.54,-14.5266,-14.5382,-14.2914,-13.7729,-13.6332,-13.5087,-13.2015,-13.1269,-13.0488,-12.8957,-12.8747,-12.9255,-13.0017,-13.0983,-13.1948,-13.3218,-13.2761,-13.2355,-13.1694,-13.0272,-12.9001,-12.9001,-12.8747,-12.8239,-12.7884,-12.8036,-12.829,-12.7223,-12.641,-12.6563,-12.6512,-12.6207,-12.6664,-12.6867,-12.6817,-12.6207,-12.575,-12.5343,-12.4836,-12.4124,-12.3463,-12.3057,-12.2299,-12.1939,-12.0993,-11.9205,-11.836,-11.7617,-15.5272,-15.487,-15.6077,-15.7619,-15.896,-15.896,-15.9228,-15.9697,-16.0703,-16.2178,-16.3988,-16.5128,-16.7541,-17.0491,-16.9821,-16.9351,-16.915,-16.8212,-16.7742,-16.7742,-16.7742,-16.7614,-16.7253,-16.7155,-16.6027,-16.3953,-16.2944,-16.024,-15.5922,-15.3388,-15.2421,-15.3071,-15.2968,-15.3775,-15.557,-15.5989,-15.6647,-15.7485,-15.7545,-15.7545,-15.7425,-15.6707,-15.575,-15.4912,-15.4336,-15.3415,-15.2033,-15.1018,-14.953,-14.7502,-14.696,-14.6197,-14.5666,-14.5533,-14.5533,-14.5533,-14.5533,-14.5533,-14.5533,-14.5533,-14.5533,-14.5533,-14.5533,-14.5533,-14.5533,-14.5533,-14.4539,-14.28,-14.427,-14.1979,-13.4942,-13.4979,-13.3814,-12.9108,-12.8399,-12.8196,-12.7682,-12.7579,-12.7731,-12.8036,-12.9255,-13.017,-13.1237,-13.2456,-13.2812,-13.205,-13.083,-12.9967,-12.9865,-12.8544,-12.7782,-12.829,-12.7782,-12.6867,-12.5089,-12.4835,-12.4683,-12.4683,-12.4835,-12.4886,-12.4683,-12.4733,-12.4378,-12.4479,-12.4327,-12.3819,-12.2854,-12.2549,-12.2193,-12.1329,-12.0923,-12.0478,-11.9146,-11.8949,-11.8161,-15.5675,-15.4736,-15.6814,-15.8155,-15.8893,-15.896,-15.9295,-15.9965,-16.0837,-16.2647,-16.4994,-16.5271,-16.7352,-17.0562,-16.966,-16.9594,-17.0061,-16.926,-16.8525,-16.7991,-16.7991,-16.6993,-16.5386,-16.5578,-16.3994,-16.0835,-16.0132,-15.7795,-15.3995,-15.1104,-15.0125,-15.0843,-15.1441,-15.2459,-15.3955,-15.4613,-15.557,-15.6767,-15.6827,-15.6527,-15.5989,-15.5271,-15.4421,-15.3381,-15.2866,-15.1816,-15.0426,-14.959,-14.8339,-14.671,-14.6329,-14.5932,-14.5533,-14.5533,-14.5533,-14.5533,-14.5533,-14.5533,-14.5533,-14.5533,-14.5533,-14.5533,-14.5533,-14.5533,-14.5533,-14.5533,-14.3981,-14.108,-14.2242,-14.0485,-13.3388,-13.3334,-13.2544,-12.8246,-12.7121,-12.7121,-12.7121,-12.7121,-12.7121,-12.7172,-12.8138,-12.9154,-12.9865,-13.1338,-13.1847,-13.0983,-13.0272,-12.9154,-12.8392,-12.7274,-12.6613,-12.6664,-12.6207,-12.514,-12.4225,-12.3768,-12.3819,-12.3819,-12.3768,-12.3768,-12.387,-12.3768,-12.3565,-12.3158,-12.3108,-12.2701,-12.1634,-12.1431,-12.1329,-12.0923,-12.0466,-12.032,-11.9537,-11.8891,-11.7899,-15.6948,-15.5205,-15.7485,-15.8893,-15.9027,-15.9362,-16.0234,-16.1306,-16.1373,-16.3854,-16.7444,-16.6019,-16.6527,-16.8285,-16.8418,-16.9016,-17.0145,-17.0108,-16.9179,-16.7714,-16.8117,-16.6023,-16.2436,-16.3866,-16.2207,-15.7963,-15.7043,-15.5659,-15.3085,-15.0902,-14.9886,-14.9826,-15.0903,-15.1561,-15.186,-15.2997,-15.4194,-15.551,-15.5391,-15.4732,-15.3405,-15.3536,-15.3214,-15.2186,-15.2186,-15.1256,-14.9412,-14.8617,-14.7691,-14.6578,-14.5932,-14.5533,-14.5533,-14.5417,-14.5359,-14.53,-14.5242,-14.5184,-14.5184,-14.5184,-14.5068,-14.5184,-14.5068,-14.5068,-14.5068,-14.5126,-14.3404,-14.0195,-14.0216,-13.839,-13.2426,-13.193,-13.0691,-12.7328,-12.6817,-12.702,-12.7071,-12.7121,-12.7121,-12.7121,-12.8138,-12.8849,-12.9052,-12.9967,-13.017,-12.9611,-12.9103,-12.8138,-12.6613,-12.5699,-12.5038,-12.387,-12.3463,-12.3412,-12.3311,-12.3463,-12.3158,-12.326,-12.3412,-12.3209,-12.3108,-12.3108,-12.3158,-12.2091,-12.1888,-12.138,-12.0618,-12.0161,-12.0059,-11.9653,-11.9754,-11.9863,-11.9229,-11.8282,-11.6991,-15.5138,-15.4669,-15.6479,-15.7887,-15.9161,-16.1373,-16.2513,-16.2848,-16.2848,-16.504,-16.8424,-16.8392,-16.8792,-16.9813,-16.8817,-16.8485,-16.8617,-16.7688,-16.5975,-16.423,-16.6973,-16.5016,-15.9701,-16.3524,-16.2107,-15.6572,-15.6771,-15.5341,-15.2287,-15.146,-15.0595,-14.9826,-15.0005,-15.0664,-15.1681,-15.185,-15.2818,-15.4014,-15.3117,-15.2459,-15.203,-15.216,-15.1233,-14.976,-14.8991,-14.8219,-14.7326,-14.6664,-14.6091,-14.5857,-14.5666,-14.5533,-14.5533,-14.4602,-14.4079,-14.4021,-14.3148,-14.2567,-14.2567,-14.2567,-14.2567,-14.2567,-14.2567,-14.2625,-14.2625,-14.2625,-14.1155,-13.8358,-13.9962,-13.8,-13.115,-13.1006,-13.0696,-12.6458,-12.58,-12.6105,-12.6918,-12.7121,-12.7121,-12.7223,-12.8138,-12.8798,-12.9001,-12.9763,-13.0119,-12.9611,-12.8544,-12.7426,-12.6715,-12.514,-12.3412,-12.1888,-12.1177,-12.1329,-12.1228,-12.1329,-12.1329,-12.1375,-12.1279,-12.1431,-12.138,-12.1279,-12.1024,-12.0923,-12.0212,-11.9602,-11.9246,-11.8535,-11.8078,-11.8078,-11.8128,-11.7976,-11.769,-11.6957,-11.5937,-15.6613,-15.668,-15.7418,-15.8222,-15.9161,-16.1373,-16.3116,-16.4228,-16.3844,-16.5093,-16.7324,-16.7457,-16.7949,-16.8692,-16.7965,-16.7965,-16.8626,-16.7729,-16.6315,-16.4608,-16.554,-16.2911,-15.8117,-15.99,-15.8093,-15.3132,-15.4763,-15.43,-15.18,-15.2339,-15.192,-15.0664,-15.0604,-15.0664,-15.0783,-15.0783,-15.1441,-15.2758,-15.0843,-14.9886,-14.9886,-14.9033,-14.7866,-14.6514,-14.5153,-14.445,-14.4313,-14.2886,-14.2276,-14.2857,-14.2334,-14.2276,-14.2799,-14.2218,-14.2101,-14.2683,-14.2101,-14.1752,-14.1752,-14.1752,-14.1752,-14.1752,-14.1752,-14.1229,-14.0065,-14.0473,-14.0117,-13.8566,-13.9007,-13.7098,-13.1092,-13.0524,-12.9122,-12.5033,-12.4683,-12.4937,-12.5445,-12.5597,-12.58,-12.6308,-12.6918,-12.7477,-12.7985,-12.8544,-12.8747,-12.8138,-12.7223,-12.5902,-12.4835,-12.3311,-12.1787,-12.077,-12.0611,-12.0611,-12.0662,-12.0611,-12.0611,-12.0611,-12.0611,-12.0611,-12.0611,-12.0611,-12.0262,-11.9805,-11.9297,-11.8637,-11.8027,-11.7468,-11.7163,-11.7061,-11.7061,-11.6757,-11.6361,-11.619,-11.5235,-15.896,-15.896,-15.896,-15.9161,-15.9429,-16.0636,-16.262,-16.5003,-16.4196,-16.4201,-16.5086,-16.5086,-16.5571,-16.6434,-16.6434,-16.7092,-16.8276,-16.8341,-16.7407,-16.5842,-16.4299,-16.114,-15.6605,-15.6265,-15.406,-15.0373,-15.2519,-15.3057,-15.192,-15.2878,-15.2758,-15.1561,-15.1382,-15.0843,-14.9826,-14.9706,-15.0125,-15.0783,-14.8629,-14.7492,-14.7307,-14.573,-14.4447,-14.3385,-14.1877,-14.1007,-14.088,-13.896,-13.8262,-13.9135,-13.832,-13.8262,-13.9135,-13.9018,-13.9309,-14.0007,-14.0124,-14.0182,-14.0356,-14.0589,-14.0822,-14.1112,-14.1171,-13.9751,-13.6701,-13.7512,-13.8264,-13.7751,-13.6222,-13.46,-13.1739,-12.9009,-12.6581,-12.4009,-12.3514,-12.3616,-12.387,-12.3921,-12.4276,-12.5089,-12.5191,-12.5648,-12.6664,-12.6918,-12.6563,-12.5597,-12.5597,-12.4632,-12.265,-12.1075,-12.0516,-12.0611,-12.0611,-12.0611,-12.0611,-12.0611,-12.0364,-12.0313,-12.0161,-12.0008,-11.9754,-11.9703,-11.9399,-11.8687,-11.8281,-11.7824,-11.7061,-11.6757,-11.6401,-11.635,-11.6299,-11.6147,-11.5334,-11.528,-11.4573,-15.896,-15.896,-15.896,-15.9697,-16.077,-16.1038,-16.1828,-16.305,-16.2402,0.0,0.0,-16.35,-16.4054,-16.4856,-16.4922,-16.5054,-16.5317,-16.5251,-16.4004,-16.1962,-16.4771,-16.1874,-15.436,-15.8342,-15.714,-15.157,-15.2997,-15.3057,-15.1741,-15.192,-15.1322,-15.0185,-15.0065,-14.9946,-14.9766,-14.9706,-14.8809,-14.6894,-14.6356,-14.5867,-14.5366,-14.5002,-14.378,-14.1457,-14.1095,-13.972,-13.7157,-13.7564,-13.7448,-13.675,-13.739,-13.7506,-13.6692,-13.5703,-13.4249,-13.2446,-13.2271,-13.2678,-13.3725,-13.483,-13.6343,-13.8379,-13.8495,-13.579,-12.953,-13.0633,-13.0671,-12.8407,-12.8047,-12.6997,-12.4909,-12.4233,-12.3471,-12.2489,-12.2396,-12.2752,-12.3616,-12.3768,-12.3666,-12.4022,-12.4073,-12.4479,-12.5546,-12.575,-12.5292,-12.4479,-12.4683,-12.4378,-12.1533,-12.0466,-12.0262,-12.0262,-12.0161,-12.051,-12.0415,-12.0364,-12.011,-11.9246,-11.9094,-11.8738,-11.7976,-11.762,-11.757,-11.7417,-11.6553,-11.6096,-11.574,-11.5029,-11.4369,-11.4318,-11.4318,-11.4267,-11.3976,-11.3611,-11.2474,-15.715,-15.782,-15.782,-15.8507,0.0,-16.0462,-16.0046,-15.881,-15.979,-16.0757,-16.1644,-16.1644,-16.1837,-16.2292,-16.2292,-16.2686,-16.341,-16.341,-16.3116,-16.2478,-16.1444,-15.8454,-15.4254,-15.3687,-15.1798,-14.8749,-15.0065,-15.0364,-14.9766,-15.0364,-15.0005,-14.8689,-14.8689,-14.839,-14.7732,-14.7732,-14.7074,-14.5817,-14.5159,-14.4553,-14.3872,-14.2905,-14.1505,-13.9922,-13.8375,0.0,0.0,0.0,0.0,0.0,0.0,0.0,0.0,-13.3551,0.0,-13.0235,-12.8374,-12.7269,-12.7385,-12.8255,-12.9703,-13.1438,-13.1889,-13.0282,-12.6176,-12.6906,-12.7136,-12.6079,-12.3907,-12.2658,-12.2193,-12.1399,-12.0672,-12.0357,-11.9907,-12.0262,-12.1634,-12.1075,-12.1075,-12.2498,-12.2955,-12.3362,-12.4479,-12.4581,-12.3921,-12.2447,-12.3057,-12.2498,-11.95,-11.8738,-11.8738,-11.8738,-11.8738,-11.8738,-11.8738,-11.8738,-11.8484,-11.8128,-11.7925,-11.7671,-11.7163,-11.7061,-11.6858,-11.6299,-11.5791,-11.5182,-11.4673,-11.4115,-11.3759,-11.3759,-11.3759,-11.3454,-11.2286,-11.176,-11.1063,-15.5115,-15.6096,-15.6096,-15.665,-15.7482,-15.8428,-15.7185,-15.4561,-15.6825,-15.8282,-15.9004,-15.953,-15.9924,-16.0187,-16.0187,-16.0648,-16.1437,-16.124,-16.1364,-16.1637,-15.6596,-15.381,-15.2614,-14.8019,-14.5472,-14.5099,-14.6116,-14.6655,-14.6655,-14.7971,-14.8031,-14.7074,-14.7253,-14.6834,-14.5817,0.0,0.0,0.0,-14.3839,-14.2933,-14.2317,-14.0567,-13.9299,-13.8325,-13.5543,0.0,-13.5121,-13.2271,-13.1573,-13.3551,-13.2736,0.0,0.0,0.0,0.0,0.0,0.0,0.0,0.0,0.0,0.0,0.0,-12.3958,-12.3606,-12.3377,-12.3117,-12.2963,-12.2663,-11.969,-11.8164,-11.958,-11.8318,-11.7722,-11.8078,-11.7316,-11.757,-11.9449,-11.8027,-11.7976,-12.1075,-12.1075,-12.1482,-12.3057,-12.326,-12.2396,-12.0618,-12.1126,-12.0313,-11.696,-11.6858,-11.7011,-11.6807,-11.7112,-11.7163,-11.7366,-11.7316,-11.7265,-11.7011,-11.696,-11.6655,-11.6401,-11.635,-11.5994,-11.5283,-11.508,-11.4775,-11.3962,-11.3556,-11.3352,-11.3403,-11.32,-11.259,-11.0812,-11.0456,-10.9953,-15.4332,-15.4103,-15.4103,-15.4237,-15.4346,-15.3715,-15.2897,-15.2159,-15.3708,-15.4466,-15.4729,-15.7228,-15.9004,-16.0187,-16.0187,-15.9596,-15.8478,-15.7294,-15.5153,-15.2365,-15.1453,-14.9012,-14.5218,-14.5465,-14.4499,-14.2468,-14.2526,-14.2646,-14.2646,-14.3962,-14.4501,-14.4381,-14.5518,-14.5937,-14.5697,-14.3483,-14.2406,-14.2347,-14.1681,-14.101,-14.0331,-13.9475,-13.8083,-13.6534,-13.4889,-13.3667,-13.2678,-13.2155,-13.2038,-13.2329,-13.2334,-13.1748,-13.0875,-12.628,-12.198,0.0,-11.5287,0.0,0.0,0.0,0.0,0.0,0.0,0.0,0.0,-11.6417,-11.3419,-11.0453,-11.0063,-11.1022,-11.3168,-11.3118,-11.3846,-11.5588,-11.569,-11.6096,-11.7265,-11.635,-11.6553,-11.8941,-11.7468,-11.7874,-12.1482,-12.1482,-12.0466,-11.9195,-11.9703,-11.8687,-11.5283,-11.574,-11.6553,-11.569,-11.6401,-11.7214,-11.7976,-11.757,-11.6909,-11.6858,-11.6198,-11.5283,-11.4419,-11.4216,-11.4115,-11.3962,-11.3861,-11.381,-11.381,-11.2895,-11.2472,-11.2235,-11.1422,-11.066,-11.0253,-11.0101,-10.9566,-15.2413,-15.2971,-15.2634,-15.1273,-14.9334,-14.9397,-14.9514,-14.9778,-15.1668,-15.2559,-15.2625,-15.3875,-15.4795,-15.5453,-15.5387,-15.4862,-15.3863,-15.3176,-15.1838,-14.9757,-14.7609,-14.5663,-14.3604,-14.1995,-14.0293,-13.8517,-13.8517,-13.8517,-13.8577,-13.9116,-14.0193,-14.1629,-14.2227,-14.1389,-13.9235,-13.8039,-13.804,-13.9177,-13.9471,-13.9576,-13.9357,-13.8984,-13.8192,-13.7041,-13.5819,-13.4889,-13.4307,-13.2911,-13.2504,-13.3144,-13.2504,-13.1104,-12.8714,-12.4541,-11.9568,0.0,0.0,0.0,0.0,0.0,0.0,0.0,0.0,0.0,0.0,0.0,-10.916,-10.6469,-10.6571,-10.7256,-10.8272,-10.944,-11.0304,-11.0761,-11.0812,-11.1473,-11.32,-11.2946,-11.3505,-11.574,-11.5639,-11.5944,-11.7265,-11.757,-11.7214,-11.6147,-11.5893,-11.4826,-11.2641,-11.381,-11.508,-11.4623,-11.5436,-11.635,-11.6807,-11.5944,-11.5232,-11.5182,-11.4775,-11.4115,-11.3048,-11.2794,-11.259,-11.2031,-11.1879,-11.1879,-11.1879,-11.1473,-11.1168,-11.0863,-10.9288,-10.7814,-10.7611,-10.7154,-10.6258,-15.0429,-15.1188,-14.9364,-14.7167,-14.4863,-14.5377,-14.6233,-14.7365,-14.9262,-14.9995,-14.9966,-15.0389,-15.0097,-14.9186,-14.8275,-14.7615,-14.7066,-14.6966,-14.634,-14.5316,-14.2833,-14.136,-14.0797,-13.8131,-13.6363,-13.5406,-13.5406,-13.5226,-13.4987,-13.5226,-13.6124,-13.75,-13.756,-13.5884,-13.2653,-13.3132,-13.4398,-13.5963,-13.7568,-13.827,-13.7922,-13.7798,-13.7424,-13.6924,-13.5761,-13.5238,-13.5528,-13.3085,-13.2271,-13.3551,-13.1515,-12.9068,-12.6218,-12.1653,0.0,0.0,0.0,0.0,0.0,0.0,0.0,0.0,0.0,-10.0496,-10.1063,0.0,-10.4489,0.0,-10.3604,-10.4105,-10.4918,-10.5985,0.0,0.0,-10.5426,-10.5985,-10.817,-10.8424,-10.9389,-11.1879,-11.2641,-11.3048,-11.3302,-11.3861,-11.3708,-11.2387,-11.1879,-11.1269,-11.0253,-11.193,-11.3251,-11.3048,-11.3607,-11.4216,-11.4165,-11.3708,-11.3302,-11.2997,-11.2692,-11.2184,-11.1066,-11.1201,-11.1015,-11.0202,-11.0202,-11.0406,-11.0507,-11.0152,-10.9847,-10.8831,-10.6849,-10.4969,-10.4969,-10.441,-10.3423,-14.8963,-14.7887,-14.2593,-14.1005,-14.1757,-14.1361,-14.2761,-14.5195,-14.5458,-14.5313,-14.5167,-14.6785,-14.5522,-14.2138,-13.8668,0.0,-13.7365,-13.6945,-13.5922,-13.4648,-13.5391,-13.481,-13.3052,-13.3844,-13.4149,-13.4089,-13.403,-13.3491,-13.2474,-13.3491,-13.3012,-13.0918,-13.0858,-13.0081,-12.8764,-13.0978,-13.2493,-13.3289,-13.5785,-13.6554,-13.5465,-13.4733,-13.4423,-13.4423,-13.3144,-13.3027,-13.4132,-13.1748,-13.0933,-13.2159,-12.7618,-12.4191,-12.2229,0.0,0.0,0.0,0.0,0.0,0.0,0.0,0.0,0.0,0.0,0.0,0.0,0.0,0.0,-9.8788,-9.9065,0.0,-10.3597,-10.2124,0.0,0.0,0.0,-10.0244,-10.248,-10.2734,-10.3953,-10.7256,0.0,0.0,-11.1811,-11.1371,-11.005,-10.7916,-10.9339,-11.0152,-10.8983,-11.066,-11.1828,-11.0812,-11.0812,-11.0863,-11.1066,-11.1574,-11.1676,-11.0812,-10.9796,-10.8881,-10.7916,-10.8322,-10.8932,-10.8729,-10.9694,-11.0304,-11.0406,-10.9288,-10.7865,-10.502,-10.4156,-10.3851,-10.3801,-10.3597,-10.3093,-14.2756,-13.8499,-13.6272,-13.5065,-13.4532,-13.5153,-13.7106,-13.9934,-14.0789,-14.0916,-14.0557,-14.0343,-13.8284,-13.4527,-13.205,0.0,0.0,0.0,-12.9265,-12.9028,-13.0359,-13.0902,-13.0858,-13.1397,-13.1576,-13.1576,-13.1576,-13.1756,-13.2055,-13.2534,-12.8644,-12.0746,0.0,-11.9849,-12.0986,-12.3911,-12.6633,-12.8981,-13.2713,-13.424,-13.3396,-13.3789,-13.3725,-13.2969,-13.2387,-13.2038,-13.1748,-13.0003,-12.8431,-12.7033,-12.3614,-11.9052,0.0,0.0,0.0,0.0,0.0,0.0,0.0,0.0,0.0,0.0,0.0,-9.1943,-9.1464,0.0,0.0,0.0,-9.2375,-9.3367,-9.6383,-9.7653,0.0,0.0,0.0,0.0,0.0,0.0,0.0,-10.187,-10.4004,-10.5833,-10.69,-10.6087,-10.5325,-10.5122,-10.5884,-10.629,-10.5782,0.0,-10.8932,-10.8526,-10.8983,-10.9389,-10.9339,-10.9237,-10.8932,-10.8475,-10.8526,-10.8068,-10.6443,-10.7001,-10.7205,-10.6189,-10.6087,-10.6443,-10.6443,-10.6087,-10.5223,-10.4055,-10.2683,-10.1717,-10.1667,-10.06,-9.9443,-13.4763,0.0,0.0,0.0,0.0,-12.9084,-13.1188,-13.395,-13.4438,-13.4444,-13.4034,-13.2902,0.0,0.0,0.0,0.0,0.0,0.0,-12.3871,-12.4516,-12.7388,-12.8944,-12.9482,-12.9542,-12.9303,-12.8944,-12.8525,-12.8465,-12.8585,-12.7867,-12.2422,-11.2728,0.0,0.0,0.0,0.0,-12.187,-12.4415,-12.9424,-13.1708,-13.105,-13.198,-13.2155,-13.1573,-13.1573,-13.0991,-12.9712,-12.7617,-12.5179,-12.2578,-11.8306,0.0,0.0,0.0,0.0,0.0,0.0,0.0,0.0,0.0,0.0,0.0,0.0,0.0,0.0,0.0,0.0,0.0,0.0,0.0,-9.0794,-9.3233,-9.3944,0.0,0.0,0.0,0.0,0.0,0.0,0.0,0.0,0.0,-10.1514,-10.1209,-10.1514,0.0,0.0,-10.3293,-10.3293,-10.4918,-10.6189,-10.6189,-10.6798,0.0,-10.6849,-10.6138,-10.568,-10.568,-10.5985,-10.563,-10.3801,-10.4156,-10.4207,-10.2632,-10.2886,-10.2734,-10.1362,-10.0905,-10.0854,-10.0803,-9.9584,-9.8466,-9.8313,-9.7196,-9.5961,0.0,0.0,0.0,0.0,-12.356,0.0,0.0,0.0,-12.6184,-12.5257,0.0,-12.4394,0.0,0.0,0.0,0.0,-11.3164,-11.7051,0.0,0.0,-12.667,-12.9303,-12.8106,-12.7926,-12.7448,-12.6191,-12.4815,-12.29,-12.0387,-11.7874,0.0,0.0,0.0,0.0,0.0,0.0,-11.941,-12.0042,-12.6204,-12.9076,-12.849,-12.8548,-12.913,-13.0235,-13.0293,-12.9654,-12.8258,-12.4021,-12.1248,-11.9861,-11.1134,0.0,0.0,0.0,0.0,0.0,0.0,0.0,0.0,0.0,0.0,0.0,0.0,0.0,0.0,0.0,0.0,0.0,0.0,0.0,0.0,-8.8914,0.0,0.0,0.0,0.0,0.0,0.0,0.0,0.0,0.0,-9.6891,-9.5824,-9.75,-9.9228,-10.0244,0.0,0.0,0.0,0.0,-10.3902,-10.3902,-10.3953,-10.3597,-10.248,-10.2276,-10.2226,-10.2175,0.0,0.0,-9.9126,-9.8974,-9.9025,-9.8923,-10.0498,-10.0396,-9.5062,-9.4198,-9.4198,-9.4147,-9.4096,-9.3893,-9.3893,-9.3627,-9.3361,0.0,0.0,0.0,0.0,0.0,0.0,0.0,0.0,0.0,-11.9181,-11.8521,-11.7054,0.0,0.0,0.0,0.0,0.0,0.0,0.0,0.0,-11.572,-11.7874,-11.9071,-11.8173,-11.8473,-11.955,-11.8293,-11.4105,0.0,0.0,0.0,0.0,0.0,0.0,0.0,0.0,-11.7221,-11.9759,-12.6332,-12.9774,-12.9537,-12.9537,-12.977,-13.0177,-12.9421,-12.6687,-12.176,-11.7001,-11.2514,0.0,0.0,0.0,0.0,0.0,0.0,0.0,0.0,0.0,0.0,0.0,0.0,0.0,0.0,0.0,0.0,0.0,0.0,0.0,0.0,0.0,0.0,0.0,-8.678,0.0,0.0,0.0,0.0,0.0,0.0,0.0,0.0,0.0,-9.1251,-9.3588,-9.6078,-9.7907,-9.9126,-10.0021,-10.0191,0.0,0.0,0.0,0.0,0.0,0.0,0.0,-9.8242,-9.7312,-9.6757,-9.6521,-9.6637,-9.6586,-9.6332,-9.557,0.0,0.0,-9.0707,-9.0555,-9.0949,-9.0615,-8.99,-8.9397,-8.9448,-8.8845,-8.8183,0.0,0.0,0.0,0.0,0.0,0.0,0.0,0.0,0.0,-11.2297,-11.1727,0.0,0.0,0.0,0.0,0.0,0.0,0.0,0.0,0.0,0.0,0.0,-11.0874,-11.0096,0.0,0.0,0.0,0.0,0.0,0.0,0.0,0.0,0.0,0.0,0.0,0.0,-11.494,-11.815,-12.5287,-12.913,-12.9595,-12.9595,-12.9595,-12.9595,-12.8374,-12.4829,-11.8763,0.0,0.0,0.0,0.0,0.0,0.0,0.0,0.0,0.0,0.0,0.0,0.0,0.0,0.0,0.0,0.0,0.0,0.0,0.0,0.0,0.0,0.0,0.0,0.0,0.0,-8.4138,0.0,0.0,0.0,0.0,0.0,0.0,0.0,0.0,0.0,0.0,0.0,-9.2375,-9.478,-9.6471,-9.7849,-9.8665,-9.8572,-9.8328,0.0,0.0,0.0,0.0,0.0,0.0,0.0,0.0,0.0,0.0,0.0,0.0,0.0,0.0,-8.7919,-8.5327,-8.5528,-8.5924,-8.5555,0.0,0.0,0.0,0.0,0.0,0.0,0.0,0.0,0.0,0.0,0.0,0.0,0.0,0.0,0.0,-10.4304,0.0,0.0,-9.8362,0.0,0.0,0.0,0.0,0.0,0.0,0.0,0.0,0.0,0.0,0.0,0.0,0.0,0.0,0.0,0.0,0.0,0.0,0.0,0.0,0.0,0.0,-11.2832,-11.4937,-12.2615,-12.7036,-12.8258,-12.8258,-12.8258,-12.8258,-12.6862,-12.4249,-11.9799,0.0,0.0,0.0,0.0,0.0,0.0,0.0,0.0,0.0,0.0,0.0,0.0,0.0,0.0,0.0,0.0,0.0,0.0,0.0,0.0,0.0,0.0,0.0,0.0,0.0,0.0,-8.0531,-8.2258,-8.3477,0.0,0.0,0.0,0.0,0.0,0.0,0.0,0.0,0.0,-9.0766,-9.3421,-9.5636,-9.7337,-9.7126,-9.6542,-9.6592,-9.5795,-9.4749,-9.3653,-9.3503,-9.3105,0.0,0.0,0.0,0.0,0.0,0.0,0.0,0.0,0.0,0.0,0.0,0.0,0.0,0.0,0.0,0.0,0.0,0.0,0.0,0.0,0.0,0.0,0.0,0.0,0.0,0.0,0.0,0.0,0.0,0.0,0.0,0.0,0.0,0.0,0.0,0.0,0.0,0.0,0.0,0.0,0.0,0.0,0.0,0.0,0.0,0.0,0.0,0.0,0.0,0.0,0.0,0.0,0.0,0.0,-11.1854,-11.4879,-12.2499,-12.6629,-12.6978,-12.6978,-12.6978,-12.692,-12.4368,-12.067,0.0,0.0,0.0,0.0,0.0,0.0,0.0,0.0,0.0,0.0,0.0,0.0,0.0,0.0,0.0,0.0,0.0,0.0,0.0,0.0,0.0,0.0,0.0,0.0,0.0,0.0,0.0,0.0,-8.0175,-8.0378,-8.1191,0.0,0.0,0.0,0.0,0.0,0.0,0.0,0.0,0.0,0.0,-9.1461,-9.3815,-9.3281,-9.2847,-9.3041,-9.2894,-9.2353,-9.1273,-9.1715,-9.1439,-8.9287,0.0,0.0,0.0,0.0,0.0,0.0,0.0,0.0,0.0,0.0,0.0,0.0,0.0,0.0,0.0,0.0,0.0,0.0,0.0,0.0,0.0,0.0,0.0,0.0,0.0,0.0,0.0,0.0,0.0,0.0,0.0,0.0,0.0,0.0,0.0,0.0,0.0,0.0,0.0,0.0,0.0,0.0,0.0,0.0,0.0,0.0,0.0,0.0,0.0,0.0,0.0,0.0,0.0,-11.0586,-11.4181,-12.1743,-12.5873,-12.6396,-12.6396,-12.6164,-12.564,-12.1939,-11.7059,0.0,0.0,0.0,0.0,0.0,0.0,0.0,0.0,0.0,0.0,0.0,0.0,0.0,0.0,0.0,0.0,0.0,0.0,0.0,0.0,0.0,0.0,0.0,0.0,0.0,0.0,0.0,0.0,-7.6161,-7.6822,-7.8803,0.0,0.0,0.0,0.0,0.0,0.0,0.0,0.0,0.0,0.0,-8.7606,-9.0244,-9.0325,0.0,0.0,-9.005,-8.9513,-8.8879,-8.9318,-8.8897,-8.6445,-8.5525,0.0,0.0,0.0,0.0,0.0,0.0,0.0,0.0,0.0,0.0,0.0,0.0,0.0,0.0,0.0,0.0,0.0,0.0,0.0,0.0,0.0,0.0,0.0,0.0,0.0,0.0,0.0,0.0,0.0,0.0,0.0,0.0,0.0,0.0,0.0,0.0,0.0,0.0,0.0,0.0,0.0,0.0,0.0,0.0,0.0,0.0,0.0,0.0,0.0,0.0,0.0,0.0,-10.9063,-11.296,-12.0289,-12.4768,-12.6105,-12.6164,-12.5409,-12.39,-11.9238,-11.3314,0.0,0.0,0.0,0.0,0.0,0.0,0.0,0.0,0.0,0.0,0.0,0.0,0.0,0.0,0.0,0.0,0.0,0.0,0.0,0.0,0.0,0.0,0.0,0.0,0.0,0.0,0.0,0.0,0.0,0.0,0.0,0.0,0.0,0.0,0.0,0.0,0.0,0.0,0.0,0.0,0.0,-8.4265,-8.7025,-8.7706,-8.8,0.0,-8.7219,-8.6536,-8.6536,-8.6585,-8.595,-8.39,0.0,0.0,0.0,0.0,0.0,0.0,0.0,0.0,0.0,0.0,0.0,0.0,0.0,0.0,0.0,0.0,0.0,0.0,0.0,0.0,0.0,0.0,0.0,0.0,0.0,0.0,0.0,0.0,0.0,0.0,0.0,0.0,0.0,0.0,0.0,0.0,0.0,0.0,0.0,0.0,0.0,0.0,0.0,0.0,0.0,0.0,0.0,0.0,0.0,0.0,0.0,0.0,0.0,0.0,-11.1506,-11.8195,-12.2266,-12.3488,-12.3604,-12.2057,-11.8915,-11.4193,0.0,0.0,0.0,0.0,0.0,0.0,0.0,0.0,0.0,0.0,0.0,0.0,0.0,0.0,0.0,0.0,0.0,0.0,0.0,0.0,0.0,0.0,0.0,0.0,0.0,0.0,0.0,-6.5593,0.0,0.0,0.0,0.0,0.0,0.0,0.0,0.0,0.0,0.0,0.0,0.0,0.0,0.0,-8.1126,-8.4167,-8.4009,-8.3961,0.0,0.0,-8.434,-8.434,-8.5023,-8.5121,0.0,0.0,0.0,0.0,0.0,0.0,0.0,0.0,0.0,0.0,0.0,0.0,0.0,0.0,0.0,0.0,0.0,0.0,0.0,0.0,0.0,0.0,0.0,0.0,0.0,0.0,0.0,0.0,0.0,0.0,0.0,0.0,0.0,0.0,0.0,0.0,0.0,0.0,0.0,0.0,0.0,0.0,0.0,0.0,0.0,0.0,0.0,0.0,0.0,0.0,0.0,0.0,0.0,0.0,-10.4991,-10.9412,-11.517,-11.863,-11.9305,-11.9363,-11.7833,-11.4698,-10.901,-10.3661,0.0,0.0,0.0,0.0,0.0,0.0,0.0,0.0,0.0,0.0,0.0,0.0,0.0,0.0,0.0,0.0,0.0,0.0,0.0,0.0,0.0,0.0,0.0,0.0,0.0,0.0,0.0,0.0,0.0,0.0,0.0,0.0,0.0,0.0,0.0,0.0,0.0,0.0,0.0,0.0,0.0,0.0,-8.0484,-8.107,0.0,0.0,0.0,-8.2192,-8.2192,0.0,0.0,0.0,0.0,0.0,0.0,0.0,0.0,0.0,0.0,0.0,0.0,0.0,0.0,0.0,0.0,0.0,0.0,0.0,0.0,0.0,0.0,0.0,0.0,0.0,0.0,0.0,0.0,0.0,0.0,0.0,0.0,0.0,0.0,0.0,0.0,0.0,0.0,0.0,0.0,0.0,0.0,0.0,0.0,0.0,0.0,0.0,0.0,0.0,0.0,0.0,0.0,0.0,0.0,0.0,0.0,0.0,-10.7259,-11.2145,-11.4966,-11.5393,-11.5339,-11.3978,-11.1229,-10.4792,-9.9595,0.0,0.0,0.0,0.0,0.0,0.0,0.0,0.0,0.0,0.0,0.0,0.0,0.0,0.0,0.0,0.0,0.0,0.0,0.0,0.0,0.0,0.0,0.0,0.0,0.0,0.0,0.0,0.0,0.0,0.0,0.0,0.0,0.0,0.0,0.0,0.0,0.0,0.0,0.0,0.0,0.0,-7.575,-7.697,-7.8678,-7.9117,0.0,0.0,-7.9745,-7.9892,-7.9794,0.0,0.0,0.0,0.0,0.0,0.0,0.0,0.0,0.0,0.0,0.0,0.0,0.0,0.0,0.0,0.0,0.0,0.0,0.0,0.0,0.0,0.0,0.0,0.0,0.0,0.0,0.0,0.0,0.0,0.0,0.0,0.0,0.0,0.0,0.0,0.0,0.0,0.0,0.0,0.0,0.0,0.0,0.0,0.0,0.0,0.0,0.0,0.0,0.0,0.0,0.0,0.0,0.0,0.0,0.0,0.0,-10.7143,-11.1331,-11.4901,-11.7839,-11.7036,-11.4425,-11.0073,-10.6279,-10.0278,0.0,0.0,0.0,0.0,0.0,0.0,0.0,0.0,0.0,0.0,0.0,0.0,0.0,0.0,0.0,0.0,0.0,0.0,0.0,0.0,0.0,0.0,0.0,0.0,0.0,0.0,0.0,0.0,0.0,0.0,0.0,0.0,0.0,0.0,0.0,0.0,0.0,0.0,0.0,0.0,0.0,-7.3944,-7.6726,-7.6774,0.0,0.0,0.0,0.0,-7.7653,-7.7067,0.0,0.0,0.0,0.0,0.0,0.0,0.0,0.0,0.0,0.0,0.0,0.0,0.0,0.0,0.0,0.0,0.0,0.0,0.0,0.0,0.0,0.0,0.0,0.0,0.0,0.0,0.0,0.0,0.0,0.0,0.0,0.0,0.0,0.0,0.0,0.0,0.0,0.0,0.0,0.0,0.0,0.0,0.0,0.0,0.0,0.0,0.0,0.0,0.0,0.0,0.0,0.0,0.0,0.0,0.0,0.0,-10.5107,-10.8597,-11.1469,-11.404,-11.3642,-11.0791,-10.5267,-10.2051,-9.6983,0.0,0.0,0.0,0.0,0.0,0.0,0.0,0.0,0.0,0.0,0.0,0.0,0.0,0.0,0.0,0.0,0.0,0.0,0.0,0.0,0.0,0.0,0.0,0.0,0.0,0.0,0.0,0.0,0.0,0.0,0.0,0.0,0.0,0.0,0.0,0.0,0.0,0.0,0.0,0.0,-7.1162,-7.2333,-7.4529,0.0,0.0,0.0,0.0,0.0,0.0,-7.5457,-7.5115,0.0,0.0,0.0,0.0,0.0,0.0,0.0,0.0,0.0,0.0,0.0,0.0,0.0,0.0,0.0,0.0,0.0,0.0,0.0,0.0,0.0,0.0,0.0,0.0,0.0,0.0,0.0,0.0,0.0,0.0,0.0,0.0,0.0,0.0,0.0,0.0,0.0,0.0,0.0,0.0,0.0,0.0,0.0,0.0,0.0,0.0,0.0,0.0,0.0,0.0,0.0,0.0,0.0,0.0,0.0,-10.228,-10.474,-10.6811,-10.8493,-10.8411,-10.5888,-10.0528,-9.7329,-9.3283,-8.8355,0.0,0.0,0.0,0.0,0.0,0.0,0.0,0.0,0.0,0.0,0.0,0.0,0.0,0.0,0.0,0.0,0.0,0.0,0.0,0.0,0.0,0.0,0.0,0.0,0.0,0.0,0.0,0.0,0.0,0.0,0.0,0.0,0.0,0.0,0.0,0.0,0.0,0.0,0.0,-6.9356,-7.0674,0.0,0.0,0.0,0.0,0.0,0.0,0.0,0.0,-7.3748,0.0,0.0,0.0,0.0,0.0,0.0,0.0,0.0,0.0,0.0,0.0,0.0,0.0,0.0,0.0,0.0,0.0,0.0,0.0,0.0,0.0,0.0,0.0,0.0,0.0,0.0,0.0,0.0,0.0,0.0,0.0,0.0,0.0,0.0,0.0,0.0,0.0,0.0,0.0,0.0,0.0,0.0,0.0,0.0,0.0,0.0,0.0,0.0,0.0,0.0,0.0,0.0,0.0,0.0,0.0,0.0,-9.9652,-10.2249,-10.5438,-10.4134,-10.2453,-10.0657,-9.811,-9.3283,-8.6119,0.0,0.0,0.0,0.0,0.0,0.0,0.0,0.0,0.0,0.0,0.0,0.0,0.0,0.0,0.0,0.0,0.0,0.0,0.0,0.0,0.0,0.0,0.0,0.0,0.0,0.0,0.0,0.0,0.0,0.0,0.0,0.0,0.0,0.0,0.0,0.0,0.0,0.0,-6.4963,-6.672,0.0,0.0,0.0,0.0,0.0,0.0,0.0,0.0,-7.1894,0.0,0.0,0.0,0.0,0.0,0.0,0.0,0.0,0.0,0.0,0.0,0.0,0.0,0.0,0.0,0.0,0.0,0.0,0.0,0.0,0.0,0.0,0.0,0.0,0.0,0.0,0.0,0.0,0.0,0.0,0.0,0.0,0.0,0.0,0.0,0.0,0.0,0.0,0.0,0.0,0.0,0.0,0.0,0.0,0.0,0.0,0.0,0.0,0.0,0.0,0.0,0.0,0.0,0.0,0.0,0.0,0.0,0.0,-10.1982,-10.5589,-10.4105,-10.2631,-10.1326,-9.5147,-8.9371,0.0,0.0,0.0,0.0,0.0,0.0,0.0,0.0,0.0,0.0,0.0,0.0,0.0,0.0,0.0,0.0,0.0,0.0,0.0,0.0,0.0,0.0,0.0,0.0,0.0,0.0,0.0,0.0,0.0,0.0,0.0,0.0,0.0,0.0,0.0,0.0,0.0,0.0,0.0,0.0,0.0,0.0,0.0,0.0,0.0,0.0,0.0,0.0,0.0,0.0,0.0,0.0,0.0,0.0,0.0,0.0,0.0,0.0,0.0,0.0,0.0,0.0,0.0,0.0,0.0,0.0,0.0,0.0,0.0,0.0,0.0,0.0,0.0,0.0,0.0,0.0,0.0,0.0,0.0,0.0,0.0,0.0,0.0,0.0,0.0,0.0,0.0,0.0,0.0,0.0,0.0,0.0,0.0,0.0,0.0,0.0,0.0,0.0,0.0,0.0,0.0,0.0,0.0,0.0,0.0,0.0,0.0,0.0,-10.0788,-10.3926,-10.2572,-10.1319,-10.0376,-9.1178,-8.5103,0.0,0.0,0.0,0.0,0.0,0.0,0.0,0.0,0.0,0.0,0.0,0.0,0.0,0.0,0.0,0.0,0.0,0.0,0.0,0.0,0.0,0.0,0.0,0.0,0.0,0.0,0.0,0.0,0.0,0.0,0.0,0.0,0.0,0.0,0.0,0.0,0.0,0.0,0.0,0.0,0.0,0.0,0.0,0.0,0.0,0.0,0.0,0.0,-6.9983,0.0,0.0,0.0,0.0,0.0,0.0,0.0,0.0,0.0,0.0,0.0,0.0,0.0,0.0,0.0,0.0,0.0,0.0,0.0,0.0,0.0,0.0,0.0,0.0,0.0,0.0,0.0,0.0,0.0,0.0,0.0,0.0,0.0,0.0,0.0,0.0,0.0,0.0,0.0,0.0,0.0,0.0,0.0,0.0,0.0,0.0,0.0,0.0,0.0,0.0,0.0,0.0,0.0,0.0,0.0,0.0,0.0,0.0,0.0,-9.4542,-9.6071,-9.508,-9.4576,-9.4204,-8.757,-8.2461,0.0,0.0,0.0,0.0,0.0,0.0,0.0,0.0,0.0,0.0,0.0,0.0,0.0,0.0,0.0,0.0,0.0,0.0,0.0,0.0,0.0,0.0,0.0,0.0,0.0,0.0,0.0,0.0,0.0,0.0,0.0,0.0,0.0,0.0,0.0,0.0,0.0,0.0,0.0,0.0,0.0,0.0,0.0,0.0,0.0,0.0,0.0,0.0,0.0,0.0,0.0,0.0,0.0,0.0,0.0,0.0,0.0,0.0,0.0,0.0,0.0,0.0,0.0,0.0,0.0,0.0,0.0,0.0,0.0,0.0,0.0,0.0,0.0,0.0,0.0,0.0,0.0,0.0,0.0,0.0,0.0,0.0,0.0,0.0,0.0,0.0,0.0,0.0,0.0,0.0,0.0,0.0,0.0,0.0,0.0,0.0,0.0,0.0,0.0,0.0,0.0,0.0,0.0,0.0,0.0,0.0,0.0,0.0,-9.2001,-9.4518,-9.3129,-9.1332,-8.9113,-8.3597,-7.9413,0.0,0.0,0.0,0.0,0.0,0.0,0.0,0.0,0.0,0.0,0.0,0.0,0.0,0.0,0.0,0.0,0.0,0.0,0.0,0.0,0.0,0.0,0.0,0.0,0.0,0.0,0.0,0.0,0.0,0.0,0.0,0.0,0.0,0.0,0.0,0.0,0.0,0.0,0.0,0.0,0.0,0.0,0.0,0.0,0.0,0.0,0.0,0.0,0.0,0.0,0.0,0.0,0.0,0.0,0.0,0.0,0.0,0.0,0.0,0.0,0.0,0.0,0.0,0.0,0.0,0.0,0.0,0.0,0.0,0.0,0.0,0.0,0.0,0.0,0.0,0.0,0.0,0.0,0.0,0.0,0.0,0.0,0.0,0.0,0.0,0.0,0.0,0.0,0.0,0.0,0.0,0.0,0.0,0.0,0.0,0.0,0.0,0.0,0.0,0.0,0.0,0.0,0.0,0.0,0.0,0.0,0.0,0.0,0.0,-9.2377,-8.9904,-8.6947,-8.3614,-7.9745,-7.6364,0.0,0.0,0.0,0.0,0.0,0.0,0.0,0.0,0.0,0.0,0.0,0.0,0.0,0.0,0.0,0.0,0.0,0.0,0.0,0.0,0.0,0.0,0.0,0.0,0.0,0.0,0.0,0.0,0.0,0.0,0.0,0.0,0.0,0.0,0.0,0.0,0.0,0.0,0.0,0.0,0.0,0.0,0.0,0.0,0.0,0.0,0.0,0.0,0.0,0.0,0.0,0.0,0.0,0.0,0.0,0.0,0.0,0.0,0.0,0.0,0.0,0.0,0.0,0.0,0.0,0.0,0.0,0.0,0.0,0.0,0.0,0.0,0.0,0.0,0.0,0.0,0.0,0.0,0.0,0.0,0.0,0.0,0.0,0.0,0.0,0.0,0.0,0.0,0.0,0.0,0.0,0.0,0.0,0.0,0.0,0.0,0.0,0.0,0.0,0.0,0.0,0.0,0.0,0.0,0.0,0.0,0.0,0.0,0.0,-8.822,-8.3344,-7.9727,-7.761,-7.6202,-7.3417,0.0,0.0,0.0,0.0,0.0,0.0,0.0,0.0,0.0,0.0,0.0,0.0,0.0,0.0,0.0,0.0,0.0,0.0,0.0,0.0,0.0,0.0,0.0,0.0,0.0,0.0,0.0,0.0,0.0,0.0,0.0,0.0,0.0,0.0,0.0,0.0,0.0,0.0,0.0,0.0,0.0,0.0,0.0,0.0,0.0,0.0,0.0,0.0,0.0,0.0,0.0,0.0,0.0,0.0,0.0,0.0,0.0,0.0,0.0,0.0,0.0,0.0,0.0,0.0,0.0,0.0,0.0,0.0,0.0,0.0,0.0,0.0,0.0,0.0,0.0,0.0,0.0,0.0,0.0,0.0,0.0,0.0,0.0,0.0,0.0,0.0,0.0,0.0,0.0,0.0,0.0,0.0,0.0,0.0,0.0,0.0,0.0,0.0,0.0,0.0,0.0,0.0,0.0,0.0,0.0,0.0,0.0,0.0,0.0,-8.1326,-7.9512,-7.7861,-7.6366,-7.4308,-7.1741,-6.8743,0.0,0.0,0.0,0.0,0.0,0.0,0.0,0.0,0.0,0.0,0.0,0.0,0.0,0.0,0.0,0.0,0.0,0.0,0.0,0.0,0.0,0.0,0.0,0.0,0.0,0.0,0.0,0.0,0.0,0.0,0.0,0.0,0.0,0.0,0.0,0.0,0.0,0.0,0.0,0.0,0.0,0.0,0.0,0.0,0.0,0.0,0.0,0.0,0.0,0.0,0.0,0.0,0.0,0.0,0.0,0.0,0.0,0.0,0.0,0.0,0.0,0.0,0.0,0.0,0.0,0.0,0.0,0.0,0.0,0.0,0.0,0.0,0.0,0.0,0.0,0.0,0.0,0.0,0.0,0.0,0.0,0.0,0.0,0.0,0.0,0.0,0.0,0.0,0.0,0.0,0.0,0.0,0.0,0.0,0.0,0.0,0.0,0.0,0.0,0.0,0.0,0.0,0.0,0.0,0.0,0.0,0.0,0.0,-7.6443,-7.6411,-7.5741,-7.4205,-7.2322,-7.0013,0.0,0.0,0.0,0.0,0.0,0.0,0.0,0.0,0.0,0.0,0.0,0.0,0.0,0.0,0.0,0.0,0.0,0.0,0.0,0.0,0.0,0.0,0.0,0.0,0.0,0.0,0.0,0.0,0.0,0.0,0.0,0.0,0.0,0.0,0.0,0.0,0.0,0.0,0.0,0.0,0.0,0.0,0.0,0.0,0.0,0.0,0.0,0.0,0.0,0.0,0.0,0.0,0.0,0.0,0.0,0.0,0.0,0.0,0.0,0.0,0.0,0.0,0.0,0.0,0.0,0.0,0.0,0.0,0.0,0.0,0.0,0.0,0.0,0.0,0.0,0.0,0.0,0.0,0.0,0.0,0.0,0.0,0.0,0.0,0.0,0.0,0.0,0.0,0.0,0.0,0.0,0.0,0.0,0.0,0.0,0.0,0.0,0.0,0.0,0.0,0.0,0.0,0.0,0.0,0.0,0.0,0.0,0.0,-7.5195,-7.428,-7.3939,-7.2808,-7.042,-7.0318,-6.8184,0.0,0.0,0.0,0.0,0.0,0.0,0.0,0.0,0.0,0.0,0.0,0.0,0.0,0.0,0.0,0.0,0.0,0.0,0.0,0.0,0.0,0.0,0.0,0.0,0.0,0.0,0.0,0.0,0.0,0.0,0.0,0.0,0.0,0.0,0.0,0.0,0.0,0.0,0.0,0.0,0.0,0.0,0.0,0.0,0.0,0.0,0.0,0.0,0.0,0.0,0.0,0.0,0.0,0.0,0.0,0.0,0.0,0.0,0.0,0.0,0.0,0.0,0.0,0.0,0.0,0.0,0.0,0.0,0.0,0.0,0.0,0.0,0.0,0.0,0.0,0.0,0.0,0.0,0.0,0.0,0.0,0.0,0.0,0.0,0.0,0.0,0.0,0.0,0.0,0.0,0.0,0.0,0.0,0.0,0.0,0.0,0.0,0.0,0.0,0.0,0.0,0.0,0.0,0.0,0.0,0.0,0.0,0.0,0.0,-7.2715,0.0,-7.3316,0.0,-7.1029,-6.915,0.0,0.0,0.0,0.0,0.0,0.0,0.0,0.0,0.0,0.0,0.0,0.0,0.0,0.0,0.0,0.0,0.0,0.0,0.0,0.0,0.0,0.0,0.0,0.0,0.0,0.0,0.0,0.0,0.0,0.0,0.0,0.0,0.0,0.0,0.0,0.0,0.0,0.0,0.0,0.0,0.0,0.0,0.0,0.0,0.0,0.0,0.0,0.0,0.0,0.0,0.0,0.0,0.0,0.0,0.0,0.0,0.0,0.0,0.0,0.0,0.0,0.0,0.0,0.0,0.0,0.0,0.0,0.0,0.0,0.0,0.0,0.0,0.0,0.0,0.0,0.0,0.0,0.0,0.0,0.0,0.0,0.0,0.0,0.0,0.0,0.0,0.0,0.0,0.0,0.0,0.0,0.0,0.0,0.0,0.0,0.0,0.0,0.0,0.0,0.0,0.0,0.0,0.0,0.0,0.0,0.0,0.0,0.0,0.0,-7.1284,-7.2046,-7.2249,-7.1842,-7.0775,-6.9099,0.0,0.0,0.0,0.0,0.0,0.0,0.0,0.0,0.0,0.0,0.0,0.0,0.0,0.0,0.0,0.0,0.0,0.0,0.0,0.0,0.0,0.0,0.0,0.0,0.0,0.0,0.0,0.0,0.0,0.0,0.0,0.0,0.0,0.0,0.0,0.0,0.0,0.0,0.0,0.0,0.0,0.0,0.0,0.0,0.0,0.0,0.0,0.0,0.0,0.0,0.0,0.0,0.0,0.0,0.0,0.0,0.0,0.0,0.0,0.0,0.0,0.0,0.0,0.0,0.0,0.0,0.0,0.0,0.0,0.0,0.0,0.0,0.0,0.0,0.0,0.0,0.0,0.0,0.0,0.0,0.0,0.0,0.0,0.0,0.0,0.0,0.0,0.0,0.0,0.0,0.0,0.0,0.0,0.0,0.0,0.0,0.0,0.0,0.0,0.0,0.0,0.0,0.0,0.0,0.0,0.0,0.0,0.0,0.0,-7.0115,-7.0115,-6.9658,-6.8845,-6.9607,-6.8083,0.0,0.0,0.0,0.0,0.0,0.0,0.0,0.0,0.0,0.0,0.0,0.0,0.0,0.0,0.0,0.0,0.0,0.0,0.0,0.0,0.0,0.0,0.0,0.0,0.0,0.0,0.0,0.0,0.0,0.0,0.0,0.0,0.0,0.0,0.0,0.0,0.0,0.0,0.0,0.0,0.0,0.0,0.0,0.0,0.0,0.0,0.0,0.0,0.0,0.0,0.0,0.0,0.0,0.0,0.0,0.0,0.0,0.0,0.0,0.0,0.0,0.0,0.0,0.0,0.0,0.0,0.0,0.0,0.0,0.0,0.0,0.0,0.0,0.0,0.0,0.0,0.0,0.0,0.0,0.0,0.0,0.0,0.0,0.0,0.0,0.0,0.0,0.0,0.0,0.0,0.0,0.0,0.0,0.0,0.0,0.0,0.0,0.0,0.0,0.0,0.0,0.0,0.0,0.0,0.0,0.0,0.0,0.0,0.0,0.0,-6.9048,-6.9251,-6.9708,-6.9302,-6.8083,-6.5999,0.0,0.0,0.0,0.0,0.0,0.0,0.0,0.0,0.0,0.0,0.0,0.0,0.0,0.0,0.0,0.0,0.0,0.0,0.0,0.0,0.0,0.0,0.0,0.0,0.0,0.0,0.0,0.0,0.0,0.0,0.0,0.0,0.0,0.0,0.0,0.0,0.0,0.0,0.0,0.0,0.0,0.0,0.0,0.0,0.0,0.0,0.0,0.0,0.0,0.0,0.0,0.0,0.0,0.0,0.0,0.0,0.0,0.0,0.0,0.0,0.0,0.0,0.0,0.0,0.0,0.0,0.0,0.0,0.0,0.0,0.0,0.0,0.0,0.0,0.0,0.0,0.0,0.0,0.0,0.0,0.0,0.0,0.0,0.0,0.0,0.0,0.0,0.0,0.0,0.0,0.0,0.0,0.0,0.0,0.0,0.0,0.0,0.0,0.0,0.0,0.0,0.0,0.0,0.0,0.0,0.0,0.0,0.0,0.0,0.0,-6.8438,-6.9505,-6.8032,-6.6508,0.0,0.0,0.0,0.0,0.0,0.0,0.0,0.0,0.0,0.0,0.0,0.0,0.0,0.0,0.0,0.0,0.0,0.0,0.0,0.0,0.0,0.0,0.0,0.0,0.0,0.0,0.0,0.0,0.0,0.0,0.0,0.0,0.0,0.0,0.0,0.0,0.0,0.0,0.0,0.0,0.0,0.0,0.0,0.0,0.0,0.0,0.0,0.0,0.0,0.0,0.0,0.0,0.0,0.0,0.0,0.0,0.0,0.0,0.0,0.0,0.0,0.0,0.0,0.0,0.0,0.0,0.0,0.0,0.0,0.0,0.0,0.0,0.0,0.0,0.0,0.0,0.0,0.0,0.0,0.0,0.0,0.0,0.0,0.0,0.0,0.0,0.0,0.0,0.0,0.0,0.0,0.0,0.0,0.0,0.0,0.0,0.0,0.0,0.0,0.0,0.0,0.0,0.0,0.0,0.0,0.0,0.0,0.0,0.0,0.0,0.0,-6.7371,-6.8387,-6.6406,0.0,-6.2317,0.0,0.0,0.0,0.0,0.0,0.0,0.0,0.0,0.0,0.0,0.0,0.0,0.0,0.0,0.0,0.0,0.0,0.0,0.0,0.0,0.0,0.0,0.0,0.0,0.0,0.0,0.0,0.0,0.0,0.0,0.0,0.0,0.0,0.0,0.0,0.0,0.0,0.0,0.0,0.0,0.0,0.0,0.0,0.0,0.0,0.0,0.0,0.0,0.0,0.0,0.0,0.0,0.0,0.0,0.0,0.0,0.0,0.0,0.0,0.0,0.0,0.0,0.0,0.0,0.0,0.0,0.0,0.0,0.0,0.0,0.0,0.0,0.0,0.0,0.0,0.0,0.0,0.0,0.0,0.0,0.0,0.0,0.0,0.0,0.0,0.0,0.0,0.0,0.0,0.0,0.0,0.0,0.0,0.0,0.0,0.0,0.0,0.0,0.0,0.0,0.0,0.0,0.0,0.0,0.0,0.0,0.0,0.0,0.0,0.0,0.0,0.0,-6.5949,-6.5034,-6.4475,0.0,0.0,0.0,0.0,0.0,0.0,0.0,0.0,0.0,0.0,0.0,0.0,0.0,0.0,0.0,0.0,0.0,0.0,0.0,0.0,0.0,0.0,0.0,0.0,0.0,0.0,0.0,0.0,0.0,0.0,0.0,0.0,0.0,0.0,0.0,0.0,0.0,0.0,0.0,0.0,0.0,0.0,0.0,0.0,0.0,0.0,0.0,0.0,0.0,0.0,0.0,0.0,0.0,0.0,0.0,0.0,0.0,0.0,0.0,0.0,0.0,0.0,0.0,0.0,0.0,0.0,0.0,0.0,0.0,0.0,0.0,0.0,0.0,0.0,0.0,0.0,0.0,0.0,0.0,0.0,0.0,0.0,0.0,0.0,0.0,0.0,0.0,0.0,0.0,0.0,0.0,0.0,0.0,0.0,0.0,0.0,0.0,0.0,0.0,0.0,0.0,0.0,0.0,0.0,0.0,0.0,0.0,0.0,0.0,0.0,-6.6863,-6.6863,-6.5847,-6.5034,-6.4475,0.0,0.0,0.0,0.0,0.0,0.0,0.0,0.0,0.0,0.0,0.0,0.0,0.0,0.0,0.0,0.0,0.0,0.0,0.0,0.0,0.0,0.0,0.0,0.0,0.0,0.0,0.0,0.0,0.0,0.0,0.0,0.0,0.0,0.0,0.0,0.0,0.0,0.0,0.0,0.0,0.0,0.0,0.0,0.0,0.0,0.0,0.0,0.0,0.0,0.0,0.0,0.0,0.0,0.0,0.0,0.0,0.0,0.0,0.0,0.0,0.0,0.0,0.0,0.0,0.0,0.0,0.0,0.0,0.0,0.0,0.0,0.0,0.0,0.0,0.0,0.0,0.0,0.0,0.0,0.0,0.0,0.0,0.0,0.0,0.0,0.0,0.0,0.0,0.0,0.0,0.0,0.0,0.0,0.0,0.0,0.0,0.0,0.0,0.0,0.0,0.0,0.0,0.0,0.0,0.0,0.0,0.0,0.0,0.0,0.0,0.0,0.0,0.0,0.0,-6.3561,0.0,0.0,0.0,0.0,0.0,0.0,0.0,0.0,0.0,0.0,0.0,0.0,0.0,0.0,0.0,0.0,0.0,0.0,0.0,0.0,0.0,0.0,0.0,0.0,0.0,0.0,0.0,0.0,0.0,0.0,0.0,0.0,0.0,0.0,0.0,0.0,0.0,0.0,0.0,0.0,0.0,0.0,0.0,0.0,0.0,0.0,0.0,0.0,0.0,0.0,0.0,0.0,0.0,0.0,0.0,0.0,0.0,0.0,0.0,0.0,0.0,0.0,0.0,0.0,0.0,0.0,0.0,0.0,0.0,0.0,0.0,0.0,0.0,0.0,0.0,0.0,0.0,0.0,0.0,0.0,0.0,0.0,0.0,0.0,0.0,0.0,0.0,0.0,0.0,0.0,0.0,0.0,0.0,0.0,0.0,0.0,0.0,0.0,0.0,0.0,0.0,0.0,0.0,0.0,0.0,0.0,0.0,0.0,0.0,0.0,0.0,0.0,0.0,0.0,0.0,0.0,0.0,0.0,0.0,0.0,0.0,0.0,0.0,0.0,0.0,0.0,0.0,0.0,0.0,0.0,0.0,0.0,0.0,0.0,0.0,0.0,0.0,0.0,0.0,0.0,0.0,0.0,0.0,0.0,0.0,0.0,0.0,0.0,0.0,0.0,0.0,0.0,0.0,0.0,0.0,0.0,0.0,0.0,0.0,0.0,0.0,0.0,0.0,0.0,0.0,0.0,0.0,0.0,0.0,0.0,0.0,0.0,0.0,0.0,0.0,0.0,0.0,0.0,0.0,0.0,0.0,0.0,0.0,0.0,0.0,0.0,0.0,0.0,0.0,0.0,0.0,0.0,0.0,0.0,0.0,0.0,0.0,0.0,0.0,0.0,0.0,0.0,0.0,0.0,0.0,0.0,0.0,0.0,0.0,0.0,0.0,0.0,0.0,0.0,0.0,0.0,0.0,0.0,0.0,0.0,0.0,0.0,0.0,0.0,0.0,0.0,0.0,0.0,0.0,0.0,0.0,0.0,0.0,0.0,0.0,0.0,0.0,0.0,0.0,0.0,0.0,0.0,0.0,0.0,0.0,0.0,0.0,0.0,0.0,0.0,0.0,0.0,0.0,0.0,0.0,0.0,0.0,0.0,0.0,0.0,0.0,0.0,0.0,0.0,0.0,0.0,0.0,0.0,0.0,0.0,0.0,0.0,0.0,0.0,0.0,0.0,0.0,0.0,0.0,0.0,0.0,0.0,0.0,0.0,0.0,0.0,0.0,0.0,0.0,0.0,0.0,0.0,0.0,0.0,0.0,0.0,0.0,0.0,0.0,0.0,0.0,0.0,0.0,0.0,0.0,0.0,0.0,0.0,0.0,0.0,0.0,0.0,0.0,0.0,0.0,0.0,0.0,0.0,0.0,0.0,0.0,0.0,0.0,0.0,0.0,0.0,0.0,0.0,0.0,0.0,0.0,0.0,0.0,0.0,0.0,0.0,0.0,0.0,0.0,0.0,0.0,0.0,0.0,0.0,0.0,0.0,0.0,0.0,0.0,0.0,0.0,0.0,0.0,0.0,0.0,0.0,0.0,0.0,0.0,0.0,0.0,0.0,0.0,0.0,0.0,0.0,0.0,0.0,0.0,0.0,0.0,0.0,0.0,0.0,0.0,0.0,0.0,0.0,0.0,0.0,0.0,0.0,0.0,0.0,0.0,0.0,0.0,0.0,0.0,0.0,0.0,0.0,0.0,0.0,0.0,0.0,0.0,0.0,0.0,0.0,0.0,0.0,0.0,0.0,0.0,0.0,0.0,0.0,0.0,0.0,0.0,0.0,0.0,0.0,0.0,0.0,0.0,0.0,0.0,0.0,0.0,0.0,0.0,0.0,0.0,0.0,0.0,0.0,0.0,0.0,0.0,0.0,0.0,0.0,0.0,0.0,0.0,0.0,0.0,0.0,0.0,0.0,0.0,0.0,0.0,0.0,0.0,0.0,0.0,0.0,0.0,0.0,0.0,0.0,0.0,0.0,0.0,0.0,0.0,0.0,0.0,0.0,0.0,0.0,0.0,0.0,0.0,0.0,0.0,0.0,0.0,0.0,0.0,0.0,0.0,0.0,0.0,0.0,0.0,0.0,0.0,0.0,0.0,0.0,0.0,0.0,0.0,0.0,0.0,0.0,0.0,0.0,0.0,0.0,0.0,0.0,0.0,0.0,0.0,0.0,0.0,0.0,0.0,0.0,0.0,0.0,0.0,0.0,0.0,0.0,0.0,0.0,0.0,0.0,0.0,0.0,0.0,0.0,0.0,0.0,0.0,0.0,0.0,0.0,0.0,0.0,0.0,0.0,0.0,0.0,0.0,0.0,0.0,0.0,0.0,0.0,0.0,0.0,0.0,0.0,0.0,0.0,0.0,0.0,0.0,0.0,0.0,0.0,0.0,0.0,0.0,0.0,0.0,0.0,0.0,0.0,0.0,0.0,0.0,0.0,0.0,0.0,0.0,0.0,0.0,0.0,0.0,0.0,0.0,0.0,0.0,0.0,0.0,0.0,0.0,0.0,0.0,0.0,0.0,0.0,0.0,0.0,0.0,0.0,0.0,0.0,0.0,0.0,0.0,0.0,0.0,0.0,0.0,0.0,0.0,0.0,0.0,0.0,0.0,0.0,0.0,0.0,0.0,0.0,0.0,0.0,0.0,0.0,0.0,0.0,0.0,0.0,0.0,0.0,0.0,0.0,0.0,0.0,0.0,0.0,0.0,0.0,0.0,0.0,0.0,0.0,0.0,0.0,0.0,0.0,0.0,0.0,0.0,0.0,0.0,0.0,0.0,0.0,0.0,0.0,0.0,0.0,0.0,0.0,0.0,0.0,0.0,0.0,0.0,0.0,0.0,0.0,0.0,0.0,0.0,0.0,0.0,0.0,0.0,0.0,0.0,0.0,0.0,0.0,0.0,0.0,0.0,0.0,0.0,0.0,0.0,0.0,0.0,0.0,0.0,0.0,0.0,0.0,0.0,0.0,0.0,0.0,0.0,0.0,0.0,0.0,0.0,0.0,0.0,0.0,0.0,0.0,0.0,0.0,0.0,0.0,0.0,0.0,0.0,0.0,0.0,0.0,0.0,0.0,0.0,0.0,0.0,0.0,0.0,0.0,0.0,0.0,0.0,0.0,0.0,0.0,0.0,0.0,0.0,0.0,0.0,0.0,0.0,0.0,0.0,0.0,0.0,0.0,0.0,0.0,0.0,0.0,0.0,0.0,0.0,0.0,0.0,0.0,0.0,0.0,0.0,0.0,0.0,0.0,0.0,0.0,0.0,0.0,0.0,0.0,0.0,0.0,0.0,0.0,0.0,0.0,0.0,0.0,0.0,0.0,0.0,0.0,0.0,0.0,0.0,0.0,0.0,0.0,0.0,0.0,0.0,0.0,0.0,0.0,0.0,0.0,0.0,0.0,0.0,0.0,0.0,0.0,0.0,0.0,0.0,0.0,0.0,0.0,0.0,0.0,0.0,0.0,0.0,0.0,0.0,0.0,0.0,0.0,0.0,0.0,0.0,0.0,0.0,0.0,0.0,0.0,0.0,0.0,0.0,0.0,0.0,0.0,0.0,0.0,0.0,0.0,0.0,0.0,0.0,0.0,0.0,0.0,0.0,0.0,0.0,0.0,0.0,0.0,0.0,0.0,0.0,0.0,0.0,0.0,0.0,0.0,0.0,0.0,0.0,0.0,0.0,0.0,0.0,0.0,0.0,0.0,0.0,0.0,0.0,0.0,0.0,0.0,0.0,0.0,0.0,0.0,0.0,0.0,0.0,0.0,0.0,0.0,0.0,0.0,0.0,0.0,0.0,0.0,0.0,0.0,0.0,0.0,0.0,0.0,0.0,0.0,0.0,0.0,0.0,0.0,0.0,0.0,0.0,0.0,0.0,0.0,0.0,0.0,0.0,0.0,0.0,0.0,0.0,0.0,0.0,0.0,0.0,0.0,0.0,0.0,0.0,0.0,0.0,0.0,0.0,0.0,0.0,0.0,0.0,0.0,0.0,0.0,0.0,0.0,0.0,0.0,0.0,0.0,0.0,0.0,0.0,0.0,0.0,0.0,0.0,0.0,0.0,0.0,0.0,0.0,0.0,0.0,0.0,0.0,0.0,0.0,0.0,0.0,0.0,0.0,0.0,0.0,0.0,0.0,0.0,0.0,0.0,0.0,0.0,0.0,0.0,0.0,0.0,0.0,0.0,0.0,0.0,0.0,0.0,0.0,0.0,0.0,0.0,0.0,0.0,0.0,0.0,0.0,0.0,0.0,0.0,0.0,0.0,0.0,0.0,0.0,0.0,0.0,0.0,0.0,0.0,0.0,0.0,0.0,0.0,0.0,0.0,0.0]}],[{"header":{"parameterUnit":"kt","parameterCategory":2,"dx":1,"dy":1,"la1":29.587661999999998,"la2":31.0,"lo1":-88.76705300000003,"lo2":-86.6583820000003,"nx":115,"ny":88,"refTime":"2022-10-27T00:00:00:Z","depth":0,"parameterNumber":2,"parameterNumberName":"V-component_of_WINDS"},"data":[5.2794,5.317,5.3263,5.3897,5.4859,5.5422,5.5915,5.6431,5.6924,5.7158,5.7135,5.7111,5.7065,5.6689,5.6548,5.6853,5.7088,5.6501,5.676,5.7276,5.737,5.7675,5.805,5.8355,5.899,5.9917,6.1067,6.2218,6.3001,6.4172,6.5314,6.6646,7.0478,7.4463,7.8249,8.2218,8.618,8.7504,8.9007,8.919,8.919,8.9556,8.9921,9.0833,9.196,9.2828,9.3731,9.4631,9.4952,9.4952,9.4952,9.4952,9.4952,9.4952,9.4952,9.4952,9.4952,9.4952,9.4952,9.4952,9.6523,9.688,10.0297,10.3527,10.7177,11.0986,11.3367,11.6263,11.6636,11.729,11.7778,11.8103,11.8751,11.9719,12.041,12.1162,12.1799,12.1958,12.2117,12.2117,12.2117,12.2117,12.2117,12.2117,12.2117,12.2117,12.2117,12.2702,12.3386,12.4508,12.5582,12.6953,12.8281,13.2743,13.8251,14.2175,14.3721,14.6644,14.8721,14.8236,14.8123,14.8349,14.8293,14.801,14.8123,14.8495,14.8551,14.8349,14.7785,14.6825,14.66,14.6148,14.4907,14.4145,14.4059,5.2583,5.27,5.3123,5.3873,5.4835,5.5399,5.5868,5.6384,5.6924,5.7135,5.7065,5.7088,5.744,5.7252,5.6947,5.7581,5.7651,5.69,5.7463,5.7956,5.798,5.8144,5.8402,5.859,5.881,5.9668,6.1067,6.2218,6.4172,6.5314,6.7614,7.067,7.4273,7.8249,8.2404,8.5996,8.8055,8.9007,8.919,8.919,8.9556,8.9921,9.0833,9.1923,9.2828,9.3731,9.4451,9.4952,9.4952,9.4952,9.4952,9.4952,9.4952,9.4952,9.4952,9.4952,9.4952,9.4952,9.5131,9.5311,9.7197,9.9594,10.3354,10.6793,11.0438,11.3367,11.5442,11.6963,11.6963,11.729,11.7941,11.8427,11.9397,12.0362,12.0682,12.1321,12.164,12.2117,12.2117,12.2117,12.2117,12.2117,12.2117,12.2117,12.2117,12.2117,12.241,12.2947,12.3727,12.5045,12.6577,12.8181,13.1531,13.647,14.1608,14.3666,14.4163,14.6652,14.7728,14.7559,14.7559,14.7898,14.7954,14.7615,14.7503,14.7728,14.7841,14.7615,14.6713,14.564,14.5528,14.5302,14.4004,14.3072,14.3065,5.27,5.2982,5.3216,5.3404,5.3686,5.4413,5.4882,5.5281,5.6267,5.6572,5.6361,5.6595,5.6666,5.6431,5.6525,5.6994,5.7417,5.7065,5.7722,5.8379,5.8496,5.8566,5.8613,5.8707,5.8928,5.9912,6.1263,6.3951,6.7614,6.8387,7.0094,7.4463,7.8249,8.1438,8.2963,8.6733,8.9007,8.919,8.919,8.9556,9.0104,9.0468,9.1196,9.2466,9.337,9.3911,9.4631,9.4952,9.4952,9.4952,9.4952,9.4952,9.5028,9.5028,9.499,9.499,9.4952,9.4952,9.5669,9.6841,9.8929,10.1657,10.5122,10.8707,11.2324,11.4737,11.68,11.743,11.743,11.8103,11.8542,11.9397,12.0362,12.1002,12.1321,12.1481,12.1799,12.2117,12.2117,12.2117,12.2117,12.2117,12.2166,12.2166,12.2263,12.2312,12.2995,12.3581,12.4606,12.5729,12.7687,13.023,13.6209,14.1446,14.3502,14.4146,14.4678,14.5498,14.6713,14.6487,14.6318,14.6995,14.739,14.6656,14.643,14.6825,14.6713,14.6261,14.5471,14.4625,14.4455,14.4399,14.3101,14.186,14.2522,5.2958,5.331,5.3428,5.3428,5.3428,5.4108,5.4554,5.4742,5.5938,5.622,5.5915,5.6079,5.6103,5.6032,5.6173,5.6713,5.7229,5.7299,5.7839,5.8425,5.8707,5.8684,5.8731,5.8731,5.9322,6.0282,6.1851,6.3951,6.7228,7.0286,7.3159,7.8438,8.069,8.3706,8.5407,8.732,8.919,8.919,8.919,8.9556,9.0468,9.0833,9.156,9.2828,9.3911,9.4451,9.4631,9.4952,9.4952,9.499,9.499,9.5104,9.5256,9.5294,9.5218,9.5028,9.4952,9.5848,9.688,9.8753,10.1482,10.4433,10.7688,11.0774,11.3367,11.556,11.7173,11.764,11.8176,11.8799,11.9558,12.0362,12.1162,12.164,12.1958,12.1958,12.1958,12.2117,12.2117,12.2117,12.2117,12.2166,12.2214,12.2312,12.241,12.2898,12.3581,12.4313,12.5289,12.7045,12.8946,13.2504,13.9148,14.2545,14.3814,14.4435,14.4747,14.5441,14.5697,14.5358,14.4963,14.564,14.6205,14.5584,14.5302,14.5358,14.5358,14.502,14.4512,14.3665,14.3383,14.327,14.2198,14.1465,14.2263,5.3263,5.3381,5.3803,5.4437,5.5328,5.5399,5.5751,5.622,5.6361,5.6361,5.6243,5.5891,5.5938,5.6032,5.5938,5.6525,5.7229,5.7323,5.7722,5.8707,5.8731,5.8731,5.8731,5.8928,5.9715,6.0478,6.2023,6.451,6.5871,7.0642,7.6739,8.2404,8.352,8.5037,8.732,8.8824,8.919,8.919,8.9373,8.9921,9.0651,9.156,9.2503,9.3551,9.4271,9.499,9.4952,9.4952,9.4952,9.499,9.5142,9.5522,9.5863,9.6129,9.5635,9.555,9.5745,9.6919,9.8929,10.1348,10.4606,10.8028,11.1321,11.3458,11.5132,11.7127,11.811,11.8625,11.9158,11.9779,12.0297,12.0842,12.1321,12.1799,12.2117,12.2117,12.2117,12.2117,12.2117,12.2117,12.2117,12.2117,12.2263,12.2947,12.3093,12.363,12.4264,12.4899,12.6313,12.8307,13.0846,13.386,13.8642,14.201,14.3376,14.4355,14.4652,14.4568,14.4625,14.4399,14.3778,14.4173,14.485,14.4794,14.4568,14.4399,14.423,14.4117,14.3722,14.2988,14.2593,14.2311,14.186,14.1491,14.2012,5.3944,5.4202,5.4108,5.4671,5.5586,5.5985,5.6595,5.7182,5.6971,5.6642,5.6361,5.5868,5.5751,5.5915,5.5844,5.629,5.744,5.7323,5.7745,5.8543,5.8731,5.8731,5.9125,5.9322,6.0478,6.2389,6.4315,6.6813,6.9873,7.4814,8.0503,8.618,8.6952,8.7872,8.8641,8.919,8.919,8.9373,8.9739,9.0651,9.156,9.2503,9.3408,9.4271,9.4631,9.4952,9.4952,9.4952,9.5294,9.5711,9.5749,9.6167,9.685,9.7002,9.6623,9.6187,9.691,9.9145,10.1523,10.4433,10.8028,11.1154,11.3533,11.5554,11.7407,11.8438,11.9261,11.9989,12.038,12.0808,12.1068,12.137,12.1737,12.2055,12.2166,12.2166,12.2166,12.2166,12.2117,12.2117,12.2117,12.2117,12.2556,12.3337,12.3874,12.4216,12.4704,12.5468,12.6923,12.9443,13.2308,13.4792,13.8313,14.1618,14.2923,14.4059,14.3835,14.3553,14.3553,14.3101,14.2593,14.2763,14.3383,14.3609,14.3835,14.3665,14.3496,14.327,14.3045,14.2763,14.2368,14.1916,14.1465,14.1265,14.2149,5.4484,5.4789,5.4601,5.5023,5.5891,5.6572,5.7323,5.8027,5.7604,5.7205,5.6783,5.6149,5.5938,5.5844,5.5868,5.6408,5.6947,5.7417,5.8003,5.8402,5.8731,5.8928,5.9888,6.141,6.295,6.5262,6.8498,7.1763,7.4083,7.9002,8.4667,8.8641,8.8641,8.8824,8.919,8.919,8.919,8.9373,9.0104,9.1015,9.1923,9.2865,9.3911,9.4782,9.5256,9.5484,9.5597,9.5711,9.6091,9.6547,9.6623,9.704,9.7724,9.761,9.7566,9.6911,9.893,10.1831,10.426,10.8537,11.199,11.3533,11.5765,11.7898,11.9096,12.0015,12.0865,12.1714,12.244,12.2708,12.297,12.3147,12.3469,12.3386,12.3093,12.2995,12.28,12.2654,12.2117,12.2117,12.2117,12.2166,12.2458,12.3288,12.4557,12.4655,12.5125,12.5969,12.7588,13.0608,13.3297,13.5369,13.8387,14.127,14.2791,14.3214,14.2819,14.2537,14.2085,14.1634,14.1747,14.2029,14.2085,14.248,14.3158,14.3158,14.2763,14.2368,14.2029,14.1916,14.1973,14.1521,14.1321,14.1736,14.2481,5.4812,5.4906,5.5375,5.5891,5.6478,5.7346,5.812,5.8613,5.8097,5.7839,5.7745,5.6713,5.629,5.6337,5.6337,5.6642,5.7135,5.7628,5.8191,5.859,5.9864,6.0282,6.1606,6.4653,6.7147,7.0038,7.3071,7.633,7.7306,8.2218,8.5777,8.8422,8.919,8.919,8.919,8.919,8.9373,8.9739,9.0468,9.1378,9.2466,9.3227,9.4166,9.5009,9.5711,9.6015,9.6395,9.6736,9.7154,9.742,9.7534,9.8027,9.8217,9.7951,9.7686,9.8138,9.9562,10.4463,10.8624,11.0438,11.3413,11.6088,11.7874,11.9424,12.0675,12.1551,12.2453,12.3639,12.432,12.4522,12.4476,12.4541,12.4557,12.4216,12.3776,12.3435,12.3239,12.2849,12.2312,12.2117,12.2117,12.241,12.2702,12.3874,12.5338,12.5338,12.5403,12.6327,12.794,13.1066,13.3351,13.5391,13.8335,14.1076,14.1634,14.186,14.1691,14.186,14.1295,14.1183,14.1578,14.1916,14.1803,14.1973,14.2537,14.2537,14.2029,14.1578,14.1239,14.1295,14.1465,14.1183,14.1183,14.1736,14.2755,5.5352,5.5422,5.5915,5.6431,5.6971,5.7628,5.8238,5.8566,5.8167,5.7909,5.7698,5.6853,5.6408,5.6408,5.6431,5.6689,5.7182,5.7698,5.8214,5.9054,6.1777,6.3315,6.5818,6.9433,7.2308,7.4404,7.7841,8.069,8.1284,8.5222,8.7504,8.8824,8.919,8.919,8.919,8.9373,8.9556,9.0286,9.1015,9.2104,9.2828,9.4024,9.4933,9.553,9.6167,9.6585,9.704,9.742,9.7761,9.8179,9.8445,9.8711,9.9242,9.9503,9.9898,10.0806,10.2185,10.5339,11.0623,11.3247,11.5895,11.8646,11.9254,12.0551,12.1974,12.2833,12.4169,12.5264,12.5734,12.5693,12.5078,12.4103,12.4069,12.3825,12.3386,12.28,12.2556,12.2556,12.2117,12.2117,12.2214,12.2751,12.3288,12.4704,12.5729,12.568,12.5745,12.6959,12.8274,13.0647,13.2757,13.5739,13.8857,14.0656,14.1295,14.1183,14.1183,14.1183,14.1183,14.1183,14.1465,14.1578,14.1465,14.1408,14.1747,14.1803,14.1295,14.1183,14.1183,14.1183,14.1183,14.1183,14.1183,14.2012,14.3107,5.5633,5.568,5.6196,5.6689,5.7229,5.7886,5.8379,5.8637,5.8379,5.8097,5.7745,5.7065,5.6666,5.6666,5.6736,5.6971,5.7463,5.7956,5.8652,5.9864,6.39,6.6153,6.9405,7.3452,7.7653,7.9346,8.2371,8.5222,8.5037,8.7285,8.9007,8.919,8.919,8.919,8.919,8.9739,8.9921,9.0651,9.196,9.2902,9.3588,9.4791,9.5673,9.6205,9.6926,9.7458,9.7913,9.8369,9.8749,9.909,9.9166,9.9394,9.9736,10.2066,10.2519,10.3144,10.684,10.8585,11.1455,11.5379,11.82,11.9488,12.0497,12.1564,12.3187,12.4144,12.539,12.6322,12.7154,12.6735,12.6119,12.5192,12.4557,12.4216,12.3386,12.2751,12.2507,12.2458,12.2361,12.241,12.2654,12.3239,12.3874,12.5094,12.5436,12.5387,12.6478,12.7696,12.9784,13.1725,13.4014,13.7015,13.9254,14.0431,14.1183,14.1183,14.1183,14.1183,14.1183,14.1183,14.1183,14.1239,14.1183,14.1239,14.1183,14.1183,14.1183,14.1183,14.1183,14.1183,14.1183,14.1183,14.1321,14.2149,14.3244,5.5633,5.5704,5.622,5.6713,5.7252,5.8285,5.8707,5.8707,5.866,5.8379,5.7862,5.744,5.7158,5.7111,5.7158,5.7393,5.7862,5.8943,6.0013,6.2534,6.6733,6.8663,7.2661,7.7402,8.2371,8.4111,8.618,8.809,8.8641,8.9007,8.919,8.919,8.919,8.919,8.9409,9.014,9.0505,9.0905,9.287,9.3525,9.4437,9.5652,9.6357,9.6964,9.7761,9.8369,9.8787,9.9242,9.9508,10.0074,10.0262,10.0903,10.1432,10.4157,10.5852,10.6052,11.0921,11.3175,11.356,11.6678,11.8967,12.0469,12.1358,12.2533,12.4024,12.5174,12.6255,12.762,12.81,12.7827,12.7388,12.6754,12.607,12.5338,12.4167,12.3435,12.3337,12.3239,12.3142,12.3142,12.3483,12.3971,12.4655,12.5143,12.524,12.5884,12.7273,12.9323,13.1831,13.4014,13.6387,13.8832,14.0292,14.1183,14.1183,14.1183,14.1183,14.1183,14.1183,14.1183,14.1183,14.1183,14.1183,14.1183,14.1183,14.1183,14.1183,14.1183,14.1183,14.1183,14.1183,14.1183,14.1598,14.2149,14.2971,5.5633,5.5751,5.6572,5.7018,5.7276,5.8285,5.8731,5.8731,5.8731,5.8425,5.7909,5.7768,5.751,5.7346,5.7487,5.8009,5.9194,6.2065,6.3629,6.7313,7.2088,7.6836,7.9877,8.3115,8.6365,8.7504,8.9007,8.919,8.919,8.919,8.919,8.919,8.919,8.919,8.9516,9.0608,9.1851,9.2768,9.4347,9.5454,9.6188,9.6857,9.7306,9.8027,9.8445,9.9014,9.9508,9.9736,10.0001,10.0491,10.2144,10.3638,10.523,10.7461,11.0314,11.2439,11.4374,11.5733,11.7215,11.934,12.1001,12.1685,12.2386,12.355,12.4881,12.5531,12.6616,12.8176,12.8511,12.8413,12.8169,12.729,12.6558,12.5924,12.4752,12.4216,12.4069,12.3971,12.3874,12.3923,12.4557,12.5094,12.5582,12.5631,12.581,12.6094,12.7488,12.9322,13.2608,13.5955,13.8352,13.9816,14.1183,14.1183,14.1183,14.1183,14.1183,14.1183,14.1183,14.1183,14.1183,14.1183,14.1183,14.1183,14.1183,14.1183,14.1183,14.1183,14.1183,14.1183,14.1183,14.1183,14.1598,14.2287,14.2971,5.5633,5.5727,5.6736,5.7276,5.751,5.8379,5.8731,5.8731,5.8731,5.8425,5.7909,5.7722,5.7557,5.7944,5.8567,6.0117,6.189,6.624,6.8443,7.2279,7.6836,8.1219,8.3706,8.5961,8.919,8.9007,8.919,8.919,8.919,8.919,8.919,8.919,8.919,8.919,8.9628,9.0464,9.2182,9.3686,9.5679,9.6758,9.761,9.7799,9.8255,9.8787,9.8938,9.9508,9.985,9.9963,9.9963,10.0906,10.3785,10.4899,10.5969,11.1043,11.4016,11.5744,11.7521,11.833,11.9312,12.0861,12.2199,12.2713,12.3243,12.424,12.5505,12.6109,12.7169,12.7841,12.8511,12.8169,12.8023,12.7339,12.6754,12.6119,12.5533,12.5045,12.4801,12.4655,12.4606,12.4752,12.5387,12.5777,12.5875,12.5973,12.6038,12.6428,12.7708,12.9627,13.3949,13.7641,13.9254,14.071,14.0988,14.1183,14.1183,14.1183,14.1183,14.1183,14.1183,14.1183,14.1183,14.1183,14.1183,14.1183,14.1183,14.1183,14.1183,14.1183,14.1183,14.1183,14.1183,14.1183,14.1736,14.2424,14.3244,5.5657,5.5774,5.6806,5.7487,5.7933,5.8496,5.8731,5.8731,5.8684,5.8379,5.8003,5.7487,5.7873,5.9342,6.2194,6.4765,6.6873,7.0202,7.3262,7.6489,8.0096,8.3149,8.4852,8.7101,8.919,8.919,8.919,8.919,8.919,8.919,8.919,8.919,8.919,8.919,8.9628,9.0284,9.2109,9.4387,9.6871,9.7766,9.8179,9.8483,9.8862,9.9052,9.9546,9.9963,9.9963,10.0718,10.1056,10.1244,10.5784,10.8133,10.9774,11.4456,11.7512,11.8818,12.0187,12.0602,12.0721,12.1778,12.2386,12.2416,12.3115,12.4457,12.5601,12.6495,12.7505,12.8343,12.8511,12.812,12.7583,12.6998,12.6949,12.6509,12.6168,12.5924,12.6021,12.5729,12.5289,12.5533,12.568,12.5729,12.5777,12.5485,12.5434,12.6815,12.8196,13.078,13.5142,13.8493,14.0012,14.0849,14.0988,14.1183,14.1183,14.1183,14.1183,14.1183,14.1183,14.1183,14.1183,14.1183,14.1183,14.1183,14.1183,14.1183,14.1183,14.1183,14.1183,14.1183,14.1183,14.1183,14.1598,14.2287,14.3107,5.5868,5.6314,5.7299,5.7792,5.798,5.8496,5.8731,5.866,5.8308,5.8285,5.8238,5.7845,5.9725,6.3581,6.6881,6.9785,7.2221,7.6836,7.9127,8.1592,8.4633,8.6952,8.7574,8.8126,8.9262,8.919,8.9262,8.919,8.919,8.919,8.919,8.919,8.919,8.919,8.9373,9.0358,9.1816,9.472,9.7512,9.8751,9.9204,9.9432,9.9546,9.9698,9.9812,9.9963,10.0341,10.2331,10.3971,10.5415,10.9956,11.3383,11.4099,11.8084,12.0795,12.1396,12.1822,12.2152,12.2012,12.2199,12.2386,12.2339,12.2821,12.4287,12.5601,12.6664,12.7505,12.8343,12.8511,12.8364,12.8169,12.8071,12.773,12.7339,12.69,12.7242,12.729,12.6217,12.5631,12.5826,12.5875,12.5826,12.5045,12.485,12.5895,12.7371,12.9566,13.2153,13.5522,13.8973,14.0292,14.0988,14.1183,14.1183,14.1183,14.1183,14.1183,14.1183,14.1183,14.1183,14.1183,14.1183,14.1183,14.1183,14.1183,14.1183,14.1183,14.1183,14.1183,14.1183,14.1183,14.1183,14.1321,14.2012,14.2755,5.6267,5.6806,5.7581,5.805,5.8261,5.8332,5.8379,5.8308,5.805,5.798,5.8151,5.9124,6.1248,6.4862,7.0713,7.4404,7.7779,8.1625,8.3925,8.5777,8.7819,8.9541,8.9654,8.9689,8.9689,8.9654,8.9404,8.9226,8.919,8.919,8.919,8.919,8.919,8.919,8.9373,9.0651,9.2328,9.424,9.6726,9.8524,9.928,9.947,9.9584,9.9963,9.9963,10.0001,10.068,10.3599,10.5599,10.7217,11.3204,11.7204,11.826,12.0795,12.3087,12.3087,12.3087,12.2854,12.2433,12.2807,12.2807,12.262,12.3274,12.4287,12.5601,12.7001,12.8009,12.8511,12.8511,12.8511,12.8462,12.8511,12.8511,12.8364,12.7876,12.8071,12.7778,12.6705,12.5777,12.5973,12.6021,12.4752,12.3776,12.4922,12.6745,12.8855,13.176,13.4452,13.7586,13.9816,14.057,14.1183,14.1183,14.1183,14.1183,14.1183,14.1183,14.1183,14.1183,14.1183,14.1183,14.1183,14.1183,14.1183,14.1183,14.1183,14.1183,14.1183,14.1183,14.1183,14.1183,14.1183,14.1183,14.1874,14.2971,5.6666,5.7111,5.7604,5.8097,5.8379,5.8003,5.7862,5.7909,5.7839,5.7798,5.8787,6.179,6.3852,6.6827,7.3305,7.8594,8.2185,8.5256,8.7136,8.8161,8.9499,9.0224,9.0295,9.0367,9.0224,9.0081,8.9511,8.9262,8.919,8.919,8.919,8.919,8.919,8.9373,8.9739,9.1015,9.2546,9.3721,9.5445,9.7192,9.8559,9.9014,9.9432,9.9812,9.9963,10.0341,10.1769,10.5045,10.7584,10.8499,11.4634,11.7732,11.861,12.1362,12.2743,12.3087,12.3087,12.3087,12.3041,12.3087,12.2994,12.3337,12.3898,12.4751,12.594,12.7337,12.8176,12.8343,12.8511,12.8511,12.8511,12.8511,12.8511,12.8462,12.8364,12.8413,12.7974,12.6558,12.5826,12.5777,12.4704,12.3532,12.2849,12.5307,12.7787,13.1059,13.4014,13.696,13.9536,14.0431,14.1183,14.1183,14.1183,14.1183,14.1183,14.1183,14.1183,14.1183,14.1183,14.1183,14.1183,14.1183,14.1183,14.1183,14.1183,14.1183,14.1183,14.1183,14.1183,14.1183,14.1183,14.1183,14.1183,14.2149,14.3244,5.6454,5.6595,5.7111,5.737,5.7463,5.7346,5.7534,5.7792,5.7703,5.9221,6.2109,6.4494,6.8223,7.3056,7.8155,8.2929,8.7504,8.7907,8.8641,8.9368,8.9974,9.0367,9.0367,9.0367,9.0331,9.0224,8.9582,8.9226,8.919,8.919,8.919,8.919,8.919,8.9556,9.0286,9.156,9.3021,9.4378,9.5772,9.7116,9.8521,9.9356,9.985,9.9963,9.9963,10.162,10.4157,10.8133,11.1405,11.4812,11.861,12.1708,12.2054,12.2571,12.2962,12.3087,12.3087,12.3087,12.3087,12.3087,12.3259,12.3774,12.4287,12.5309,12.6495,12.7169,12.7841,12.8343,12.8511,12.8511,12.8511,12.8511,12.8511,12.8511,12.8462,12.8169,12.7388,12.6509,12.5729,12.4655,12.3337,12.2702,12.2618,12.4538,12.7787,13.1006,13.4306,13.7444,14.0096,14.0988,14.1183,14.1183,14.1183,14.1183,14.1183,14.1183,14.1183,14.1183,14.1183,14.1183,14.1183,14.1183,14.1183,14.1183,14.1183,14.1183,14.1183,14.1183,14.1183,14.1183,14.1183,14.1321,14.1598,14.2424,14.338,5.6994,5.683,5.7299,5.7393,5.7182,5.7158,5.8068,5.9798,6.095,6.3337,6.6747,7.0323,7.3916,7.7402,8.1844,8.5626,8.8457,8.919,8.919,8.9368,8.9939,9.0367,9.0367,9.0367,9.0367,9.0117,8.9618,8.919,8.919,8.919,8.919,8.9373,8.9739,9.0104,9.0833,9.196,9.3529,9.4635,9.5772,9.6888,9.8103,9.8938,9.9584,10.0377,10.1769,10.3599,10.6706,11.0863,11.5389,11.7732,12.0969,12.2571,12.2915,12.3087,12.3087,12.3087,12.3087,12.3087,12.3087,12.3087,12.3259,12.3774,12.4628,12.5479,12.6326,12.7337,12.8009,12.8343,12.8511,12.8511,12.8511,12.8511,12.8511,12.8511,12.8511,12.7974,12.7046,12.5973,12.5045,12.4069,12.3044,12.2569,12.2434,12.4957,12.7888,13.1155,13.4452,13.7586,14.071,14.1126,14.1183,14.1183,14.1183,14.1183,14.1183,14.1183,14.1183,14.1183,14.1183,14.1183,14.1183,14.1183,14.1183,14.1183,14.1183,14.1183,14.1183,14.1183,14.1183,14.1183,14.1321,14.146,14.1874,14.2424,14.338,5.7727,5.7374,5.7896,5.7826,5.7424,5.8332,6.0262,6.2478,6.542,6.857,7.202,7.659,7.8907,8.1065,8.492,8.7539,8.8824,8.919,8.919,8.9333,8.9974,9.0331,9.0367,9.0331,9.0224,9.001,8.9582,8.9226,8.919,8.919,8.919,8.9373,9.0104,9.0651,9.1415,9.2688,9.4261,9.5295,9.6182,9.704,9.7913,9.8597,9.9354,10.173,10.5045,10.7217,10.941,11.392,11.7732,11.8656,12.1315,12.2743,12.3087,12.3087,12.3087,12.3087,12.3087,12.3087,12.3087,12.3087,12.3087,12.3774,12.4751,12.577,12.6664,12.7673,12.8176,12.8511,12.8511,12.8511,12.8511,12.8511,12.8511,12.8511,12.8413,12.8071,12.7046,12.5973,12.4948,12.3923,12.2947,12.2275,12.4226,12.6456,12.9557,13.2839,13.5377,13.7729,14.0431,14.1126,14.1183,14.1183,14.1183,14.1183,14.1183,14.1183,14.1183,14.1183,14.1183,14.1183,14.1183,14.1183,14.1183,14.1183,14.1183,14.1183,14.1183,14.1183,14.1183,14.1183,14.146,14.1598,14.2287,14.2971,14.3651,5.8548,5.8452,5.9066,5.8681,5.8584,6.2322,6.4299,6.5237,6.9689,7.3906,7.7404,7.9813,8.2776,8.5105,8.7723,8.8676,8.9226,8.919,8.919,8.9262,8.9939,9.0153,9.0224,9.0188,8.9974,8.9404,8.9262,8.9226,8.919,8.919,8.919,8.9373,9.0104,9.116,9.218,9.3641,9.515,9.6037,9.6895,9.7761,9.8521,9.8749,10.1034,10.4184,10.8316,11.1766,11.4277,11.663,11.9006,12.1834,12.279,12.2962,12.3087,12.3087,12.3087,12.3087,12.3087,12.3087,12.3087,12.3259,12.3774,12.5261,12.577,12.6447,12.7457,12.8127,12.8462,12.8462,12.8511,12.8511,12.8511,12.8511,12.8511,12.8511,12.8511,12.8023,12.7046,12.5973,12.5321,12.4405,12.433,12.4794,12.6456,12.8549,13.1506,13.436,13.5865,13.7784,13.9816,14.1183,14.1183,14.1183,14.1183,14.1183,14.1183,14.1183,14.1183,14.1183,14.1183,14.1183,14.1183,14.1183,14.1183,14.1183,14.1183,14.1183,14.1183,14.1183,14.1183,14.1321,14.146,14.2012,14.2698,14.338,14.3922,6.031,6.048,6.0645,6.0522,6.0882,6.4822,6.759,6.9926,7.5125,7.9589,8.2557,8.4852,8.6365,8.7907,8.8824,8.919,8.919,8.919,8.919,8.9297,8.9511,8.9761,8.9725,8.9689,8.9618,8.9297,8.919,8.919,8.919,8.919,8.9262,8.9373,9.1122,9.2182,9.306,9.5229,9.6527,9.7349,9.8027,9.8559,9.928,9.9394,10.1498,10.5704,11.1405,11.5389,11.7556,11.9181,12.1142,12.2571,12.3087,12.3087,12.3087,12.3087,12.3087,12.3087,12.3087,12.3259,12.3602,12.3774,12.424,12.5601,12.6278,12.6711,12.6876,12.81,12.8218,12.7925,12.8169,12.8511,12.8511,12.8511,12.8511,12.8511,12.8511,12.8071,12.7327,12.7504,12.7687,12.7248,12.6896,12.789,12.9406,13.1952,13.4506,13.5811,13.7356,13.9114,14.1183,14.1183,14.1183,14.1183,14.1183,14.1183,14.1183,14.1183,14.1183,14.1183,14.1183,14.1183,14.1183,14.1183,14.1183,14.1183,14.1183,14.1183,14.1183,14.1183,14.1183,14.146,14.1874,14.2287,14.3028,14.3787,14.4462,6.2293,6.2614,6.3637,6.3782,6.4562,6.9214,7.2806,7.5163,8.0975,8.4718,8.7011,8.8528,8.9007,8.919,8.919,8.919,8.919,8.919,8.919,8.919,8.919,8.919,8.9226,8.9262,8.9226,8.9226,8.919,8.919,8.9297,8.9368,8.944,8.9985,9.207,9.354,9.4056,9.6238,9.8179,9.8635,9.8938,9.9318,9.9812,10.0791,10.3373,10.74,11.3741,11.738,11.9006,12.1489,12.2915,12.3087,12.3087,12.3087,12.3087,12.3087,12.3087,12.3259,12.3431,12.3774,12.4457,12.4751,12.5091,12.5892,12.6375,12.6493,12.5887,12.7349,12.7632,12.7339,12.7876,12.8462,12.8511,12.8511,12.8511,12.8511,12.8511,12.8169,12.7737,12.8896,12.969,13.0027,13.0552,13.1751,13.2639,13.4797,13.6154,13.7641,13.9114,14.071,14.1183,14.1183,14.1183,14.1183,14.1183,14.1183,14.1183,14.1183,14.1183,14.1183,14.1183,14.1183,14.146,14.146,14.146,14.1321,14.1183,14.1183,14.1183,14.1183,14.1321,14.1736,14.2012,14.2561,14.3244,14.4192,14.4865,6.3499,6.4496,6.8606,6.9681,7.0398,7.8655,8.1401,8.2074,8.6532,8.9262,8.9712,8.9327,8.9333,8.919,8.9262,8.919,8.919,8.919,8.919,8.919,8.919,8.9297,8.9297,8.9262,8.9262,8.9333,8.9226,8.9262,8.9475,8.9974,9.0188,9.0958,9.3055,9.4127,9.5091,9.725,9.8448,9.8938,9.9432,10.0,10.1018,10.3226,10.6665,11.0681,11.5744,11.8656,12.1315,12.2571,12.3087,12.3087,12.3087,12.3087,12.3087,12.3087,12.3384,12.4022,12.4098,12.4439,12.5336,12.541,12.5892,12.6447,12.6155,12.6004,12.6521,12.6832,12.7095,12.6754,12.7876,12.8413,12.8511,12.8511,12.8511,12.8678,12.8795,12.8678,12.8638,12.9345,13.0063,13.0068,13.1264,13.3052,13.4942,13.6442,13.7554,13.9923,14.0544,14.1465,14.1239,14.1183,14.1183,14.1183,14.1183,14.1183,14.1183,14.1183,14.1183,14.1183,14.1183,14.1321,14.1598,14.1736,14.1736,14.1598,14.1321,14.1183,14.1183,14.1321,14.146,14.1736,14.2149,14.2835,14.3401,14.3866,14.4072,6.5729,6.8899,7.1327,7.367,7.6328,8.2631,8.5155,8.546,8.9206,9.1044,9.0866,9.0224,8.9868,8.9832,8.9404,8.9226,8.919,8.919,8.919,8.919,8.919,8.944,8.9654,8.9368,8.944,8.9796,8.9868,8.9868,9.001,9.0687,9.1381,9.2271,9.4231,9.5571,9.6206,9.8265,9.947,9.9508,9.9736,10.1244,10.3079,10.5045,10.8864,11.4277,11.6453,11.9181,12.2399,12.3087,12.3087,12.3087,12.3087,12.3306,12.3727,12.3256,12.339,12.4236,12.4236,12.4456,12.4791,12.5413,12.5747,12.5879,12.5821,12.5401,12.5321,12.6314,12.6558,12.6314,12.7632,12.8315,12.8511,12.8511,12.8511,12.8962,13.2161,13.433,13.4491,13.5531,13.6551,13.7143,13.8225,13.9968,14.1029,14.1371,14.1803,14.2004,14.2142,14.1803,14.1295,14.1239,14.1183,14.1183,14.1183,14.1183,14.1183,14.1183,14.1183,14.1183,14.1183,14.146,14.1736,14.2068,14.1874,14.146,14.1321,14.1183,14.1183,14.1183,14.146,14.1736,14.2287,14.2663,14.2463,14.2676,14.2706,6.7016,7.1794,7.3757,7.7077,8.1592,8.6383,8.8191,8.8338,9.0907,9.1864,9.1614,9.0794,9.0295,9.026,8.9547,8.919,8.919,8.919,8.919,8.919,8.919,8.9547,8.9796,8.9475,8.9582,9.0224,9.026,9.0623,9.1095,9.2034,9.2769,9.393,9.5638,9.6987,9.7965,10.0335,10.1394,10.1432,10.2331,10.4674,10.7258,10.8316,11.1766,11.7204,11.848,12.0447,12.2571,12.3087,12.3087,12.3087,12.3072,12.3351,12.372,12.3208,12.319,12.4026,12.4192,12.4141,12.4532,12.5084,12.5462,12.5387,12.5143,12.4606,12.3923,12.5485,12.5924,12.5973,12.7242,12.8511,12.8511,12.8511,12.9129,13.0075,13.3574,13.6833,13.8093,14.0386,14.1645,14.1983,14.3253,14.3882,14.4284,14.4284,14.4088,14.3186,14.2875,14.2593,14.1521,14.1183,14.1183,14.1183,14.1183,14.1183,14.1239,14.1239,14.1183,14.1183,14.1321,14.146,14.1736,14.2206,14.1874,14.146,14.146,14.1183,14.1183,14.1183,14.146,14.1598,14.2173,14.2514,14.2254,14.1927,14.2012,6.6423,7.1303,7.6138,8.0809,8.5287,9.0637,9.2453,9.2219,9.2612,9.2577,9.2256,9.1008,9.0367,9.0188,8.9547,8.919,8.919,8.919,8.919,8.919,8.9226,8.9262,8.9404,8.9368,8.9761,9.0367,9.0509,9.1389,9.2783,9.3578,9.4769,9.59,9.7699,9.8564,9.9774,10.3334,10.5415,10.5969,10.8681,11.0319,11.1224,11.4277,11.7027,11.7732,12.0621,12.2571,12.2915,12.3087,12.3087,12.2994,12.288,12.2918,12.2971,12.2715,12.3138,12.3962,12.3962,12.4309,12.4915,12.5126,12.5289,12.4996,12.4264,12.3825,12.3825,12.4655,12.5289,12.5289,12.7095,12.8413,12.8413,12.8462,13.0025,13.26,13.4607,13.657,13.8459,14.0897,14.2421,14.2688,14.3565,14.4907,14.5189,14.5133,14.4512,14.3609,14.3158,14.248,14.1578,14.1183,14.1183,14.1183,14.1239,14.1352,14.1747,14.1634,14.1183,14.1183,14.1183,14.1321,14.146,14.2012,14.2068,14.1874,14.1736,14.1321,14.1183,14.1183,14.1321,14.1428,14.1695,14.2364,14.2216,14.1962,14.168,7.2775,7.7366,7.9737,8.3701,8.8551,9.1144,9.2755,9.3325,9.2933,9.2719,9.2398,9.1044,9.0367,9.0188,8.9547,8.9226,8.919,8.919,8.919,8.919,8.919,8.919,8.9262,8.9654,9.0331,9.1044,9.1579,9.2536,9.3839,9.4564,9.5915,9.8,10.0638,10.244,10.3412,10.7217,10.941,10.9592,11.0863,11.2845,11.499,11.663,11.848,12.0795,12.2226,12.2915,12.3087,12.3087,12.2854,12.2416,12.2627,12.307,12.3404,12.2988,12.2901,12.3714,12.3828,12.3746,12.3323,12.402,12.4118,12.3386,12.2947,12.2751,12.2947,12.3776,12.4313,12.4655,12.6265,12.7486,12.7632,12.8023,13.0666,13.5107,13.7043,14.0449,14.4036,14.5662,14.603,14.601,14.6664,14.7132,14.6995,14.6656,14.5584,14.4399,14.3553,14.265,14.1578,14.1183,14.1747,14.2085,14.1747,14.1747,14.2142,14.1747,14.1239,14.1183,14.1183,14.1321,14.146,14.1874,14.2206,14.1874,14.1598,14.1183,14.1183,14.1183,14.0957,14.1145,14.1274,14.1101,14.0762,14.0792,14.0566,7.6294,8.0472,8.1418,8.4873,8.947,9.0474,9.1543,9.2612,9.222,9.2149,9.2078,9.0937,9.0367,9.0188,8.9547,8.919,8.919,8.919,8.919,8.919,8.919,8.919,8.9297,8.9725,9.0295,9.0901,9.1864,9.3228,9.4878,9.6864,9.8753,10.1167,10.4594,10.6809,10.7767,11.1405,11.3383,11.3562,11.4456,11.6276,11.8831,11.9181,12.0402,12.2743,12.3087,12.3087,12.3087,12.2807,12.251,12.2194,12.2277,12.2787,12.3268,12.2857,12.2646,12.3128,12.3288,12.2898,12.2361,12.2849,12.2947,12.2361,12.2166,12.2117,12.2214,12.3191,12.3825,12.402,12.5338,12.6412,12.6674,12.7919,13.0543,13.4385,13.7729,14.0937,14.4663,14.7023,14.818,14.8664,14.8777,14.8777,14.8495,14.7446,14.6205,14.4963,14.3778,14.265,14.1634,14.1521,14.2142,14.2368,14.2311,14.2085,14.186,14.1408,14.1183,14.1183,14.1183,14.1183,14.146,14.1736,14.1736,14.1598,14.146,14.1183,14.1183,14.1013,14.0926,14.0919,14.0513,13.9862,13.9046,13.8975,13.8991,7.5985,8.0099,8.0766,8.3957,8.8011,8.8941,8.9654,9.0474,9.0438,9.0866,9.1293,9.0652,9.0224,9.0153,8.9511,8.919,8.919,8.919,8.919,8.919,8.919,8.919,8.919,8.9297,8.9404,8.9618,9.0901,9.3065,9.6128,10.0288,10.3548,10.5888,10.9286,11.1278,11.1585,11.5212,11.738,11.7908,12.0228,12.2226,12.2915,12.2571,12.2743,12.2915,12.3087,12.3087,12.3041,12.2199,12.1978,12.2493,12.1858,12.174,12.2322,12.2209,12.2055,12.2263,12.2214,12.2166,12.2117,12.2214,12.2312,12.2117,12.2117,12.2117,12.2263,12.3044,12.363,12.3727,12.4655,12.5338,12.5826,12.8097,13.0536,13.0693,13.483,13.8546,14.1913,14.4915,14.722,14.8123,14.8551,14.8721,14.8349,14.7503,14.6318,14.502,14.3835,14.265,14.1803,14.2029,14.2255,14.2029,14.2029,14.2142,14.1634,14.1183,14.1183,14.1183,14.1183,14.1183,14.146,14.1736,14.1874,14.146,14.1265,14.1039,14.0982,14.0111,14.0079,14.0036,13.9719,13.935,13.8514,13.791,13.7694,7.9274,8.2745,8.334,8.4922,8.7194,8.7515,8.8335,8.9511,8.9547,8.9725,8.9868,8.9689,8.9582,8.9511,8.9333,8.919,8.919,8.919,8.919,8.919,8.919,8.919,8.919,8.919,8.9475,9.001,9.0545,9.3685,9.8752,10.337,10.6569,10.8814,11.2612,11.4731,11.6011,11.9356,12.1142,12.1315,12.2399,12.3087,12.3087,12.3087,12.3087,12.3087,12.3087,12.2854,12.2152,12.1872,12.1368,12.0841,12.0982,12.1183,12.147,12.1834,12.2117,12.2117,12.2117,12.2117,12.2117,12.2117,12.2117,12.2117,12.2117,12.2117,12.2166,12.2458,12.2654,12.2898,12.363,12.4313,12.5194,12.8442,13.2325,13.5417,13.8498,14.1431,14.3554,14.4842,14.5497,14.6205,14.6938,14.739,14.7333,14.7051,14.6205,14.502,14.3835,14.3045,14.2424,14.2255,14.1973,14.327,14.265,14.2142,14.2085,14.1465,14.1183,14.1183,14.1183,14.1183,14.1321,14.1736,14.1874,14.1403,14.1095,14.0951,14.0329,13.9208,13.8859,13.8812,13.8493,13.8115,13.7828,13.7336,13.7277,8.1876,8.3736,8.3986,8.4841,8.5982,8.6018,8.6731,8.7907,8.7943,8.8263,8.8727,8.8798,8.8941,8.919,8.919,8.919,8.919,8.919,8.919,8.919,8.919,8.919,8.919,8.919,8.9659,9.0604,9.1889,9.5834,10.1987,10.6767,10.9918,11.1926,11.5903,11.8176,11.9333,12.1696,12.3087,12.3087,12.3087,12.3087,12.3087,12.3087,12.3087,12.3087,12.3087,12.2667,12.1685,12.1602,12.112,12.0201,12.0753,12.1083,12.1259,12.1848,12.2117,12.2117,12.2117,12.2117,12.2117,12.2117,12.2117,12.2117,12.2117,12.2117,12.2117,12.2117,12.2117,12.2263,12.2849,12.4686,12.6483,12.957,13.3253,13.6935,13.9427,14.1266,14.341,14.423,14.4399,14.4963,14.5979,14.6995,14.7333,14.7051,14.6487,14.5584,14.4117,14.327,14.2932,14.248,14.2198,14.2988,14.2593,14.2029,14.2593,14.1578,14.1126,14.1126,14.107,14.1013,14.1126,14.1541,14.1113,14.0587,14.0474,14.0216,13.9062,13.8079,13.7763,13.7467,13.6957,13.679,13.693,13.669,13.6617,8.3558,8.2417,8.3023,8.3843,8.4556,8.4592,8.5055,8.5804,8.5804,8.6624,8.7907,8.8085,8.8549,8.9404,8.9368,8.9262,8.9262,8.9226,8.919,8.919,8.919,8.919,8.919,8.919,8.9921,9.1596,9.4413,9.9286,10.5863,11.0539,11.3352,11.4606,11.8763,12.1328,12.1655,12.2402,12.3041,12.3087,12.3087,12.3087,12.3087,12.3041,12.2947,12.2807,12.29,12.2386,12.1621,12.1309,12.1314,12.1087,12.0987,12.121,12.1958,12.2117,12.2117,12.2117,12.2117,12.2117,12.2117,12.2117,12.2117,12.2117,12.2117,12.2117,12.2117,12.2117,12.2275,12.2434,12.2532,12.5057,13.0414,13.1655,13.304,13.6407,13.7125,13.9016,14.2594,14.2988,14.3553,14.4399,14.5471,14.6543,14.7954,14.7446,14.6995,14.6261,14.4681,14.327,14.327,14.2988,14.2424,14.2029,14.2198,14.248,14.1295,14.0393,14.0562,14.0506,14.0167,14.0675,14.0901,14.0844,14.0167,13.9659,13.9514,13.8949,13.7853,13.712,13.6668,13.6125,13.5427,13.5561,13.5927,13.5858,13.6201,8.256,8.2346,8.2988,8.3807,8.452,8.452,8.4663,8.4913,8.5447,8.6231,8.7194,8.78,8.9083,9.0652,9.0295,9.0046,8.9939,8.944,8.919,8.919,8.919,8.9592,9.0104,9.0286,9.203,9.5375,9.6941,10.1348,10.8672,11.3501,11.643,11.7455,11.8707,12.0142,12.1545,12.1872,12.2386,12.3041,12.3087,12.3087,12.2994,12.2433,12.1685,12.103,12.1396,12.1215,12.0392,12.0935,12.1087,12.1052,12.0875,12.1321,12.1958,12.2117,12.2117,12.2117,12.2117,12.2117,12.2117,12.2117,12.2117,12.2117,12.2117,12.2117,12.2117,12.2117,12.3175,12.4957,12.349,12.5889,13.3187,13.2934,13.4106,13.9058,13.9816,14.0208,14.1495,14.1691,14.186,14.2198,14.3553,14.4568,14.5753,14.7108,14.7503,14.6656,14.5302,14.4343,14.423,14.2763,14.1916,14.248,14.1916,14.0901,13.8926,13.8643,13.8474,13.8474,13.8643,13.87,13.8474,13.8531,13.8136,13.8248,13.8079,13.7515,13.6443,13.6104,13.5709,13.475,13.4298,13.4392,13.4967,13.504,13.5629,8.2774,8.2275,8.338,8.4093,8.4485,8.452,8.4699,8.5055,8.5519,8.6481,8.7729,8.8339,8.9921,9.2127,9.1879,9.1842,9.2096,9.1662,9.1264,9.0975,9.0975,9.1853,9.3333,9.3918,9.6359,10.0257,10.2507,10.5934,11.0606,11.4902,11.7291,11.7852,11.8319,11.9114,12.0282,12.0797,12.1545,12.248,12.2526,12.2293,12.1872,12.1311,12.0918,12.0645,12.1052,12.1031,12.046,12.1135,12.1468,12.0939,12.1162,12.164,12.2117,12.2117,12.2117,12.2117,12.2117,12.2117,12.2117,12.2117,12.2117,12.2117,12.2117,12.2117,12.2117,12.2117,12.3243,12.5643,12.5017,12.7328,13.4851,13.4797,13.5468,13.9956,14.1183,14.1183,14.1183,14.1183,14.1183,14.1239,14.2311,14.344,14.423,14.5866,14.643,14.5471,14.4681,14.344,14.2593,14.1352,14.0618,14.0675,14.0167,13.8982,13.7966,13.7458,13.7515,13.7515,13.7458,13.7458,13.7571,13.7458,13.7233,13.6781,13.6725,13.6273,13.5088,13.4863,13.475,13.4298,13.3791,13.3922,13.4519,13.4382,13.4143,8.3451,8.2524,8.3736,8.4485,8.4556,8.4734,8.5198,8.5768,8.5804,8.7123,8.9266,8.9673,9.1124,9.3282,9.3356,9.3687,9.4313,9.4535,9.4019,9.3684,9.3429,9.5131,9.8084,9.8948,10.1358,10.5547,10.9453,11.1544,11.2761,11.5791,11.7104,11.7057,11.7898,11.8413,11.8646,11.9535,12.0469,12.1498,12.1404,12.089,12.0123,11.9955,12.0243,12.1054,12.1054,12.1124,12.0992,12.1967,12.2018,12.1099,12.164,12.2117,12.2117,12.2019,12.197,12.1922,12.1873,12.1824,12.1824,12.1824,12.1726,12.1824,12.1726,12.1726,12.1726,12.1775,12.275,12.4581,12.5698,12.8488,13.5052,13.543,13.6522,14.0177,14.0844,14.107,14.1126,14.1183,14.1183,14.1183,14.2311,14.3101,14.3327,14.4343,14.4568,14.3948,14.3383,14.2311,14.0618,13.9603,13.8869,13.7571,13.712,13.7063,13.6951,13.712,13.6781,13.6894,13.7063,13.6838,13.6725,13.6725,13.6781,13.5596,13.5371,13.4806,13.396,13.3452,13.3339,13.2888,13.3001,13.3414,13.3879,13.34,13.2818,8.2488,8.2239,8.3201,8.395,8.4627,8.5804,8.641,8.6588,8.6588,8.8447,9.0972,9.1192,9.2363,9.4129,9.3577,9.3393,9.3466,9.2951,9.4143,9.6257,9.4229,9.6718,10.2477,10.1686,10.4771,11.0654,11.2859,11.4947,11.6854,11.7802,11.7922,11.7057,11.7197,11.7711,11.8506,11.8905,11.9394,12.0329,11.9628,11.9114,11.9046,11.888,11.8955,11.8858,11.9578,12.0293,12.0907,12.1709,12.2042,12.1848,12.1958,12.2117,12.2117,12.1336,12.0897,12.0848,12.0116,11.9628,11.9628,11.9628,11.9628,11.9628,11.9628,11.9676,11.9676,11.9676,12.0824,12.3219,12.2204,12.4528,13.1723,13.1866,13.2707,13.8915,13.9716,14.0054,14.0957,14.1183,14.1183,14.1295,14.2311,14.3045,14.327,14.4117,14.4512,14.3948,14.2763,14.1521,14.0731,13.8982,13.7063,13.5371,13.4581,13.475,13.4637,13.475,13.475,13.4505,13.4693,13.4863,13.4806,13.4693,13.4411,13.4298,13.3508,13.2831,13.2436,13.1646,13.1138,13.1138,13.1195,13.1026,13.1283,13.1327,13.1621,8.3273,8.3308,8.37,8.4128,8.4627,8.5804,8.6731,8.7551,8.8267,9.0105,9.2511,9.2584,9.3575,9.5199,9.4788,9.4788,9.5161,9.4897,9.5539,9.6962,9.7025,10.0077,10.4904,10.6338,10.9673,11.4609,11.6357,11.7598,11.86,11.902,11.8693,11.7711,11.7665,11.7711,11.7805,11.7805,11.8319,11.9348,11.7852,11.7104,11.7104,11.6962,11.7092,11.7327,11.7805,11.8547,12.0024,11.9365,11.9384,11.9872,11.9432,11.9384,11.9823,11.9335,11.9237,11.9725,11.9237,11.8944,11.8944,11.8944,11.8944,11.8944,11.8944,11.8505,11.7529,11.7871,11.8881,12.0454,12.1103,12.3714,12.9953,13.0524,13.2548,13.7953,13.8474,13.8756,13.9321,13.949,13.9716,14.028,14.0957,14.1578,14.2142,14.2763,14.2988,14.2311,14.1295,13.9828,13.8643,13.6951,13.5258,13.4129,13.3659,13.3659,13.3715,13.3659,13.3659,13.3659,13.3659,13.3659,13.3659,13.3659,13.3565,13.3057,13.2493,13.1759,13.1082,13.0461,13.0123,13.001,13.001,12.9671,12.9516,13.018,13.0823,8.452,8.452,8.452,8.4627,8.477,8.5412,8.6694,8.8196,8.9848,9.1722,9.3401,9.3401,9.4392,9.6091,9.6091,9.6471,9.7154,9.7192,9.714,9.6959,9.9699,10.2905,10.6879,11.0693,11.3998,11.722,11.9161,11.9581,11.8693,11.9441,11.9348,11.8413,11.8272,11.7852,11.7057,11.6963,11.7291,11.7805,11.6122,11.5234,11.5348,11.5142,11.5414,11.637,11.6177,11.6755,11.8212,11.6602,11.6016,11.6748,11.6065,11.6016,11.6748,11.665,11.6894,11.748,11.7578,11.7626,11.7773,11.7968,11.8163,11.8407,11.8456,11.7785,11.5982,11.667,11.7309,11.7911,12.105,12.4423,12.7775,13.0424,13.3097,13.6524,13.7176,13.7289,13.7571,13.7628,13.8023,13.8926,13.9038,13.9546,14.0675,14.0957,14.0562,13.949,13.949,13.8418,13.6217,13.4468,13.3847,13.3659,13.3659,13.3659,13.3659,13.3659,13.3678,13.3621,13.3452,13.3283,13.3001,13.2944,13.2606,13.1816,13.1364,13.0856,13.001,12.9671,12.9276,12.922,12.9163,12.8994,12.8091,12.916,12.9787,8.452,8.452,8.452,8.4913,8.5483,8.5625,8.6726,8.8299,8.9328,0.0,0.0,9.2504,9.3527,9.518,9.5218,9.5294,9.5446,9.5408,9.7088,9.9737,9.8028,10.1888,11.0358,10.9846,11.2605,11.8154,11.9535,11.9581,11.8553,11.8693,11.8226,11.7337,11.7244,11.715,11.701,11.6963,11.6262,11.4766,11.4345,11.4477,11.5112,11.5082,11.5396,11.609,11.6052,11.569,11.5088,11.543,11.5333,11.4747,11.5284,11.5381,11.4698,11.3868,11.2648,11.1135,11.0989,11.133,11.2209,11.3136,11.4405,11.6113,11.6211,11.6232,11.6119,11.6594,11.7915,12.0266,12.0982,12.3176,12.7109,12.8087,13.0396,13.5442,13.5935,13.633,13.7289,13.7458,13.7346,13.7741,13.7797,13.8248,13.9433,13.9659,13.9151,13.8248,13.8474,13.8136,13.4976,13.3791,13.3565,13.3565,13.3452,13.3546,13.3734,13.3678,13.3396,13.2436,13.2267,13.1872,13.1026,13.0631,13.0574,13.0405,12.9446,12.8938,12.8543,12.7753,12.7019,12.6963,12.6963,12.6906,12.6862,12.729,12.7689,8.3558,8.3914,8.3914,8.4724,0.0,8.6219,8.6672,8.7351,8.9029,9.0721,9.2387,9.2387,9.2967,9.3699,9.3699,9.3927,9.4345,9.4345,9.5604,9.7868,9.9418,10.3147,10.801,11.0385,11.3095,11.6215,11.7244,11.7478,11.701,11.7478,11.7197,11.6169,11.6169,11.5935,11.5421,11.5421,11.4906,11.3925,11.3411,11.3446,11.4185,11.4181,11.4589,11.5087,11.4576,0.0,0.0,0.0,0.0,0.0,0.0,0.0,0.0,11.2062,0.0,10.928,10.7719,10.6791,10.6889,10.8096,10.9559,11.127,11.2147,11.2506,11.2123,11.4267,11.6499,11.8863,12.1233,12.3463,12.6258,12.8488,13.0829,13.3377,13.317,13.3565,13.5088,13.4468,13.4468,13.6048,13.6556,13.7007,13.8248,13.8361,13.7628,13.5991,13.6668,13.6048,13.2718,13.1872,13.1872,13.1872,13.1872,13.1872,13.1872,13.1872,13.159,13.1195,13.0969,13.0687,13.0123,13.001,12.9784,12.9163,12.8599,12.7922,12.7358,12.6737,12.6342,12.6342,12.6342,12.6004,12.4706,12.4668,12.4984,8.2693,8.3435,8.3435,8.4171,8.5506,8.6468,8.6681,8.6558,8.8727,9.0466,9.1801,9.2105,9.2332,9.2484,9.2484,9.275,9.3206,9.3092,9.3634,9.4974,10.0003,10.3015,10.4644,10.9779,11.2637,11.3364,11.4158,11.4579,11.4579,11.5608,11.5654,11.4906,11.5047,11.4719,11.3925,0.0,0.0,0.0,11.2633,11.268,11.3457,11.3575,11.3812,11.428,11.3231,0.0,11.338,11.0989,11.0403,11.2062,11.1379,0.0,0.0,0.0,0.0,0.0,0.0,0.0,0.0,0.0,0.0,0.0,10.7281,10.7686,10.7487,11.1099,11.4414,11.7168,12.0739,12.3706,12.5189,12.8558,13.0743,13.1138,13.0292,13.0574,13.2662,13.1082,13.1026,13.4468,13.4468,13.4919,13.6668,13.6894,13.5935,13.396,13.4524,13.3621,12.9897,12.9784,12.9953,12.9728,13.0066,13.0123,13.0348,13.0292,13.0236,12.9953,12.9897,12.9558,12.9276,12.922,12.8825,12.8035,12.7809,12.7471,12.6568,12.6116,12.5891,12.5947,12.5721,12.5044,12.3069,12.2674,12.2922,8.2709,8.3454,8.3454,8.3526,8.3803,8.5425,8.6725,8.7407,8.852,8.9181,8.9333,9.0776,9.1801,9.2484,9.2484,9.2143,9.1497,9.0814,9.162,9.3598,9.4638,9.8162,10.3822,10.5687,10.8148,11.1058,11.1354,11.1447,11.1447,11.2476,11.2896,11.2803,11.3691,11.4018,11.3831,11.2102,11.126,11.1213,11.1692,11.2416,11.3384,11.3956,11.4334,11.4059,11.3185,11.216,11.133,11.0891,11.0793,11.1037,11.0796,11.0549,10.9817,10.5961,10.258,0.0,9.803,0.0,0.0,0.0,0.0,0.0,0.0,0.0,0.0,10.785,11.2189,11.7415,11.985,12.1958,12.4316,12.508,12.6162,12.8373,12.8486,12.8938,13.0236,12.922,12.9446,13.2098,13.0461,13.0913,13.4919,13.4919,13.3791,13.238,13.2944,13.1816,12.8035,12.8543,12.9446,12.8486,12.9276,13.0179,13.1026,13.0574,12.9841,12.9784,12.9051,12.8035,12.7076,12.685,12.6737,12.6568,12.6455,12.6399,12.6399,12.5383,12.464,12.4649,12.3746,12.29,12.2449,12.2279,12.2759,8.1467,8.2194,8.2658,8.2777,8.299,8.474,8.5454,8.5605,8.7345,8.808,8.8118,8.884,8.9371,8.9751,8.9713,9.0766,9.245,9.2265,9.3731,9.7021,9.8629,10.0815,10.3856,10.5792,10.7165,10.8222,10.8222,10.8222,10.8268,10.8689,10.953,11.0652,11.112,11.0465,10.8782,10.7848,10.8092,10.9718,11.0692,11.2021,11.386,11.4315,11.4678,11.4991,11.3966,11.3185,11.2697,11.1526,11.1184,11.1721,11.1184,11.0253,10.8964,10.5432,10.167,0.0,0.0,0.0,0.0,0.0,0.0,0.0,0.0,0.0,0.0,0.0,10.6339,11.1462,11.6047,11.9119,12.0248,12.1546,12.2505,12.3013,12.3069,12.3803,12.5721,12.5439,12.606,12.8543,12.843,12.8769,13.0236,13.0574,13.0179,12.8994,12.8712,12.7527,12.5101,12.6399,12.7809,12.7301,12.8204,12.922,12.9728,12.8769,12.7979,12.7922,12.7471,12.6737,12.5552,12.527,12.5044,12.4424,12.4254,12.4254,12.4254,12.3803,12.3464,12.3126,12.1376,11.974,11.9514,11.9006,11.8791,8.0829,8.1662,8.152,8.1576,8.196,8.3511,8.4003,8.4013,8.5743,8.66,8.6801,8.6827,8.6877,8.6785,8.6688,8.8696,9.2344,9.2504,9.5034,9.9174,10.1412,10.294,10.371,10.5992,10.6539,10.5791,10.5791,10.565,10.5463,10.565,10.6352,10.7427,10.7474,10.6165,10.364,10.4014,10.5476,10.815,10.9426,11.1222,11.3694,11.3844,11.4295,11.4893,11.3917,11.3478,11.3722,11.1672,11.0989,11.2062,11.0354,10.8781,10.7563,10.3672,0.0,0.0,0.0,0.0,0.0,0.0,0.0,0.0,0.0,9.3305,9.5696,0.0,10.0684,0.0,11.1345,11.5621,11.6524,11.7709,0.0,0.0,11.7088,11.7709,12.0135,12.0417,12.1489,12.4254,12.5101,12.5552,12.5834,12.6455,12.6286,12.4819,12.4254,12.3577,12.2449,12.4311,12.5778,12.5552,12.6173,12.685,12.6794,12.6286,12.5834,12.5496,12.5157,12.4593,12.3351,12.323,12.3295,12.2392,12.2392,12.2618,12.2731,12.2336,12.1997,12.0869,11.8668,11.658,11.658,11.5959,11.5621,8.1935,8.3245,8.0265,7.9371,8.0202,8.1204,8.2423,8.3828,8.398,8.4532,8.5084,8.5174,8.5079,8.4984,8.456,0.0,8.8356,8.9146,9.2329,9.6933,9.8367,10.0438,10.3252,10.4336,10.4809,10.4762,10.4715,10.4295,10.35,10.4295,10.3921,10.2285,10.2238,10.163,10.0602,10.2331,10.4215,10.6023,10.8008,10.9842,11.1421,11.2305,11.2795,11.2795,11.1721,11.1623,11.255,11.0549,10.9866,11.0649,10.7084,10.4671,10.3933,0.0,0.0,0.0,0.0,0.0,0.0,0.0,0.0,0.0,0.0,0.0,0.0,0.0,0.0,9.9654,10.6234,0.0,11.5057,11.342,0.0,0.0,0.0,11.1332,11.3815,11.4097,11.5452,11.9119,0.0,0.0,12.3907,12.369,12.2223,11.9853,12.1433,12.2336,12.1038,12.29,12.4198,12.3069,12.3069,12.3126,12.3351,12.3916,12.4029,12.3069,12.1941,12.0925,11.9853,12.0304,12.0981,12.0756,12.1828,12.2505,12.2618,12.1376,11.9796,11.6636,11.5677,11.5339,11.5282,11.5057,11.5,7.8725,7.8559,7.7099,7.6611,7.7086,7.7834,7.9158,8.0791,8.1284,8.1974,8.2588,8.2051,8.1659,8.1432,8.1119,0.0,0.0,0.0,9.2843,9.7894,9.8903,10.0445,10.2238,10.2659,10.2799,10.2799,10.2799,10.2939,10.3173,10.3547,10.0508,9.4337,0.0,9.3636,9.4524,9.7684,10.0729,10.375,10.7469,10.9923,11.0945,11.2014,11.2209,11.1574,11.1086,11.0793,11.0549,10.9085,10.8005,10.7542,10.4647,10.1456,0.0,0.0,0.0,0.0,0.0,0.0,0.0,0.0,0.0,0.0,0.0,9.1144,9.2266,0.0,0.0,0.0,9.9494,10.3015,10.7044,10.8454,0.0,0.0,0.0,0.0,0.0,0.0,0.0,11.3138,11.5508,11.7539,11.8724,11.7821,11.6975,11.6749,11.7596,11.8047,11.7483,0.0,12.0981,12.053,12.1038,12.1489,12.1433,12.132,12.0981,12.0474,12.053,12.0022,11.8216,11.8837,11.9063,11.7934,11.7821,11.8216,11.8216,11.7821,11.6862,11.5564,11.4041,11.2969,11.2912,11.1727,11.0929,7.4508,0.0,0.0,0.0,0.0,7.4527,7.5741,7.7336,7.8009,7.8602,7.9149,7.8676,0.0,0.0,0.0,0.0,0.0,0.0,9.3132,9.7282,9.9526,10.0742,10.1163,10.1209,10.1022,10.0742,10.0415,10.0368,10.0461,9.99,9.5646,8.8073,0.0,0.0,0.0,0.0,9.7811,10.1425,10.6215,10.9055,10.9964,11.0745,11.0891,11.0403,11.0403,10.9915,10.8841,10.7321,10.5972,10.446,10.1043,0.0,0.0,0.0,0.0,0.0,0.0,0.0,0.0,0.0,0.0,0.0,0.0,0.0,0.0,0.0,0.0,0.0,0.0,0.0,10.0837,10.3545,10.4335,0.0,0.0,0.0,0.0,0.0,0.0,0.0,0.0,0.0,11.2743,11.2404,11.2743,0.0,0.0,11.4718,11.4718,11.6524,11.7934,11.7934,11.8611,0.0,11.8668,11.7878,11.737,11.737,11.7709,11.7314,11.5282,11.5677,11.5734,11.3984,11.4267,11.4097,11.2574,11.2066,11.2009,11.1953,11.0599,10.9357,10.9188,10.7947,10.681,0.0,0.0,0.0,0.0,7.1337,0.0,0.0,0.0,7.3773,7.4151,0.0,7.5298,0.0,0.0,0.0,0.0,8.3737,8.8806,0.0,0.0,9.8965,10.1022,10.0087,9.9947,9.9573,9.8591,9.7516,9.602,9.4057,9.2093,0.0,0.0,0.0,0.0,0.0,0.0,9.6266,9.8736,10.4034,10.7114,10.7816,10.7865,10.8353,10.928,10.9329,10.8792,10.7621,10.5224,10.3327,10.2145,9.5759,0.0,0.0,0.0,0.0,0.0,0.0,0.0,0.0,0.0,0.0,0.0,0.0,0.0,0.0,0.0,0.0,0.0,0.0,0.0,0.0,9.8749,0.0,0.0,0.0,0.0,0.0,0.0,0.0,0.0,0.0,10.7608,10.6423,10.8285,11.0204,11.1332,0.0,0.0,0.0,0.0,11.5395,11.5395,11.5452,11.5057,11.3815,11.3589,11.3533,11.3477,0.0,0.0,11.0091,10.9922,10.9978,10.9865,11.1614,11.1502,10.5577,10.4617,10.4617,10.4561,10.4504,10.4279,10.4279,10.4212,10.4144,0.0,0.0,0.0,0.0,0.0,0.0,0.0,0.0,0.0,7.0554,7.1215,7.1731,0.0,0.0,0.0,0.0,0.0,0.0,0.0,0.0,9.0411,9.2093,9.3028,9.2327,9.2561,9.3402,9.2421,8.9148,0.0,0.0,0.0,0.0,0.0,0.0,0.0,0.0,9.5348,9.8722,10.507,10.8412,10.8695,10.8695,10.889,10.9232,10.8597,10.6539,10.3077,10.0815,9.8455,0.0,0.0,0.0,0.0,0.0,0.0,0.0,0.0,0.0,0.0,0.0,0.0,0.0,0.0,0.0,0.0,0.0,0.0,0.0,0.0,0.0,0.0,0.0,9.6379,0.0,0.0,0.0,0.0,0.0,0.0,0.0,0.0,0.0,10.1345,10.394,10.6705,10.8737,11.0091,11.1329,11.2501,0.0,0.0,0.0,0.0,0.0,0.0,0.0,11.1286,10.9269,10.8645,10.8143,10.7326,10.7269,10.6987,10.6141,0.0,0.0,10.1628,10.1458,10.2124,10.2421,10.1837,10.1268,10.1325,10.0642,10.0112,0.0,0.0,0.0,0.0,0.0,0.0,0.0,0.0,0.0,6.6976,6.7631,0.0,0.0,0.0,0.0,0.0,0.0,0.0,0.0,0.0,0.0,0.0,8.6624,8.6016,0.0,0.0,0.0,0.0,0.0,0.0,0.0,0.0,0.0,0.0,0.0,0.0,9.4539,9.8046,10.4663,10.8353,10.8743,10.8743,10.8743,10.8743,10.7719,10.5209,10.121,0.0,0.0,0.0,0.0,0.0,0.0,0.0,0.0,0.0,0.0,0.0,0.0,0.0,0.0,0.0,0.0,0.0,0.0,0.0,0.0,0.0,0.0,0.0,0.0,0.0,9.324,0.0,0.0,0.0,0.0,0.0,0.0,0.0,0.0,0.0,0.0,0.0,10.3498,10.5727,10.8086,11.0113,11.152,11.1906,11.2121,0.0,0.0,0.0,0.0,0.0,0.0,0.0,0.0,0.0,0.0,0.0,0.0,0.0,0.0,9.8722,9.6657,9.6885,9.7548,9.7771,0.0,0.0,0.0,0.0,0.0,0.0,0.0,0.0,0.0,0.0,0.0,0.0,0.0,0.0,0.0,6.3761,0.0,0.0,6.8555,0.0,0.0,0.0,0.0,0.0,0.0,0.0,0.0,0.0,0.0,0.0,0.0,0.0,0.0,0.0,0.0,0.0,0.0,0.0,0.0,0.0,0.0,9.3634,9.6444,10.2887,10.6596,10.7621,10.7621,10.7621,10.7621,10.6686,10.472,10.1867,0.0,0.0,0.0,0.0,0.0,0.0,0.0,0.0,0.0,0.0,0.0,0.0,0.0,0.0,0.0,0.0,0.0,0.0,0.0,0.0,0.0,0.0,0.0,0.0,0.0,0.0,8.9438,9.1357,9.2711,0.0,0.0,0.0,0.0,0.0,0.0,0.0,0.0,0.0,10.2592,10.6526,10.9533,11.0262,11.0751,11.1059,11.1116,11.02,10.8996,10.7735,10.7563,10.7105,0.0,0.0,0.0,0.0,0.0,0.0,0.0,0.0,0.0,0.0,0.0,0.0,0.0,0.0,0.0,0.0,0.0,0.0,0.0,0.0,0.0,0.0,0.0,0.0,0.0,0.0,0.0,0.0,0.0,0.0,0.0,0.0,0.0,0.0,0.0,0.0,0.0,0.0,0.0,0.0,0.0,0.0,0.0,0.0,0.0,0.0,0.0,0.0,0.0,0.0,0.0,0.0,0.0,0.0,9.3028,9.6395,10.2789,10.6254,10.6547,10.6547,10.6547,10.6498,10.5285,10.2835,0.0,0.0,0.0,0.0,0.0,0.0,0.0,0.0,0.0,0.0,0.0,0.0,0.0,0.0,0.0,0.0,0.0,0.0,0.0,0.0,0.0,0.0,0.0,0.0,0.0,0.0,0.0,0.0,8.9043,8.9269,9.0172,0.0,0.0,0.0,0.0,0.0,0.0,0.0,0.0,0.0,0.0,10.5214,10.8399,10.8258,10.8231,10.9662,10.9488,10.8851,10.7578,10.8099,10.7536,10.4081,0.0,0.0,0.0,0.0,0.0,0.0,0.0,0.0,0.0,0.0,0.0,0.0,0.0,0.0,0.0,0.0,0.0,0.0,0.0,0.0,0.0,0.0,0.0,0.0,0.0,0.0,0.0,0.0,0.0,0.0,0.0,0.0,0.0,0.0,0.0,0.0,0.0,0.0,0.0,0.0,0.0,0.0,0.0,0.0,0.0,0.0,0.0,0.0,0.0,0.0,0.0,0.0,0.0,9.2178,9.5809,10.2154,10.562,10.6059,10.6059,10.5864,10.5425,10.3687,10.0864,0.0,0.0,0.0,0.0,0.0,0.0,0.0,0.0,0.0,0.0,0.0,0.0,0.0,0.0,0.0,0.0,0.0,0.0,0.0,0.0,0.0,0.0,0.0,0.0,0.0,0.0,0.0,0.0,8.4585,8.5319,8.752,0.0,0.0,0.0,0.0,0.0,0.0,0.0,0.0,0.0,0.0,10.2122,10.5662,10.5991,0.0,0.0,10.7318,10.6678,10.5922,10.6445,10.5708,10.2114,10.0803,0.0,0.0,0.0,0.0,0.0,0.0,0.0,0.0,0.0,0.0,0.0,0.0,0.0,0.0,0.0,0.0,0.0,0.0,0.0,0.0,0.0,0.0,0.0,0.0,0.0,0.0,0.0,0.0,0.0,0.0,0.0,0.0,0.0,0.0,0.0,0.0,0.0,0.0,0.0,0.0,0.0,0.0,0.0,0.0,0.0,0.0,0.0,0.0,0.0,0.0,0.0,0.0,9.1514,9.4784,10.0934,10.4692,10.5815,10.5864,10.5464,10.4426,10.229,9.9155,0.0,0.0,0.0,0.0,0.0,0.0,0.0,0.0,0.0,0.0,0.0,0.0,0.0,0.0,0.0,0.0,0.0,0.0,0.0,0.0,0.0,0.0,0.0,0.0,0.0,0.0,0.0,0.0,0.0,0.0,0.0,0.0,0.0,0.0,0.0,0.0,0.0,0.0,0.0,0.0,0.0,9.9979,10.2119,10.3832,10.4875,0.0,10.3944,10.313,10.313,10.3188,10.2432,9.9989,0.0,0.0,0.0,0.0,0.0,0.0,0.0,0.0,0.0,0.0,0.0,0.0,0.0,0.0,0.0,0.0,0.0,0.0,0.0,0.0,0.0,0.0,0.0,0.0,0.0,0.0,0.0,0.0,0.0,0.0,0.0,0.0,0.0,0.0,0.0,0.0,0.0,0.0,0.0,0.0,0.0,0.0,0.0,0.0,0.0,0.0,0.0,0.0,0.0,0.0,0.0,0.0,0.0,0.0,9.3564,9.9177,10.2594,10.3619,10.3716,10.4017,10.4745,10.103,0.0,0.0,0.0,0.0,0.0,0.0,0.0,0.0,0.0,0.0,0.0,0.0,0.0,0.0,0.0,0.0,0.0,0.0,0.0,0.0,0.0,0.0,0.0,0.0,0.0,0.0,0.0,7.2848,0.0,0.0,0.0,0.0,0.0,0.0,0.0,0.0,0.0,0.0,0.0,0.0,0.0,0.0,9.6468,9.9863,9.9897,9.9839,0.0,0.0,10.0512,10.0512,10.1326,10.1443,0.0,0.0,0.0,0.0,0.0,0.0,0.0,0.0,0.0,0.0,0.0,0.0,0.0,0.0,0.0,0.0,0.0,0.0,0.0,0.0,0.0,0.0,0.0,0.0,0.0,0.0,0.0,0.0,0.0,0.0,0.0,0.0,0.0,0.0,0.0,0.0,0.0,0.0,0.0,0.0,0.0,0.0,0.0,0.0,0.0,0.0,0.0,0.0,0.0,0.0,0.0,0.0,0.0,0.0,8.8098,9.1807,9.6639,10.0428,10.3027,10.3076,10.4021,10.5794,10.1432,9.8585,0.0,0.0,0.0,0.0,0.0,0.0,0.0,0.0,0.0,0.0,0.0,0.0,0.0,0.0,0.0,0.0,0.0,0.0,0.0,0.0,0.0,0.0,0.0,0.0,0.0,0.0,0.0,0.0,0.0,0.0,0.0,0.0,0.0,0.0,0.0,0.0,0.0,0.0,0.0,0.0,0.0,0.0,9.5917,9.6615,0.0,0.0,0.0,9.7953,9.7953,0.0,0.0,0.0,0.0,0.0,0.0,0.0,0.0,0.0,0.0,0.0,0.0,0.0,0.0,0.0,0.0,0.0,0.0,0.0,0.0,0.0,0.0,0.0,0.0,0.0,0.0,0.0,0.0,0.0,0.0,0.0,0.0,0.0,0.0,0.0,0.0,0.0,0.0,0.0,0.0,0.0,0.0,0.0,0.0,0.0,0.0,0.0,0.0,0.0,0.0,0.0,0.0,0.0,0.0,0.0,0.0,0.0,9.0001,9.4101,9.8407,10.2766,10.3397,10.4671,10.6712,10.3203,10.003,0.0,0.0,0.0,0.0,0.0,0.0,0.0,0.0,0.0,0.0,0.0,0.0,0.0,0.0,0.0,0.0,0.0,0.0,0.0,0.0,0.0,0.0,0.0,0.0,0.0,0.0,0.0,0.0,0.0,0.0,0.0,0.0,0.0,0.0,0.0,0.0,0.0,0.0,0.0,0.0,0.0,9.0076,9.1729,9.3765,9.4288,0.0,0.0,9.5248,9.5422,9.5306,0.0,0.0,0.0,0.0,0.0,0.0,0.0,0.0,0.0,0.0,0.0,0.0,0.0,0.0,0.0,0.0,0.0,0.0,0.0,0.0,0.0,0.0,0.0,0.0,0.0,0.0,0.0,0.0,0.0,0.0,0.0,0.0,0.0,0.0,0.0,0.0,0.0,0.0,0.0,0.0,0.0,0.0,0.0,0.0,0.0,0.0,0.0,0.0,0.0,0.0,0.0,0.0,0.0,0.0,0.0,0.0,8.9904,9.3418,9.6841,10.0422,10.3317,10.5081,10.5833,10.5586,10.3615,0.0,0.0,0.0,0.0,0.0,0.0,0.0,0.0,0.0,0.0,0.0,0.0,0.0,0.0,0.0,0.0,0.0,0.0,0.0,0.0,0.0,0.0,0.0,0.0,0.0,0.0,0.0,0.0,0.0,0.0,0.0,0.0,0.0,0.0,0.0,0.0,0.0,0.0,0.0,0.0,0.0,8.8123,9.1438,9.1496,0.0,0.0,0.0,0.0,9.2543,9.1845,0.0,0.0,0.0,0.0,0.0,0.0,0.0,0.0,0.0,0.0,0.0,0.0,0.0,0.0,0.0,0.0,0.0,0.0,0.0,0.0,0.0,0.0,0.0,0.0,0.0,0.0,0.0,0.0,0.0,0.0,0.0,0.0,0.0,0.0,0.0,0.0,0.0,0.0,0.0,0.0,0.0,0.0,0.0,0.0,0.0,0.0,0.0,0.0,0.0,0.0,0.0,0.0,0.0,0.0,0.0,0.0,8.8195,9.1124,9.5836,10.2457,10.4362,10.6291,10.8296,10.7071,10.4229,0.0,0.0,0.0,0.0,0.0,0.0,0.0,0.0,0.0,0.0,0.0,0.0,0.0,0.0,0.0,0.0,0.0,0.0,0.0,0.0,0.0,0.0,0.0,0.0,0.0,0.0,0.0,0.0,0.0,0.0,0.0,0.0,0.0,0.0,0.0,0.0,0.0,0.0,0.0,0.0,8.4807,8.6203,8.8821,0.0,0.0,0.0,0.0,0.0,0.0,8.9926,8.9519,0.0,0.0,0.0,0.0,0.0,0.0,0.0,0.0,0.0,0.0,0.0,0.0,0.0,0.0,0.0,0.0,0.0,0.0,0.0,0.0,0.0,0.0,0.0,0.0,0.0,0.0,0.0,0.0,0.0,0.0,0.0,0.0,0.0,0.0,0.0,0.0,0.0,0.0,0.0,0.0,0.0,0.0,0.0,0.0,0.0,0.0,0.0,0.0,0.0,0.0,0.0,0.0,0.0,0.0,0.0,8.6013,8.8866,9.4706,10.386,10.5149,10.7049,10.9947,10.7622,10.3602,9.8128,0.0,0.0,0.0,0.0,0.0,0.0,0.0,0.0,0.0,0.0,0.0,0.0,0.0,0.0,0.0,0.0,0.0,0.0,0.0,0.0,0.0,0.0,0.0,0.0,0.0,0.0,0.0,0.0,0.0,0.0,0.0,0.0,0.0,0.0,0.0,0.0,0.0,0.0,0.0,8.2655,8.4225,0.0,0.0,0.0,0.0,0.0,0.0,0.0,0.0,8.789,0.0,0.0,0.0,0.0,0.0,0.0,0.0,0.0,0.0,0.0,0.0,0.0,0.0,0.0,0.0,0.0,0.0,0.0,0.0,0.0,0.0,0.0,0.0,0.0,0.0,0.0,0.0,0.0,0.0,0.0,0.0,0.0,0.0,0.0,0.0,0.0,0.0,0.0,0.0,0.0,0.0,0.0,0.0,0.0,0.0,0.0,0.0,0.0,0.0,0.0,0.0,0.0,0.0,0.0,0.0,0.0,8.8359,9.308,9.7466,10.3004,10.5631,10.5147,10.6601,10.3602,9.5645,0.0,0.0,0.0,0.0,0.0,0.0,0.0,0.0,0.0,0.0,0.0,0.0,0.0,0.0,0.0,0.0,0.0,0.0,0.0,0.0,0.0,0.0,0.0,0.0,0.0,0.0,0.0,0.0,0.0,0.0,0.0,0.0,0.0,0.0,0.0,0.0,0.0,0.0,7.742,7.9514,0.0,0.0,0.0,0.0,0.0,0.0,0.0,0.0,8.568,0.0,0.0,0.0,0.0,0.0,0.0,0.0,0.0,0.0,0.0,0.0,0.0,0.0,0.0,0.0,0.0,0.0,0.0,0.0,0.0,0.0,0.0,0.0,0.0,0.0,0.0,0.0,0.0,0.0,0.0,0.0,0.0,0.0,0.0,0.0,0.0,0.0,0.0,0.0,0.0,0.0,0.0,0.0,0.0,0.0,0.0,0.0,0.0,0.0,0.0,0.0,0.0,0.0,0.0,0.0,0.0,0.0,0.0,9.1223,9.6967,10.0973,10.3756,10.4926,10.2929,9.9257,0.0,0.0,0.0,0.0,0.0,0.0,0.0,0.0,0.0,0.0,0.0,0.0,0.0,0.0,0.0,0.0,0.0,0.0,0.0,0.0,0.0,0.0,0.0,0.0,0.0,0.0,0.0,0.0,0.0,0.0,0.0,0.0,0.0,0.0,0.0,0.0,0.0,0.0,0.0,0.0,0.0,0.0,0.0,0.0,0.0,0.0,0.0,0.0,0.0,0.0,0.0,0.0,0.0,0.0,0.0,0.0,0.0,0.0,0.0,0.0,0.0,0.0,0.0,0.0,0.0,0.0,0.0,0.0,0.0,0.0,0.0,0.0,0.0,0.0,0.0,0.0,0.0,0.0,0.0,0.0,0.0,0.0,0.0,0.0,0.0,0.0,0.0,0.0,0.0,0.0,0.0,0.0,0.0,0.0,0.0,0.0,0.0,0.0,0.0,0.0,0.0,0.0,0.0,0.0,0.0,0.0,0.0,0.0,8.9366,9.5858,9.8406,10.1098,10.3943,9.8636,9.4517,0.0,0.0,0.0,0.0,0.0,0.0,0.0,0.0,0.0,0.0,0.0,0.0,0.0,0.0,0.0,0.0,0.0,0.0,0.0,0.0,0.0,0.0,0.0,0.0,0.0,0.0,0.0,0.0,0.0,0.0,0.0,0.0,0.0,0.0,0.0,0.0,0.0,0.0,0.0,0.0,0.0,0.0,0.0,0.0,0.0,0.0,0.0,0.0,8.3218,0.0,0.0,0.0,0.0,0.0,0.0,0.0,0.0,0.0,0.0,0.0,0.0,0.0,0.0,0.0,0.0,0.0,0.0,0.0,0.0,0.0,0.0,0.0,0.0,0.0,0.0,0.0,0.0,0.0,0.0,0.0,0.0,0.0,0.0,0.0,0.0,0.0,0.0,0.0,0.0,0.0,0.0,0.0,0.0,0.0,0.0,0.0,0.0,0.0,0.0,0.0,0.0,0.0,0.0,0.0,0.0,0.0,0.0,0.0,8.7777,8.9588,9.4666,9.751,9.7764,9.494,9.1583,0.0,0.0,0.0,0.0,0.0,0.0,0.0,0.0,0.0,0.0,0.0,0.0,0.0,0.0,0.0,0.0,0.0,0.0,0.0,0.0,0.0,0.0,0.0,0.0,0.0,0.0,0.0,0.0,0.0,0.0,0.0,0.0,0.0,0.0,0.0,0.0,0.0,0.0,0.0,0.0,0.0,0.0,0.0,0.0,0.0,0.0,0.0,0.0,0.0,0.0,0.0,0.0,0.0,0.0,0.0,0.0,0.0,0.0,0.0,0.0,0.0,0.0,0.0,0.0,0.0,0.0,0.0,0.0,0.0,0.0,0.0,0.0,0.0,0.0,0.0,0.0,0.0,0.0,0.0,0.0,0.0,0.0,0.0,0.0,0.0,0.0,0.0,0.0,0.0,0.0,0.0,0.0,0.0,0.0,0.0,0.0,0.0,0.0,0.0,0.0,0.0,0.0,0.0,0.0,0.0,0.0,0.0,0.0,8.5045,8.8914,9.232,9.3143,9.1278,9.0237,8.8197,0.0,0.0,0.0,0.0,0.0,0.0,0.0,0.0,0.0,0.0,0.0,0.0,0.0,0.0,0.0,0.0,0.0,0.0,0.0,0.0,0.0,0.0,0.0,0.0,0.0,0.0,0.0,0.0,0.0,0.0,0.0,0.0,0.0,0.0,0.0,0.0,0.0,0.0,0.0,0.0,0.0,0.0,0.0,0.0,0.0,0.0,0.0,0.0,0.0,0.0,0.0,0.0,0.0,0.0,0.0,0.0,0.0,0.0,0.0,0.0,0.0,0.0,0.0,0.0,0.0,0.0,0.0,0.0,0.0,0.0,0.0,0.0,0.0,0.0,0.0,0.0,0.0,0.0,0.0,0.0,0.0,0.0,0.0,0.0,0.0,0.0,0.0,0.0,0.0,0.0,0.0,0.0,0.0,0.0,0.0,0.0,0.0,0.0,0.0,0.0,0.0,0.0,0.0,0.0,0.0,0.0,0.0,0.0,0.0,8.709,8.9317,8.9254,8.6774,8.6456,8.4811,0.0,0.0,0.0,0.0,0.0,0.0,0.0,0.0,0.0,0.0,0.0,0.0,0.0,0.0,0.0,0.0,0.0,0.0,0.0,0.0,0.0,0.0,0.0,0.0,0.0,0.0,0.0,0.0,0.0,0.0,0.0,0.0,0.0,0.0,0.0,0.0,0.0,0.0,0.0,0.0,0.0,0.0,0.0,0.0,0.0,0.0,0.0,0.0,0.0,0.0,0.0,0.0,0.0,0.0,0.0,0.0,0.0,0.0,0.0,0.0,0.0,0.0,0.0,0.0,0.0,0.0,0.0,0.0,0.0,0.0,0.0,0.0,0.0,0.0,0.0,0.0,0.0,0.0,0.0,0.0,0.0,0.0,0.0,0.0,0.0,0.0,0.0,0.0,0.0,0.0,0.0,0.0,0.0,0.0,0.0,0.0,0.0,0.0,0.0,0.0,0.0,0.0,0.0,0.0,0.0,0.0,0.0,0.0,0.0,8.2087,8.4811,8.6059,8.563,8.4446,8.1538,0.0,0.0,0.0,0.0,0.0,0.0,0.0,0.0,0.0,0.0,0.0,0.0,0.0,0.0,0.0,0.0,0.0,0.0,0.0,0.0,0.0,0.0,0.0,0.0,0.0,0.0,0.0,0.0,0.0,0.0,0.0,0.0,0.0,0.0,0.0,0.0,0.0,0.0,0.0,0.0,0.0,0.0,0.0,0.0,0.0,0.0,0.0,0.0,0.0,0.0,0.0,0.0,0.0,0.0,0.0,0.0,0.0,0.0,0.0,0.0,0.0,0.0,0.0,0.0,0.0,0.0,0.0,0.0,0.0,0.0,0.0,0.0,0.0,0.0,0.0,0.0,0.0,0.0,0.0,0.0,0.0,0.0,0.0,0.0,0.0,0.0,0.0,0.0,0.0,0.0,0.0,0.0,0.0,0.0,0.0,0.0,0.0,0.0,0.0,0.0,0.0,0.0,0.0,0.0,0.0,0.0,0.0,0.0,0.0,8.1681,8.3971,8.4784,8.3888,8.2166,7.9676,7.6347,0.0,0.0,0.0,0.0,0.0,0.0,0.0,0.0,0.0,0.0,0.0,0.0,0.0,0.0,0.0,0.0,0.0,0.0,0.0,0.0,0.0,0.0,0.0,0.0,0.0,0.0,0.0,0.0,0.0,0.0,0.0,0.0,0.0,0.0,0.0,0.0,0.0,0.0,0.0,0.0,0.0,0.0,0.0,0.0,0.0,0.0,0.0,0.0,0.0,0.0,0.0,0.0,0.0,0.0,0.0,0.0,0.0,0.0,0.0,0.0,0.0,0.0,0.0,0.0,0.0,0.0,0.0,0.0,0.0,0.0,0.0,0.0,0.0,0.0,0.0,0.0,0.0,0.0,0.0,0.0,0.0,0.0,0.0,0.0,0.0,0.0,0.0,0.0,0.0,0.0,0.0,0.0,0.0,0.0,0.0,0.0,0.0,0.0,0.0,0.0,0.0,0.0,0.0,0.0,0.0,0.0,0.0,0.0,8.1439,8.3023,8.3019,8.1337,7.997,7.7758,0.0,0.0,0.0,0.0,0.0,0.0,0.0,0.0,0.0,0.0,0.0,0.0,0.0,0.0,0.0,0.0,0.0,0.0,0.0,0.0,0.0,0.0,0.0,0.0,0.0,0.0,0.0,0.0,0.0,0.0,0.0,0.0,0.0,0.0,0.0,0.0,0.0,0.0,0.0,0.0,0.0,0.0,0.0,0.0,0.0,0.0,0.0,0.0,0.0,0.0,0.0,0.0,0.0,0.0,0.0,0.0,0.0,0.0,0.0,0.0,0.0,0.0,0.0,0.0,0.0,0.0,0.0,0.0,0.0,0.0,0.0,0.0,0.0,0.0,0.0,0.0,0.0,0.0,0.0,0.0,0.0,0.0,0.0,0.0,0.0,0.0,0.0,0.0,0.0,0.0,0.0,0.0,0.0,0.0,0.0,0.0,0.0,0.0,0.0,0.0,0.0,0.0,0.0,0.0,0.0,0.0,0.0,0.0,8.011,8.1062,8.1579,8.0861,7.8209,7.8096,7.5726,0.0,0.0,0.0,0.0,0.0,0.0,0.0,0.0,0.0,0.0,0.0,0.0,0.0,0.0,0.0,0.0,0.0,0.0,0.0,0.0,0.0,0.0,0.0,0.0,0.0,0.0,0.0,0.0,0.0,0.0,0.0,0.0,0.0,0.0,0.0,0.0,0.0,0.0,0.0,0.0,0.0,0.0,0.0,0.0,0.0,0.0,0.0,0.0,0.0,0.0,0.0,0.0,0.0,0.0,0.0,0.0,0.0,0.0,0.0,0.0,0.0,0.0,0.0,0.0,0.0,0.0,0.0,0.0,0.0,0.0,0.0,0.0,0.0,0.0,0.0,0.0,0.0,0.0,0.0,0.0,0.0,0.0,0.0,0.0,0.0,0.0,0.0,0.0,0.0,0.0,0.0,0.0,0.0,0.0,0.0,0.0,0.0,0.0,0.0,0.0,0.0,0.0,0.0,0.0,0.0,0.0,0.0,0.0,0.0,8.0229,0.0,8.1425,0.0,7.8886,7.6798,0.0,0.0,0.0,0.0,0.0,0.0,0.0,0.0,0.0,0.0,0.0,0.0,0.0,0.0,0.0,0.0,0.0,0.0,0.0,0.0,0.0,0.0,0.0,0.0,0.0,0.0,0.0,0.0,0.0,0.0,0.0,0.0,0.0,0.0,0.0,0.0,0.0,0.0,0.0,0.0,0.0,0.0,0.0,0.0,0.0,0.0,0.0,0.0,0.0,0.0,0.0,0.0,0.0,0.0,0.0,0.0,0.0,0.0,0.0,0.0,0.0,0.0,0.0,0.0,0.0,0.0,0.0,0.0,0.0,0.0,0.0,0.0,0.0,0.0,0.0,0.0,0.0,0.0,0.0,0.0,0.0,0.0,0.0,0.0,0.0,0.0,0.0,0.0,0.0,0.0,0.0,0.0,0.0,0.0,0.0,0.0,0.0,0.0,0.0,0.0,0.0,0.0,0.0,0.0,0.0,0.0,0.0,0.0,0.0,7.9168,8.0015,8.024,7.9789,7.8604,7.6742,0.0,0.0,0.0,0.0,0.0,0.0,0.0,0.0,0.0,0.0,0.0,0.0,0.0,0.0,0.0,0.0,0.0,0.0,0.0,0.0,0.0,0.0,0.0,0.0,0.0,0.0,0.0,0.0,0.0,0.0,0.0,0.0,0.0,0.0,0.0,0.0,0.0,0.0,0.0,0.0,0.0,0.0,0.0,0.0,0.0,0.0,0.0,0.0,0.0,0.0,0.0,0.0,0.0,0.0,0.0,0.0,0.0,0.0,0.0,0.0,0.0,0.0,0.0,0.0,0.0,0.0,0.0,0.0,0.0,0.0,0.0,0.0,0.0,0.0,0.0,0.0,0.0,0.0,0.0,0.0,0.0,0.0,0.0,0.0,0.0,0.0,0.0,0.0,0.0,0.0,0.0,0.0,0.0,0.0,0.0,0.0,0.0,0.0,0.0,0.0,0.0,0.0,0.0,0.0,0.0,0.0,0.0,0.0,0.0,7.7871,7.7871,7.7363,7.646,7.7306,7.5613,0.0,0.0,0.0,0.0,0.0,0.0,0.0,0.0,0.0,0.0,0.0,0.0,0.0,0.0,0.0,0.0,0.0,0.0,0.0,0.0,0.0,0.0,0.0,0.0,0.0,0.0,0.0,0.0,0.0,0.0,0.0,0.0,0.0,0.0,0.0,0.0,0.0,0.0,0.0,0.0,0.0,0.0,0.0,0.0,0.0,0.0,0.0,0.0,0.0,0.0,0.0,0.0,0.0,0.0,0.0,0.0,0.0,0.0,0.0,0.0,0.0,0.0,0.0,0.0,0.0,0.0,0.0,0.0,0.0,0.0,0.0,0.0,0.0,0.0,0.0,0.0,0.0,0.0,0.0,0.0,0.0,0.0,0.0,0.0,0.0,0.0,0.0,0.0,0.0,0.0,0.0,0.0,0.0,0.0,0.0,0.0,0.0,0.0,0.0,0.0,0.0,0.0,0.0,0.0,0.0,0.0,0.0,0.0,0.0,0.0,7.6686,7.6911,7.7419,7.6968,7.5613,7.33,0.0,0.0,0.0,0.0,0.0,0.0,0.0,0.0,0.0,0.0,0.0,0.0,0.0,0.0,0.0,0.0,0.0,0.0,0.0,0.0,0.0,0.0,0.0,0.0,0.0,0.0,0.0,0.0,0.0,0.0,0.0,0.0,0.0,0.0,0.0,0.0,0.0,0.0,0.0,0.0,0.0,0.0,0.0,0.0,0.0,0.0,0.0,0.0,0.0,0.0,0.0,0.0,0.0,0.0,0.0,0.0,0.0,0.0,0.0,0.0,0.0,0.0,0.0,0.0,0.0,0.0,0.0,0.0,0.0,0.0,0.0,0.0,0.0,0.0,0.0,0.0,0.0,0.0,0.0,0.0,0.0,0.0,0.0,0.0,0.0,0.0,0.0,0.0,0.0,0.0,0.0,0.0,0.0,0.0,0.0,0.0,0.0,0.0,0.0,0.0,0.0,0.0,0.0,0.0,0.0,0.0,0.0,0.0,0.0,0.0,7.6008,7.7193,7.5557,7.3864,0.0,0.0,0.0,0.0,0.0,0.0,0.0,0.0,0.0,0.0,0.0,0.0,0.0,0.0,0.0,0.0,0.0,0.0,0.0,0.0,0.0,0.0,0.0,0.0,0.0,0.0,0.0,0.0,0.0,0.0,0.0,0.0,0.0,0.0,0.0,0.0,0.0,0.0,0.0,0.0,0.0,0.0,0.0,0.0,0.0,0.0,0.0,0.0,0.0,0.0,0.0,0.0,0.0,0.0,0.0,0.0,0.0,0.0,0.0,0.0,0.0,0.0,0.0,0.0,0.0,0.0,0.0,0.0,0.0,0.0,0.0,0.0,0.0,0.0,0.0,0.0,0.0,0.0,0.0,0.0,0.0,0.0,0.0,0.0,0.0,0.0,0.0,0.0,0.0,0.0,0.0,0.0,0.0,0.0,0.0,0.0,0.0,0.0,0.0,0.0,0.0,0.0,0.0,0.0,0.0,0.0,0.0,0.0,0.0,0.0,0.0,7.4823,7.5952,7.3751,0.0,6.9361,0.0,0.0,0.0,0.0,0.0,0.0,0.0,0.0,0.0,0.0,0.0,0.0,0.0,0.0,0.0,0.0,0.0,0.0,0.0,0.0,0.0,0.0,0.0,0.0,0.0,0.0,0.0,0.0,0.0,0.0,0.0,0.0,0.0,0.0,0.0,0.0,0.0,0.0,0.0,0.0,0.0,0.0,0.0,0.0,0.0,0.0,0.0,0.0,0.0,0.0,0.0,0.0,0.0,0.0,0.0,0.0,0.0,0.0,0.0,0.0,0.0,0.0,0.0,0.0,0.0,0.0,0.0,0.0,0.0,0.0,0.0,0.0,0.0,0.0,0.0,0.0,0.0,0.0,0.0,0.0,0.0,0.0,0.0,0.0,0.0,0.0,0.0,0.0,0.0,0.0,0.0,0.0,0.0,0.0,0.0,0.0,0.0,0.0,0.0,0.0,0.0,0.0,0.0,0.0,0.0,0.0,0.0,0.0,0.0,0.0,0.0,0.0,7.3243,7.2228,7.1607,0.0,0.0,0.0,0.0,0.0,0.0,0.0,0.0,0.0,0.0,0.0,0.0,0.0,0.0,0.0,0.0,0.0,0.0,0.0,0.0,0.0,0.0,0.0,0.0,0.0,0.0,0.0,0.0,0.0,0.0,0.0,0.0,0.0,0.0,0.0,0.0,0.0,0.0,0.0,0.0,0.0,0.0,0.0,0.0,0.0,0.0,0.0,0.0,0.0,0.0,0.0,0.0,0.0,0.0,0.0,0.0,0.0,0.0,0.0,0.0,0.0,0.0,0.0,0.0,0.0,0.0,0.0,0.0,0.0,0.0,0.0,0.0,0.0,0.0,0.0,0.0,0.0,0.0,0.0,0.0,0.0,0.0,0.0,0.0,0.0,0.0,0.0,0.0,0.0,0.0,0.0,0.0,0.0,0.0,0.0,0.0,0.0,0.0,0.0,0.0,0.0,0.0,0.0,0.0,0.0,0.0,0.0,0.0,0.0,0.0,7.4259,7.4259,7.3131,7.2228,7.1607,0.0,0.0,0.0,0.0,0.0,0.0,0.0,0.0,0.0,0.0,0.0,0.0,0.0,0.0,0.0,0.0,0.0,0.0,0.0,0.0,0.0,0.0,0.0,0.0,0.0,0.0,0.0,0.0,0.0,0.0,0.0,0.0,0.0,0.0,0.0,0.0,0.0,0.0,0.0,0.0,0.0,0.0,0.0,0.0,0.0,0.0,0.0,0.0,0.0,0.0,0.0,0.0,0.0,0.0,0.0,0.0,0.0,0.0,0.0,0.0,0.0,0.0,0.0,0.0,0.0,0.0,0.0,0.0,0.0,0.0,0.0,0.0,0.0,0.0,0.0,0.0,0.0,0.0,0.0,0.0,0.0,0.0,0.0,0.0,0.0,0.0,0.0,0.0,0.0,0.0,0.0,0.0,0.0,0.0,0.0,0.0,0.0,0.0,0.0,0.0,0.0,0.0,0.0,0.0,0.0,0.0,0.0,0.0,0.0,0.0,0.0,0.0,0.0,0.0,7.0591,0.0,0.0,0.0,0.0,0.0,0.0,0.0,0.0,0.0,0.0,0.0,0.0,0.0,0.0,0.0,0.0,0.0,0.0,0.0,0.0,0.0,0.0,0.0,0.0,0.0,0.0,0.0,0.0,0.0,0.0,0.0,0.0,0.0,0.0,0.0,0.0,0.0,0.0,0.0,0.0,0.0,0.0,0.0,0.0,0.0,0.0,0.0,0.0,0.0,0.0,0.0,0.0,0.0,0.0,0.0,0.0,0.0,0.0,0.0,0.0,0.0,0.0,0.0,0.0,0.0,0.0,0.0,0.0,0.0,0.0,0.0,0.0,0.0,0.0,0.0,0.0,0.0,0.0,0.0,0.0,0.0,0.0,0.0,0.0,0.0,0.0,0.0,0.0,0.0,0.0,0.0,0.0,0.0,0.0,0.0,0.0,0.0,0.0,0.0,0.0,0.0,0.0,0.0,0.0,0.0,0.0,0.0,0.0,0.0,0.0,0.0,0.0,0.0,0.0,0.0,0.0,0.0,0.0,0.0,0.0,0.0,0.0,0.0,0.0,0.0,0.0,0.0,0.0,0.0,0.0,0.0,0.0,0.0,0.0,0.0,0.0,0.0,0.0,0.0,0.0,0.0,0.0,0.0,0.0,0.0,0.0,0.0,0.0,0.0,0.0,0.0,0.0,0.0,0.0,0.0,0.0,0.0,0.0,0.0,0.0,0.0,0.0,0.0,0.0,0.0,0.0,0.0,0.0,0.0,0.0,0.0,0.0,0.0,0.0,0.0,0.0,0.0,0.0,0.0,0.0,0.0,0.0,0.0,0.0,0.0,0.0,0.0,0.0,0.0,0.0,0.0,0.0,0.0,0.0,0.0,0.0,0.0,0.0,0.0,0.0,0.0,0.0,0.0,0.0,0.0,0.0,0.0,0.0,0.0,0.0,0.0,0.0,0.0,0.0,0.0,0.0,0.0,0.0,0.0,0.0,0.0,0.0,0.0,0.0,0.0,0.0,0.0,0.0,0.0,0.0,0.0,0.0,0.0,0.0,0.0,0.0,0.0,0.0,0.0,0.0,0.0,0.0,0.0,0.0,0.0,0.0,0.0,0.0,0.0,0.0,0.0,0.0,0.0,0.0,0.0,0.0,0.0,0.0,0.0,0.0,0.0,0.0,0.0,0.0,0.0,0.0,0.0,0.0,0.0,0.0,0.0,0.0,0.0,0.0,0.0,0.0,0.0,0.0,0.0,0.0,0.0,0.0,0.0,0.0,0.0,0.0,0.0,0.0,0.0,0.0,0.0,0.0,0.0,0.0,0.0,0.0,0.0,0.0,0.0,0.0,0.0,0.0,0.0,0.0,0.0,0.0,0.0,0.0,0.0,0.0,0.0,0.0,0.0,0.0,0.0,0.0,0.0,0.0,0.0,0.0,0.0,0.0,0.0,0.0,0.0,0.0,0.0,0.0,0.0,0.0,0.0,0.0,0.0,0.0,0.0,0.0,0.0,0.0,0.0,0.0,0.0,0.0,0.0,0.0,0.0,0.0,0.0,0.0,0.0,0.0,0.0,0.0,0.0,0.0,0.0,0.0,0.0,0.0,0.0,0.0,0.0,0.0,0.0,0.0,0.0,0.0,0.0,0.0,0.0,0.0,0.0,0.0,0.0,0.0,0.0,0.0,0.0,0.0,0.0,0.0,0.0,0.0,0.0,0.0,0.0,0.0,0.0,0.0,0.0,0.0,0.0,0.0,0.0,0.0,0.0,0.0,0.0,0.0,0.0,0.0,0.0,0.0,0.0,0.0,0.0,0.0,0.0,0.0,0.0,0.0,0.0,0.0,0.0,0.0,0.0,0.0,0.0,0.0,0.0,0.0,0.0,0.0,0.0,0.0,0.0,0.0,0.0,0.0,0.0,0.0,0.0,0.0,0.0,0.0,0.0,0.0,0.0,0.0,0.0,0.0,0.0,0.0,0.0,0.0,0.0,0.0,0.0,0.0,0.0,0.0,0.0,0.0,0.0,0.0,0.0,0.0,0.0,0.0,0.0,0.0,0.0,0.0,0.0,0.0,0.0,0.0,0.0,0.0,0.0,0.0,0.0,0.0,0.0,0.0,0.0,0.0,0.0,0.0,0.0,0.0,0.0,0.0,0.0,0.0,0.0,0.0,0.0,0.0,0.0,0.0,0.0,0.0,0.0,0.0,0.0,0.0,0.0,0.0,0.0,0.0,0.0,0.0,0.0,0.0,0.0,0.0,0.0,0.0,0.0,0.0,0.0,0.0,0.0,0.0,0.0,0.0,0.0,0.0,0.0,0.0,0.0,0.0,0.0,0.0,0.0,0.0,0.0,0.0,0.0,0.0,0.0,0.0,0.0,0.0,0.0,0.0,0.0,0.0,0.0,0.0,0.0,0.0,0.0,0.0,0.0,0.0,0.0,0.0,0.0,0.0,0.0,0.0,0.0,0.0,0.0,0.0,0.0,0.0,0.0,0.0,0.0,0.0,0.0,0.0,0.0,0.0,0.0,0.0,0.0,0.0,0.0,0.0,0.0,0.0,0.0,0.0,0.0,0.0,0.0,0.0,0.0,0.0,0.0,0.0,0.0,0.0,0.0,0.0,0.0,0.0,0.0,0.0,0.0,0.0,0.0,0.0,0.0,0.0,0.0,0.0,0.0,0.0,0.0,0.0,0.0,0.0,0.0,0.0,0.0,0.0,0.0,0.0,0.0,0.0,0.0,0.0,0.0,0.0,0.0,0.0,0.0,0.0,0.0,0.0,0.0,0.0,0.0,0.0,0.0,0.0,0.0,0.0,0.0,0.0,0.0,0.0,0.0,0.0,0.0,0.0,0.0,0.0,0.0,0.0,0.0,0.0,0.0,0.0,0.0,0.0,0.0,0.0,0.0,0.0,0.0,0.0,0.0,0.0,0.0,0.0,0.0,0.0,0.0,0.0,0.0,0.0,0.0,0.0,0.0,0.0,0.0,0.0,0.0,0.0,0.0,0.0,0.0,0.0,0.0,0.0,0.0,0.0,0.0,0.0,0.0,0.0,0.0,0.0,0.0,0.0,0.0,0.0,0.0,0.0,0.0,0.0,0.0,0.0,0.0,0.0,0.0,0.0,0.0,0.0,0.0,0.0,0.0,0.0,0.0,0.0,0.0,0.0,0.0,0.0,0.0,0.0,0.0,0.0,0.0,0.0,0.0,0.0,0.0,0.0,0.0,0.0,0.0,0.0,0.0,0.0,0.0,0.0,0.0,0.0,0.0,0.0,0.0,0.0,0.0,0.0,0.0,0.0,0.0,0.0,0.0,0.0,0.0,0.0,0.0,0.0,0.0,0.0,0.0,0.0,0.0,0.0,0.0,0.0,0.0,0.0,0.0,0.0,0.0,0.0,0.0,0.0,0.0,0.0,0.0,0.0,0.0,0.0,0.0,0.0,0.0,0.0,0.0,0.0,0.0,0.0,0.0,0.0,0.0,0.0,0.0,0.0,0.0,0.0,0.0,0.0,0.0,0.0,0.0,0.0,0.0,0.0,0.0,0.0,0.0,0.0,0.0,0.0,0.0,0.0,0.0,0.0,0.0,0.0,0.0,0.0,0.0,0.0,0.0,0.0,0.0,0.0,0.0,0.0,0.0,0.0,0.0,0.0,0.0,0.0,0.0,0.0,0.0,0.0,0.0,0.0,0.0,0.0,0.0,0.0,0.0,0.0,0.0,0.0,0.0,0.0,0.0,0.0,0.0,0.0,0.0,0.0,0.0,0.0,0.0,0.0,0.0,0.0,0.0,0.0,0.0,0.0,0.0,0.0,0.0,0.0,0.0,0.0,0.0,0.0,0.0,0.0,0.0,0.0,0.0,0.0,0.0,0.0,0.0,0.0,0.0,0.0,0.0,0.0,0.0,0.0,0.0,0.0,0.0,0.0,0.0,0.0,0.0,0.0,0.0,0.0,0.0,0.0,0.0,0.0,0.0,0.0,0.0,0.0,0.0,0.0,0.0,0.0,0.0,0.0,0.0,0.0,0.0,0.0,0.0,0.0,0.0,0.0,0.0,0.0,0.0,0.0,0.0,0.0,0.0,0.0,0.0,0.0,0.0,0.0,0.0,0.0,0.0,0.0,0.0,0.0,0.0,0.0,0.0,0.0,0.0,0.0,0.0,0.0,0.0,0.0,0.0,0.0,0.0,0.0,0.0,0.0,0.0,0.0,0.0,0.0,0.0,0.0,0.0,0.0,0.0,0.0,0.0,0.0,0.0,0.0,0.0,0.0,0.0,0.0,0.0,0.0,0.0,0.0,0.0,0.0,0.0,0.0,0.0,0.0,0.0,0.0,0.0,0.0,0.0,0.0,0.0,0.0,0.0,0.0,0.0,0.0,0.0,0.0]}]]]